<?xml version='1.0' encoding='UTF-8'?><gpx version="1.1" creator="JPX - https://github.com/jenetics/jpx" xmlns="http://www.topografix.com/GPX/1/1"><trk><trkseg><trkpt lat="44.42062946886897" lon="8.946951582735096"><ele>14.0</ele><time>2026-04-19T08:10:58.623Z</time></trkpt><trkpt lat="44.42051010053974" lon="8.946935871803126"><ele>13.999999999999998</ele><time>2026-04-19T08:13:03.279Z</time></trkpt><trkpt lat="44.42056920656126" lon="8.94702825195304"><ele>13.999999999999998</ele><time>2026-04-19T08:15:28.013Z</time></trkpt><trkpt lat="44.420575438715474" lon="8.946910037139142"><ele>14.0</ele><time>2026-04-19T08:17:41Z</time></trkpt><trkpt lat="44.42049889477111" lon="8.946845877687883"><ele>14.0</ele><time>2026-04-19T08:21:16Z</time></trkpt><trkpt lat="44.420478747606374" lon="8.946945746959603"><ele>14.0</ele><time>2026-04-19T08:21:19Z</time></trkpt><trkpt lat="44.420540498345304" lon="8.946912440415458"><ele>14.0</ele><time>2026-04-19T08:21:24Z</time></trkpt><trkpt lat="44.42060581261141" lon="8.946897184439175"><ele>14.0</ele><time>2026-04-19T08:21:55.001Z</time></trkpt><trkpt lat="44.42068478425582" lon="8.94687044432011"><ele>14.0</ele><time>2026-04-19T08:21:58.001Z</time></trkpt><trkpt lat="44.42075905641531" lon="8.946851454003367"><ele>14.0</ele><time>2026-04-19T08:22:00.001Z</time></trkpt><trkpt lat="44.420838097062095" lon="8.946833173565574"><ele>14.0</ele><time>2026-04-19T08:22:03.001Z</time></trkpt><trkpt lat="44.420901163872806" lon="8.946812308198675"><ele>14.0</ele><time>2026-04-19T08:22:07.001Z</time></trkpt><trkpt lat="44.420990820337245" lon="8.946789621691323"><ele>14.000000000000002</ele><time>2026-04-19T08:22:12.001Z</time></trkpt><trkpt lat="44.42106443101738" lon="8.946796595932266"><ele>14.0</ele><time>2026-04-19T08:22:14.001Z</time></trkpt><trkpt lat="44.421153387812105" lon="8.946776211586267"><ele>14.0</ele><time>2026-04-19T08:22:17.001Z</time></trkpt><trkpt lat="44.42124793682992" lon="8.946778011119672"><ele>14.0</ele><time>2026-04-19T08:22:20.001Z</time></trkpt><trkpt lat="44.42131484100878" lon="8.946775140688485"><ele>14.000000000000002</ele><time>2026-04-19T08:22:22.001Z</time></trkpt><trkpt lat="44.421387467212504" lon="8.94679531678471"><ele>14.0</ele><time>2026-04-19T08:22:24.001Z</time></trkpt><trkpt lat="44.421455816535385" lon="8.94681178952864"><ele>14.000000000000002</ele><time>2026-04-19T08:22:26.001Z</time></trkpt><trkpt lat="44.421527717569" lon="8.946820123067047"><ele>14.0</ele><time>2026-04-19T08:22:28.001Z</time></trkpt><trkpt lat="44.42160046858593" lon="8.946827600761965"><ele>14.0</ele><time>2026-04-19T08:22:30.001Z</time></trkpt><trkpt lat="44.421688350686914" lon="8.946834582641632"><ele>14.0</ele><time>2026-04-19T08:22:32.999Z</time></trkpt><trkpt lat="44.42176184690295" lon="8.946838399838041"><ele>14.000000000000002</ele><time>2026-04-19T08:22:35.999Z</time></trkpt><trkpt lat="44.42185299361197" lon="8.94685020113636"><ele>14.0</ele><time>2026-04-19T08:22:38.999Z</time></trkpt><trkpt lat="44.42191557810281" lon="8.946868570223764"><ele>14.000000000000002</ele><time>2026-04-19T08:22:40.999Z</time></trkpt><trkpt lat="44.421983688030025" lon="8.946882990517674"><ele>14.0</ele><time>2026-04-19T08:22:42.999Z</time></trkpt><trkpt lat="44.42207324966998" lon="8.946884784784473"><ele>14.0</ele><time>2026-04-19T08:22:46Z</time></trkpt><trkpt lat="44.42214754591043" lon="8.94687102602492"><ele>14.0</ele><time>2026-04-19T08:22:49Z</time></trkpt><trkpt lat="44.422216882493565" lon="8.946889344874768"><ele>14.000000000000002</ele><time>2026-04-19T08:22:52Z</time></trkpt><trkpt lat="44.4222940793698" lon="8.946874494554361"><ele>14.0</ele><time>2026-04-19T08:22:56Z</time></trkpt><trkpt lat="44.42236529459653" lon="8.946892718920203"><ele>14.2</ele><time>2026-04-19T08:23:00Z</time></trkpt><trkpt lat="44.422444606842355" lon="8.946949696035912"><ele>14.399999999999999</ele><time>2026-04-19T08:23:04Z</time></trkpt><trkpt lat="44.422514829908444" lon="8.94696661235894"><ele>14.6</ele><time>2026-04-19T08:23:06Z</time></trkpt><trkpt lat="44.42258246144717" lon="8.946976235243405"><ele>14.8</ele><time>2026-04-19T08:23:08Z</time></trkpt><trkpt lat="44.42267702172465" lon="8.946993818157237"><ele>15.0</ele><time>2026-04-19T08:23:11Z</time></trkpt><trkpt lat="44.422828166374146" lon="8.94704136740073"><ele>15.0</ele><time>2026-04-19T08:23:29Z</time></trkpt><trkpt lat="44.422904704186706" lon="8.94707231614595"><ele>15.0</ele><time>2026-04-19T08:24:01Z</time></trkpt><trkpt lat="44.423094875936506" lon="8.947093173764952"><ele>15.0</ele><time>2026-04-19T08:24:22.001Z</time></trkpt><trkpt lat="44.42320051535719" lon="8.947106634799848"><ele>15.0</ele><time>2026-04-19T08:24:35.001Z</time></trkpt><trkpt lat="44.42331084103801" lon="8.94711025627353"><ele>15.333333333333334</ele><time>2026-04-19T08:24:39.999Z</time></trkpt><trkpt lat="44.42340222281885" lon="8.947121294931755"><ele>15.666666666666668</ele><time>2026-04-19T08:24:42.999Z</time></trkpt><trkpt lat="44.423470482011595" lon="8.94713000660846"><ele>16.0</ele><time>2026-04-19T08:24:44.999Z</time></trkpt><trkpt lat="44.42355450193651" lon="8.94713839429647"><ele>16.333333333333336</ele><time>2026-04-19T08:24:47.999Z</time></trkpt><trkpt lat="44.42362771244949" lon="8.947151970799"><ele>16.666666666666668</ele><time>2026-04-19T08:24:49.999Z</time></trkpt><trkpt lat="44.42369564288471" lon="8.947160133967595"><ele>17.0</ele><time>2026-04-19T08:24:51.999Z</time></trkpt><trkpt lat="44.42377134226336" lon="8.947170994334455"><ele>17.57142857142857</ele><time>2026-04-19T08:24:53.999Z</time></trkpt><trkpt lat="44.423842936353296" lon="8.947189314491505"><ele>18.142857142857142</ele><time>2026-04-19T08:24:55.999Z</time></trkpt><trkpt lat="44.42390959831523" lon="8.947194794292919"><ele>18.714285714285715</ele><time>2026-04-19T08:24:57.999Z</time></trkpt><trkpt lat="44.42398195328477" lon="8.947208111277579"><ele>19.285714285714285</ele><time>2026-04-19T08:25:00.999Z</time></trkpt><trkpt lat="44.4240471662167" lon="8.947221954557223"><ele>19.857142857142858</ele><time>2026-04-19T08:25:02.999Z</time></trkpt><trkpt lat="44.42411670496358" lon="8.947226304048739"><ele>20.428571428571427</ele><time>2026-04-19T08:25:07Z</time></trkpt><trkpt lat="44.42418359756791" lon="8.94731114162534"><ele>21.0</ele><time>2026-04-19T08:25:12Z</time></trkpt><trkpt lat="44.424244221285015" lon="8.947363752412633"><ele>21.0</ele><time>2026-04-19T08:25:14Z</time></trkpt><trkpt lat="44.42426829683434" lon="8.947466550734688"><ele>21.0</ele><time>2026-04-19T08:25:17Z</time></trkpt><trkpt lat="44.424306299524076" lon="8.94756147275845"><ele>21.0</ele><time>2026-04-19T08:25:19Z</time></trkpt><trkpt lat="44.42436764762194" lon="8.94760351273831"><ele>21.0</ele><time>2026-04-19T08:25:21Z</time></trkpt><trkpt lat="44.4244532936617" lon="8.947615937333223"><ele>21.0</ele><time>2026-04-19T08:25:23Z</time></trkpt><trkpt lat="44.42452948921887" lon="8.947619926077127"><ele>21.0</ele><time>2026-04-19T08:25:25Z</time></trkpt><trkpt lat="44.42460577182632" lon="8.947635304631753"><ele>21.428571428571427</ele><time>2026-04-19T08:25:27Z</time></trkpt><trkpt lat="44.42467431907229" lon="8.947639592565958"><ele>21.857142857142858</ele><time>2026-04-19T08:25:29Z</time></trkpt><trkpt lat="44.4247434961937" lon="8.947646513635103"><ele>22.285714285714285</ele><time>2026-04-19T08:25:31Z</time></trkpt><trkpt lat="44.42481542101841" lon="8.947658216390057"><ele>22.714285714285715</ele><time>2026-04-19T08:25:33Z</time></trkpt><trkpt lat="44.424874263266645" lon="8.947689551752791"><ele>23.142857142857142</ele><time>2026-04-19T08:25:35Z</time></trkpt><trkpt lat="44.424963709028326" lon="8.947682166195515"><ele>23.57142857142857</ele><time>2026-04-19T08:25:38Z</time></trkpt><trkpt lat="44.42503134958687" lon="8.947690192966808"><ele>24.0</ele><time>2026-04-19T08:25:40Z</time></trkpt><trkpt lat="44.42510072617418" lon="8.94767481795129"><ele>24.0</ele><time>2026-04-19T08:25:42Z</time></trkpt><trkpt lat="44.42519437669097" lon="8.94767250555629"><ele>24.0</ele><time>2026-04-19T08:25:45Z</time></trkpt><trkpt lat="44.42525787776939" lon="8.947689074163486"><ele>24.0</ele><time>2026-04-19T08:25:47Z</time></trkpt><trkpt lat="44.425327422100274" lon="8.947760335159225"><ele>24.0</ele><time>2026-04-19T08:25:50Z</time></trkpt><trkpt lat="44.42538767476547" lon="8.947847313128726"><ele>24.0</ele><time>2026-04-19T08:25:53Z</time></trkpt><trkpt lat="44.42540891448271" lon="8.947955293767492"><ele>24.0</ele><time>2026-04-19T08:25:56Z</time></trkpt><trkpt lat="44.42540471383397" lon="8.948047148445141"><ele>23.999999999999996</ele><time>2026-04-19T08:25:59Z</time></trkpt><trkpt lat="44.425393828902074" lon="8.94813975943582"><ele>24.0</ele><time>2026-04-19T08:26:02Z</time></trkpt><trkpt lat="44.42537253080936" lon="8.94822582035133"><ele>24.0</ele><time>2026-04-19T08:26:05Z</time></trkpt><trkpt lat="44.425346786714776" lon="8.948321423079632"><ele>24.0</ele><time>2026-04-19T08:26:08Z</time></trkpt><trkpt lat="44.42530685821946" lon="8.948424038853439"><ele>24.0</ele><time>2026-04-19T08:26:12.001Z</time></trkpt><trkpt lat="44.4253007676401" lon="8.94851230328763"><ele>23.999999999999996</ele><time>2026-04-19T08:26:15.001Z</time></trkpt><trkpt lat="44.42531566848617" lon="8.94862025768409"><ele>24.0</ele><time>2026-04-19T08:26:20.001Z</time></trkpt><trkpt lat="44.425354432596265" lon="8.948692090557401"><ele>24.71428571428571</ele><time>2026-04-19T08:26:23.001Z</time></trkpt><trkpt lat="44.425421116767794" lon="8.948755427088853"><ele>25.42857142857143</ele><time>2026-04-19T08:26:27.001Z</time></trkpt><trkpt lat="44.42546203974011" lon="8.948846852015794"><ele>26.142857142857146</ele><time>2026-04-19T08:29:36Z</time></trkpt><trkpt lat="44.42543954232195" lon="8.948943035134205"><ele>26.857142857142858</ele><time>2026-04-19T08:29:42Z</time></trkpt><trkpt lat="44.42544266416564" lon="8.949036590310477"><ele>27.571428571428573</ele><time>2026-04-19T08:29:46Z</time></trkpt><trkpt lat="44.425422756716735" lon="8.949120832053156"><ele>28.28571428571429</ele><time>2026-04-19T08:29:50Z</time></trkpt><trkpt lat="44.42541519246141" lon="8.949219268033094"><ele>29.000000000000004</ele><time>2026-04-19T08:29:54Z</time></trkpt><trkpt lat="44.42539190877365" lon="8.94931116547406"><ele>30.75</ele><time>2026-04-19T08:30:03Z</time></trkpt><trkpt lat="44.42544559676503" lon="8.949390441337945"><ele>32.5</ele><time>2026-04-19T08:31:44Z</time></trkpt><trkpt lat="44.42551205351626" lon="8.949412295168004"><ele>34.25</ele><time>2026-04-19T08:31:46Z</time></trkpt><trkpt lat="44.425588317420676" lon="8.949422107867322"><ele>36.0</ele><time>2026-04-19T08:31:48Z</time></trkpt><trkpt lat="44.42581784206444" lon="8.949428266193157"><ele>36.0</ele><time>2026-04-19T08:31:53Z</time></trkpt><trkpt lat="44.42592696546125" lon="8.949464198846513"><ele>36.0</ele><time>2026-04-19T08:31:55Z</time></trkpt><trkpt lat="44.426028286578536" lon="8.949485687371974"><ele>36.0</ele><time>2026-04-19T08:31:57.001Z</time></trkpt><trkpt lat="44.426135046251396" lon="8.9495059822191"><ele>36.0</ele><time>2026-04-19T08:31:59.001Z</time></trkpt><trkpt lat="44.42623658483432" lon="8.949529896857142"><ele>36.0</ele><time>2026-04-19T08:32:01.001Z</time></trkpt><trkpt lat="44.426336399885585" lon="8.949533210827292"><ele>35.2</ele><time>2026-04-19T08:32:03.001Z</time></trkpt><trkpt lat="44.426433664035194" lon="8.94955171337557"><ele>34.400000000000006</ele><time>2026-04-19T08:32:05.001Z</time></trkpt><trkpt lat="44.426527069772874" lon="8.949559952529638"><ele>33.6</ele><time>2026-04-19T08:32:07.001Z</time></trkpt><trkpt lat="44.42661505410563" lon="8.949572838019828"><ele>32.800000000000004</ele><time>2026-04-19T08:32:09.001Z</time></trkpt><trkpt lat="44.42669773999148" lon="8.949595470869433"><ele>32.0</ele><time>2026-04-19T08:32:11.001Z</time></trkpt><trkpt lat="44.42677791087688" lon="8.94967322847098"><ele>32.0</ele><time>2026-04-19T08:32:13.001Z</time></trkpt><trkpt lat="44.42682249850096" lon="8.949792430268438"><ele>32.0</ele><time>2026-04-19T08:32:15.001Z</time></trkpt><trkpt lat="44.42688797546702" lon="8.949903636775144"><ele>32.0</ele><time>2026-04-19T08:32:17.001Z</time></trkpt><trkpt lat="44.426947008572284" lon="8.950023210703872"><ele>32.0</ele><time>2026-04-19T08:32:19.001Z</time></trkpt><trkpt lat="44.42700548504113" lon="8.950146047388348"><ele>32.0</ele><time>2026-04-19T08:32:21.001Z</time></trkpt><trkpt lat="44.42706966173736" lon="8.950267747958902"><ele>31.200000000000003</ele><time>2026-04-19T08:32:23.001Z</time></trkpt><trkpt lat="44.427114225710675" lon="8.95038188829122"><ele>30.400000000000002</ele><time>2026-04-19T08:32:25.001Z</time></trkpt><trkpt lat="44.4271662488737" lon="8.950509261061578"><ele>29.599999999999998</ele><time>2026-04-19T08:32:27.001Z</time></trkpt><trkpt lat="44.4271953414374" lon="8.950654209495127"><ele>28.799999999999997</ele><time>2026-04-19T08:32:29.001Z</time></trkpt><trkpt lat="44.42723043327428" lon="8.950795180046152"><ele>28.0</ele><time>2026-04-19T08:32:31.001Z</time></trkpt><trkpt lat="44.427258438521676" lon="8.950942008957709"><ele>28.000000000000004</ele><time>2026-04-19T08:32:33.002Z</time></trkpt><trkpt lat="44.42728868251882" lon="8.951019331057026"><ele>28.0</ele><time>2026-04-19T08:32:34.002Z</time></trkpt><trkpt lat="44.427313730148065" lon="8.951157549769853"><ele>28.0</ele><time>2026-04-19T08:32:36.002Z</time></trkpt><trkpt lat="44.427341647953135" lon="8.951288113099364"><ele>28.0</ele><time>2026-04-19T08:32:38.002Z</time></trkpt><trkpt lat="44.42736931464583" lon="8.951411849565584"><ele>28.000000000000004</ele><time>2026-04-19T08:32:40.002Z</time></trkpt><trkpt lat="44.42739360767705" lon="8.951525830475235"><ele>28.0</ele><time>2026-04-19T08:32:42.002Z</time></trkpt><trkpt lat="44.427418495247245" lon="8.951629956963968"><ele>30.166666666666668</ele><time>2026-04-19T08:32:45.002Z</time></trkpt><trkpt lat="44.42744918144883" lon="8.951746970015039"><ele>32.333333333333336</ele><time>2026-04-19T08:32:48.002Z</time></trkpt><trkpt lat="44.42747792532352" lon="8.951848740304904"><ele>34.5</ele><time>2026-04-19T08:32:50.002Z</time></trkpt><trkpt lat="44.427502647375945" lon="8.951936735618307"><ele>36.666666666666664</ele><time>2026-04-19T08:32:52.002Z</time></trkpt><trkpt lat="44.427533647602196" lon="8.952031990095007"><ele>38.83333333333333</ele><time>2026-04-19T08:32:54.002Z</time></trkpt><trkpt lat="44.42756279313958" lon="8.952136182716156"><ele>41.0</ele><time>2026-04-19T08:32:56.002Z</time></trkpt><trkpt lat="44.42758238312891" lon="8.952249218277627"><ele>41.0</ele><time>2026-04-19T08:32:58.002Z</time></trkpt><trkpt lat="44.427608717792175" lon="8.95237184346123"><ele>41.0</ele><time>2026-04-19T08:33:00.002Z</time></trkpt><trkpt lat="44.42763948039939" lon="8.952496538241258"><ele>41.0</ele><time>2026-04-19T08:33:01.998Z</time></trkpt><trkpt lat="44.42765964788863" lon="8.952620208347632"><ele>41.0</ele><time>2026-04-19T08:33:03.998Z</time></trkpt><trkpt lat="44.427682445458956" lon="8.952740659082675"><ele>41.0</ele><time>2026-04-19T08:33:05.998Z</time></trkpt><trkpt lat="44.42770032336957" lon="8.952845101715427"><ele>41.0</ele><time>2026-04-19T08:33:07.998Z</time></trkpt><trkpt lat="44.427723523953546" lon="8.952936904328302"><ele>43.166666666666664</ele><time>2026-04-19T08:33:09.999Z</time></trkpt><trkpt lat="44.427743929238986" lon="8.953030269208226"><ele>45.33333333333333</ele><time>2026-04-19T08:33:11.999Z</time></trkpt><trkpt lat="44.42776144798989" lon="8.953136991608776"><ele>47.5</ele><time>2026-04-19T08:33:13.999Z</time></trkpt><trkpt lat="44.427783634973366" lon="8.953247358468289"><ele>49.666666666666664</ele><time>2026-04-19T08:33:15.999Z</time></trkpt><trkpt lat="44.427811019585334" lon="8.953360332376848"><ele>51.833333333333336</ele><time>2026-04-19T08:33:17.999Z</time></trkpt><trkpt lat="44.42783275107986" lon="8.953473708951309"><ele>54.0</ele><time>2026-04-19T08:33:19.999Z</time></trkpt><trkpt lat="44.42785584328986" lon="8.953592426934634"><ele>56.0</ele><time>2026-04-19T08:33:21.999Z</time></trkpt><trkpt lat="44.427882541939134" lon="8.953716338039314"><ele>58.0</ele><time>2026-04-19T08:33:23.999Z</time></trkpt><trkpt lat="44.42790900420914" lon="8.953835342314479"><ele>60.0</ele><time>2026-04-19T08:33:25.999Z</time></trkpt><trkpt lat="44.42793870111788" lon="8.953947581071466"><ele>62.0</ele><time>2026-04-19T08:33:28Z</time></trkpt><trkpt lat="44.427963934884865" lon="8.954063418651572"><ele>64.0</ele><time>2026-04-19T08:33:30Z</time></trkpt><trkpt lat="44.4280017150203" lon="8.954179104604949"><ele>66.0</ele><time>2026-04-19T08:33:32Z</time></trkpt><trkpt lat="44.428037270097" lon="8.95429958916713"><ele>60.166666666666664</ele><time>2026-04-19T08:33:34Z</time></trkpt><trkpt lat="44.428070119531206" lon="8.95442107728009"><ele>54.333333333333336</ele><time>2026-04-19T08:33:36Z</time></trkpt><trkpt lat="44.42810073167234" lon="8.954540328309271"><ele>48.5</ele><time>2026-04-19T08:33:38Z</time></trkpt><trkpt lat="44.428139251745456" lon="8.954646559404097"><ele>42.66666666666667</ele><time>2026-04-19T08:33:40Z</time></trkpt><trkpt lat="44.428179755385024" lon="8.954760704756131"><ele>36.833333333333336</ele><time>2026-04-19T08:33:42Z</time></trkpt><trkpt lat="44.4282167232306" lon="8.954866061272263"><ele>31.0</ele><time>2026-04-19T08:33:44Z</time></trkpt><trkpt lat="44.42825920103092" lon="8.95496588720827"><ele>32.0</ele><time>2026-04-19T08:33:46Z</time></trkpt><trkpt lat="44.428299918806275" lon="8.955070827577769"><ele>33.0</ele><time>2026-04-19T08:33:48Z</time></trkpt><trkpt lat="44.42833936835219" lon="8.955176003613216"><ele>34.0</ele><time>2026-04-19T08:33:50Z</time></trkpt><trkpt lat="44.42838120899856" lon="8.955281828629085"><ele>35.0</ele><time>2026-04-19T08:33:52Z</time></trkpt><trkpt lat="44.42842089421453" lon="8.955386957799883"><ele>36.0</ele><time>2026-04-19T08:33:54.001Z</time></trkpt><trkpt lat="44.42846335888616" lon="8.955487115447418"><ele>37.0</ele><time>2026-04-19T08:33:56.001Z</time></trkpt><trkpt lat="44.42851305054747" lon="8.95558848540328"><ele>37.0</ele><time>2026-04-19T08:33:58.001Z</time></trkpt><trkpt lat="44.42856104678324" lon="8.955693888885135"><ele>37.0</ele><time>2026-04-19T08:34:00.001Z</time></trkpt><trkpt lat="44.4286144326416" lon="8.955795851071967"><ele>37.0</ele><time>2026-04-19T08:34:02.001Z</time></trkpt><trkpt lat="44.42867108465277" lon="8.955892850358058"><ele>37.0</ele><time>2026-04-19T08:34:04.001Z</time></trkpt><trkpt lat="44.428727332618735" lon="8.955993211359548"><ele>37.0</ele><time>2026-04-19T08:34:06.001Z</time></trkpt><trkpt lat="44.428781881199" lon="8.95608890528906"><ele>37.0</ele><time>2026-04-19T08:34:08.001Z</time></trkpt><trkpt lat="44.42882042084292" lon="8.956189662179616"><ele>35.0</ele><time>2026-04-19T08:34:10.001Z</time></trkpt><trkpt lat="44.42887640733491" lon="8.956288922040278"><ele>33.0</ele><time>2026-04-19T08:34:12.001Z</time></trkpt><trkpt lat="44.428931501987314" lon="8.956391284423821"><ele>31.000000000000004</ele><time>2026-04-19T08:34:14.001Z</time></trkpt><trkpt lat="44.4289915912754" lon="8.956487817593771"><ele>29.0</ele><time>2026-04-19T08:34:16.001Z</time></trkpt><trkpt lat="44.429049863021575" lon="8.956588250493201"><ele>27.0</ele><time>2026-04-19T08:34:18.001Z</time></trkpt><trkpt lat="44.42910984886756" lon="8.956682262978175"><ele>28.0</ele><time>2026-04-19T08:34:20.001Z</time></trkpt><trkpt lat="44.429181513321296" lon="8.956776899108444"><ele>29.000000000000004</ele><time>2026-04-19T08:34:22.001Z</time></trkpt><trkpt lat="44.42924641584035" lon="8.956872892612413"><ele>30.000000000000004</ele><time>2026-04-19T08:34:24.002Z</time></trkpt><trkpt lat="44.4293098406251" lon="8.956982397984149"><ele>31.0</ele><time>2026-04-19T08:34:26.002Z</time></trkpt><trkpt lat="44.429378454507365" lon="8.957076016273309"><ele>32.0</ele><time>2026-04-19T08:34:28.002Z</time></trkpt><trkpt lat="44.42944808511359" lon="8.957165567864255"><ele>32.0</ele><time>2026-04-19T08:34:30.002Z</time></trkpt><trkpt lat="44.42951956715266" lon="8.95725220674911"><ele>32.0</ele><time>2026-04-19T08:34:32.002Z</time></trkpt><trkpt lat="44.42958724623835" lon="8.95734062230594"><ele>32.0</ele><time>2026-04-19T08:34:34.002Z</time></trkpt><trkpt lat="44.429657772685026" lon="8.957421117707868"><ele>32.0</ele><time>2026-04-19T08:34:36.002Z</time></trkpt><trkpt lat="44.429722280901416" lon="8.957513852295202"><ele>32.0</ele><time>2026-04-19T08:34:38.002Z</time></trkpt><trkpt lat="44.429785420678606" lon="8.957600899393304"><ele>31.333333333333332</ele><time>2026-04-19T08:34:40.002Z</time></trkpt><trkpt lat="44.42985629752128" lon="8.957692078287282"><ele>30.666666666666664</ele><time>2026-04-19T08:34:42.002Z</time></trkpt><trkpt lat="44.4299212725739" lon="8.957776993552786"><ele>30.0</ele><time>2026-04-19T08:34:44.002Z</time></trkpt><trkpt lat="44.429984417171625" lon="8.957853247533192"><ele>29.333333333333336</ele><time>2026-04-19T08:34:46.002Z</time></trkpt><trkpt lat="44.43004164522298" lon="8.957917445937147"><ele>28.666666666666668</ele><time>2026-04-19T08:34:48.002Z</time></trkpt><trkpt lat="44.43009742360764" lon="8.957982494373262"><ele>28.0</ele><time>2026-04-19T08:34:50.002Z</time></trkpt><trkpt lat="44.430160625609915" lon="8.958060192325394"><ele>28.000000000000004</ele><time>2026-04-19T08:34:52.002Z</time></trkpt><trkpt lat="44.43023046987703" lon="8.958138485576708"><ele>28.0</ele><time>2026-04-19T08:34:54.002Z</time></trkpt><trkpt lat="44.430288817561454" lon="8.95820346074696"><ele>28.0</ele><time>2026-04-19T08:34:56.002Z</time></trkpt><trkpt lat="44.43035042836908" lon="8.958262187666149"><ele>28.0</ele><time>2026-04-19T08:34:58.003Z</time></trkpt><trkpt lat="44.43041194250078" lon="8.958335984494042"><ele>28.000000000000004</ele><time>2026-04-19T08:35:00.003Z</time></trkpt><trkpt lat="44.430477179890396" lon="8.958402654314392"><ele>28.0</ele><time>2026-04-19T08:35:02.003Z</time></trkpt><trkpt lat="44.43052699213707" lon="8.958466765230995"><ele>28.666666666666668</ele><time>2026-04-19T08:35:04.003Z</time></trkpt><trkpt lat="44.43059511454386" lon="8.958543154022705"><ele>29.333333333333336</ele><time>2026-04-19T08:35:06.999Z</time></trkpt><trkpt lat="44.43065160478305" lon="8.958614477364677"><ele>30.0</ele><time>2026-04-19T08:35:09.999Z</time></trkpt><trkpt lat="44.43071336102906" lon="8.958681178596821"><ele>30.666666666666664</ele><time>2026-04-19T08:35:12.999Z</time></trkpt><trkpt lat="44.430765858973764" lon="8.958736801467174"><ele>31.333333333333332</ele><time>2026-04-19T08:35:15.999Z</time></trkpt><trkpt lat="44.43082830423033" lon="8.958805825879002"><ele>32.0</ele><time>2026-04-19T08:35:18.999Z</time></trkpt><trkpt lat="44.43089982490243" lon="8.958886201593966"><ele>32.0</ele><time>2026-04-19T08:35:21.999Z</time></trkpt><trkpt lat="44.430955009428274" lon="8.95893917766999"><ele>31.999999999999996</ele><time>2026-04-19T08:35:24Z</time></trkpt><trkpt lat="44.4310129094274" lon="8.958996664372899"><ele>32.0</ele><time>2026-04-19T08:35:26Z</time></trkpt><trkpt lat="44.431069616421226" lon="8.959066646862652"><ele>32.0</ele><time>2026-04-19T08:35:28Z</time></trkpt><trkpt lat="44.43112232741547" lon="8.959137102410313"><ele>31.999999999999996</ele><time>2026-04-19T08:35:30Z</time></trkpt><trkpt lat="44.431184454808864" lon="8.95920459396051"><ele>32.0</ele><time>2026-04-19T08:35:32Z</time></trkpt><trkpt lat="44.43124326109362" lon="8.95926761388357"><ele>32.0</ele><time>2026-04-19T08:35:34Z</time></trkpt><trkpt lat="44.431300273139954" lon="8.959333429125872"><ele>31.833333333333332</ele><time>2026-04-19T08:35:36Z</time></trkpt><trkpt lat="44.431357745375806" lon="8.959402625896287"><ele>31.666666666666664</ele><time>2026-04-19T08:35:38Z</time></trkpt><trkpt lat="44.43141714038559" lon="8.959473684105788"><ele>31.5</ele><time>2026-04-19T08:35:40Z</time></trkpt><trkpt lat="44.43147778917438" lon="8.959542123281997"><ele>31.333333333333336</ele><time>2026-04-19T08:35:42Z</time></trkpt><trkpt lat="44.43154133152131" lon="8.9596155576677"><ele>31.166666666666668</ele><time>2026-04-19T08:35:44.001Z</time></trkpt><trkpt lat="44.4316042900898" lon="8.959690451166013"><ele>31.0</ele><time>2026-04-19T08:35:46.001Z</time></trkpt><trkpt lat="44.43166717000956" lon="8.95976560380093"><ele>31.000000000000004</ele><time>2026-04-19T08:35:48.001Z</time></trkpt><trkpt lat="44.431728105602005" lon="8.959841142565905"><ele>31.0</ele><time>2026-04-19T08:35:50.001Z</time></trkpt><trkpt lat="44.43179109664157" lon="8.959913898357954"><ele>31.0</ele><time>2026-04-19T08:35:52.001Z</time></trkpt><trkpt lat="44.43185298352028" lon="8.959989230584455"><ele>31.0</ele><time>2026-04-19T08:35:54.001Z</time></trkpt><trkpt lat="44.43191149537211" lon="8.9600667143869"><ele>31.000000000000004</ele><time>2026-04-19T08:35:56.001Z</time></trkpt><trkpt lat="44.43197687711363" lon="8.960135578027304"><ele>31.0</ele><time>2026-04-19T08:35:58.001Z</time></trkpt><trkpt lat="44.432044531699546" lon="8.960209205419625"><ele>31.333333333333336</ele><time>2026-04-19T08:36:00.001Z</time></trkpt><trkpt lat="44.432108007218226" lon="8.960282280892368"><ele>31.666666666666668</ele><time>2026-04-19T08:36:02.001Z</time></trkpt><trkpt lat="44.43217112809146" lon="8.96035726410553"><ele>32.0</ele><time>2026-04-19T08:36:04.001Z</time></trkpt><trkpt lat="44.43223159599125" lon="8.960434083312096"><ele>32.333333333333336</ele><time>2026-04-19T08:36:06.001Z</time></trkpt><trkpt lat="44.43230114730428" lon="8.960486189438367"><ele>32.666666666666664</ele><time>2026-04-19T08:36:08.001Z</time></trkpt><trkpt lat="44.43237184822743" lon="8.96054775394604"><ele>33.0</ele><time>2026-04-19T08:36:10.001Z</time></trkpt><trkpt lat="44.43243754620843" lon="8.960624454602884"><ele>33.0</ele><time>2026-04-19T08:36:12.002Z</time></trkpt><trkpt lat="44.43249549302583" lon="8.960698841306737"><ele>33.0</ele><time>2026-04-19T08:36:14.002Z</time></trkpt><trkpt lat="44.43255652803212" lon="8.960763618365378"><ele>33.0</ele><time>2026-04-19T08:36:16.002Z</time></trkpt><trkpt lat="44.43261484083545" lon="8.9608365115447"><ele>33.0</ele><time>2026-04-19T08:36:18.002Z</time></trkpt><trkpt lat="44.43267596223024" lon="8.96090462079339"><ele>33.0</ele><time>2026-04-19T08:36:20.002Z</time></trkpt><trkpt lat="44.432729765540095" lon="8.960977651395316"><ele>33.0</ele><time>2026-04-19T08:36:22.002Z</time></trkpt><trkpt lat="44.43278787528792" lon="8.961039852814638"><ele>32.666666666666664</ele><time>2026-04-19T08:36:24.002Z</time></trkpt><trkpt lat="44.432840768293545" lon="8.961120760593197"><ele>32.333333333333336</ele><time>2026-04-19T08:36:26.002Z</time></trkpt><trkpt lat="44.43290241878452" lon="8.961192541567232"><ele>32.0</ele><time>2026-04-19T08:36:28.002Z</time></trkpt><trkpt lat="44.43296298004843" lon="8.961255117714407"><ele>31.666666666666668</ele><time>2026-04-19T08:36:30.002Z</time></trkpt><trkpt lat="44.43302563066918" lon="8.961323418221173"><ele>31.333333333333336</ele><time>2026-04-19T08:36:32.002Z</time></trkpt><trkpt lat="44.43309120718872" lon="8.961387771073133"><ele>31.0</ele><time>2026-04-19T08:36:34.002Z</time></trkpt><trkpt lat="44.43315865564199" lon="8.961452682640381"><ele>31.000000000000004</ele><time>2026-04-19T08:36:36.002Z</time></trkpt><trkpt lat="44.433223917092754" lon="8.961519857925378"><ele>31.0</ele><time>2026-04-19T08:36:38.002Z</time></trkpt><trkpt lat="44.43328239036383" lon="8.961590885821929"><ele>31.0</ele><time>2026-04-19T08:36:40.002Z</time></trkpt><trkpt lat="44.43334674584833" lon="8.96165643806131"><ele>31.0</ele><time>2026-04-19T08:36:42.002Z</time></trkpt><trkpt lat="44.43341393426936" lon="8.961713577428085"><ele>31.000000000000004</ele><time>2026-04-19T08:36:44.002Z</time></trkpt><trkpt lat="44.43348507102335" lon="8.961772951884656"><ele>31.0</ele><time>2026-04-19T08:36:46.003Z</time></trkpt><trkpt lat="44.433547790821045" lon="8.961822558783785"><ele>31.0</ele><time>2026-04-19T08:36:48.003Z</time></trkpt><trkpt lat="44.4336131561972" lon="8.961862788199767"><ele>31.000000000000004</ele><time>2026-04-19T08:36:50.003Z</time></trkpt><trkpt lat="44.43367446711525" lon="8.961908811447115"><ele>31.0</ele><time>2026-04-19T08:36:52.003Z</time></trkpt><trkpt lat="44.43372828499171" lon="8.961959608671833"><ele>31.0</ele><time>2026-04-19T08:36:54.003Z</time></trkpt><trkpt lat="44.43380514972497" lon="8.962022857726494"><ele>31.000000000000004</ele><time>2026-04-19T08:36:57.003Z</time></trkpt><trkpt lat="44.43386085208329" lon="8.96206757174802"><ele>31.0</ele><time>2026-04-19T08:36:59.003Z</time></trkpt><trkpt lat="44.433918665372005" lon="8.96210678927895"><ele>31.0</ele><time>2026-04-19T08:37:01.003Z</time></trkpt><trkpt lat="44.433975105759025" lon="8.962155152099083"><ele>31.0</ele><time>2026-04-19T08:37:03.003Z</time></trkpt><trkpt lat="44.43403616191622" lon="8.962196289671084"><ele>31.000000000000004</ele><time>2026-04-19T08:37:05.003Z</time></trkpt><trkpt lat="44.43409965109047" lon="8.962238300523788"><ele>31.0</ele><time>2026-04-19T08:37:07.003Z</time></trkpt><trkpt lat="44.43416590619851" lon="8.962284985700894"><ele>31.0</ele><time>2026-04-19T08:37:09.003Z</time></trkpt><trkpt lat="44.43423260356685" lon="8.96233641543052"><ele>31.000000000000004</ele><time>2026-04-19T08:37:11.003Z</time></trkpt><trkpt lat="44.434301674008054" lon="8.962382316703458"><ele>31.0</ele><time>2026-04-19T08:37:12.999Z</time></trkpt><trkpt lat="44.43437507859292" lon="8.962423093283846"><ele>31.0</ele><time>2026-04-19T08:37:14.999Z</time></trkpt><trkpt lat="44.43444586301338" lon="8.962470775548246"><ele>31.000000000000004</ele><time>2026-04-19T08:37:16.999Z</time></trkpt><trkpt lat="44.43451821517379" lon="8.962516740628224"><ele>31.0</ele><time>2026-04-19T08:37:18.999Z</time></trkpt><trkpt lat="44.434592850432246" lon="8.962565239749223"><ele>31.0</ele><time>2026-04-19T08:37:20.999Z</time></trkpt><trkpt lat="44.434666915093" lon="8.962616804293104"><ele>31.0</ele><time>2026-04-19T08:37:22.999Z</time></trkpt><trkpt lat="44.43474261849678" lon="8.962661520240886"><ele>31.000000000000004</ele><time>2026-04-19T08:37:24.999Z</time></trkpt><trkpt lat="44.43481872673578" lon="8.9626978184454"><ele>31.0</ele><time>2026-04-19T08:37:27Z</time></trkpt><trkpt lat="44.43489181560453" lon="8.962738804237333"><ele>32.0</ele><time>2026-04-19T08:37:29Z</time></trkpt><trkpt lat="44.434962153155716" lon="8.962772145438006"><ele>33.0</ele><time>2026-04-19T08:37:31Z</time></trkpt><trkpt lat="44.43502559297875" lon="8.962808538833535"><ele>34.0</ele><time>2026-04-19T08:37:33Z</time></trkpt><trkpt lat="44.43509394625808" lon="8.962839503599614"><ele>35.0</ele><time>2026-04-19T08:37:35Z</time></trkpt><trkpt lat="44.43515705181411" lon="8.962855240216088"><ele>36.0</ele><time>2026-04-19T08:37:37Z</time></trkpt><trkpt lat="44.43522296071078" lon="8.962893540301003"><ele>37.0</ele><time>2026-04-19T08:37:39Z</time></trkpt><trkpt lat="44.43529571449914" lon="8.962925457012906"><ele>38.0</ele><time>2026-04-19T08:37:41Z</time></trkpt><trkpt lat="44.43536016512107" lon="8.962957273595114"><ele>38.0</ele><time>2026-04-19T08:37:43Z</time></trkpt><trkpt lat="44.43543464435109" lon="8.962994920393676"><ele>38.0</ele><time>2026-04-19T08:37:45Z</time></trkpt><trkpt lat="44.43550677340057" lon="8.963027428529792"><ele>38.0</ele><time>2026-04-19T08:37:47Z</time></trkpt><trkpt lat="44.43557521565985" lon="8.963089928770607"><ele>38.0</ele><time>2026-04-19T08:37:49.001Z</time></trkpt><trkpt lat="44.43563335451307" lon="8.963180300202374"><ele>38.0</ele><time>2026-04-19T08:37:51.001Z</time></trkpt><trkpt lat="44.435674993584755" lon="8.963273913977124"><ele>38.0</ele><time>2026-04-19T08:37:53.001Z</time></trkpt><trkpt lat="44.4357324442947" lon="8.963328383239567"><ele>37.166666666666664</ele><time>2026-04-19T08:37:55.001Z</time></trkpt><trkpt lat="44.435799982085314" lon="8.963338688930204"><ele>36.33333333333333</ele><time>2026-04-19T08:37:57.001Z</time></trkpt><trkpt lat="44.43587446970961" lon="8.963314179309199"><ele>35.5</ele><time>2026-04-19T08:37:59.001Z</time></trkpt><trkpt lat="44.43595017117967" lon="8.963267458370925"><ele>34.666666666666664</ele><time>2026-04-19T08:38:01.001Z</time></trkpt><trkpt lat="44.43602843576718" lon="8.963240750250897"><ele>33.833333333333336</ele><time>2026-04-19T08:38:03.001Z</time></trkpt><trkpt lat="44.436107227653814" lon="8.963237067359671"><ele>33.0</ele><time>2026-04-19T08:38:05.001Z</time></trkpt><trkpt lat="44.43618671321423" lon="8.963234223021251"><ele>33.0</ele><time>2026-04-19T08:38:07.001Z</time></trkpt><trkpt lat="44.43626905293505" lon="8.963237450904277"><ele>33.0</ele><time>2026-04-19T08:38:09.001Z</time></trkpt><trkpt lat="44.436348539945605" lon="8.96324110287969"><ele>33.0</ele><time>2026-04-19T08:38:11.001Z</time></trkpt><trkpt lat="44.43643022714885" lon="8.963254874129913"><ele>33.0</ele><time>2026-04-19T08:38:13.001Z</time></trkpt><trkpt lat="44.43650805827412" lon="8.96326065350547"><ele>33.0</ele><time>2026-04-19T08:38:15.001Z</time></trkpt><trkpt lat="44.4365889393186" lon="8.963272655407865"><ele>33.0</ele><time>2026-04-19T08:38:17.001Z</time></trkpt><trkpt lat="44.43666567732626" lon="8.96328291705083"><ele>33.333333333333336</ele><time>2026-04-19T08:38:19.002Z</time></trkpt><trkpt lat="44.436743325259734" lon="8.963299956821803"><ele>33.666666666666664</ele><time>2026-04-19T08:38:21.002Z</time></trkpt><trkpt lat="44.436822302639825" lon="8.963308110139124"><ele>34.0</ele><time>2026-04-19T08:38:23.002Z</time></trkpt><trkpt lat="44.436904102337486" lon="8.963318694860419"><ele>34.33333333333333</ele><time>2026-04-19T08:38:25.002Z</time></trkpt><trkpt lat="44.43698661975523" lon="8.963336373003525"><ele>34.666666666666664</ele><time>2026-04-19T08:38:27.002Z</time></trkpt><trkpt lat="44.43706743614191" lon="8.963356331392829"><ele>35.0</ele><time>2026-04-19T08:38:29.002Z</time></trkpt><trkpt lat="44.437147553523076" lon="8.963373118069777"><ele>35.5</ele><time>2026-04-19T08:38:31.002Z</time></trkpt><trkpt lat="44.43722713458617" lon="8.963391267115457"><ele>36.0</ele><time>2026-04-19T08:38:33.002Z</time></trkpt><trkpt lat="44.43730661072308" lon="8.963405223316636"><ele>36.5</ele><time>2026-04-19T08:38:35.002Z</time></trkpt><trkpt lat="44.437384092110385" lon="8.963426503312384"><ele>37.0</ele><time>2026-04-19T08:38:37.002Z</time></trkpt><trkpt lat="44.43745747453504" lon="8.963441231377999"><ele>37.5</ele><time>2026-04-19T08:38:39.002Z</time></trkpt><trkpt lat="44.437529384134756" lon="8.963455600316214"><ele>38.0</ele><time>2026-04-19T08:38:41.002Z</time></trkpt><trkpt lat="44.43760301218788" lon="8.963465107421964"><ele>38.0</ele><time>2026-04-19T08:38:43.002Z</time></trkpt><trkpt lat="44.43766807203417" lon="8.963478173394227"><ele>38.0</ele><time>2026-04-19T08:38:45.002Z</time></trkpt><trkpt lat="44.43774105159716" lon="8.963494322897107"><ele>38.0</ele><time>2026-04-19T08:38:47.002Z</time></trkpt><trkpt lat="44.43780610416103" lon="8.963514538168589"><ele>38.0</ele><time>2026-04-19T08:38:49.002Z</time></trkpt><trkpt lat="44.43787256664851" lon="8.963524657582818"><ele>38.0</ele><time>2026-04-19T08:38:51.003Z</time></trkpt><trkpt lat="44.437938061038736" lon="8.963536111616524"><ele>38.0</ele><time>2026-04-19T08:38:53.003Z</time></trkpt><trkpt lat="44.43800826153772" lon="8.963557017805186"><ele>38.0</ele><time>2026-04-19T08:38:55.003Z</time></trkpt><trkpt lat="44.43808228239574" lon="8.963582217112917"><ele>38.0</ele><time>2026-04-19T08:38:57.003Z</time></trkpt><trkpt lat="44.4381597926423" lon="8.963596533792229"><ele>38.0</ele><time>2026-04-19T08:38:59.003Z</time></trkpt><trkpt lat="44.43823166831497" lon="8.963614264960496"><ele>38.0</ele><time>2026-04-19T08:39:01.003Z</time></trkpt><trkpt lat="44.43829767756516" lon="8.963620599643768"><ele>38.0</ele><time>2026-04-19T08:39:03.003Z</time></trkpt><trkpt lat="44.438375188242134" lon="8.963646592384489"><ele>38.0</ele><time>2026-04-19T08:39:06.003Z</time></trkpt><trkpt lat="44.43844349283733" lon="8.963664141221136"><ele>38.0</ele><time>2026-04-19T08:39:09.003Z</time></trkpt><trkpt lat="44.43850899236781" lon="8.963697637338047"><ele>38.0</ele><time>2026-04-19T08:39:14.003Z</time></trkpt><trkpt lat="44.43858462577536" lon="8.96371299363768"><ele>38.0</ele><time>2026-04-19T08:39:17.003Z</time></trkpt><trkpt lat="44.438667159607405" lon="8.963735674252813"><ele>38.0</ele><time>2026-04-19T08:39:18.999Z</time></trkpt><trkpt lat="44.43876076235335" lon="8.963752190516281"><ele>38.0</ele><time>2026-04-19T08:39:20.999Z</time></trkpt><trkpt lat="44.438853199073804" lon="8.963773005819267"><ele>38.0</ele><time>2026-04-19T08:39:22.999Z</time></trkpt><trkpt lat="44.438940069075144" lon="8.96378826848749"><ele>38.0</ele><time>2026-04-19T08:39:24.999Z</time></trkpt><trkpt lat="44.43901248342344" lon="8.963799354706966"><ele>38.0</ele><time>2026-04-19T08:39:26.999Z</time></trkpt><trkpt lat="44.43907995304712" lon="8.96381300101375"><ele>37.857142857142854</ele><time>2026-04-19T08:39:28.999Z</time></trkpt><trkpt lat="44.439154065943896" lon="8.96383627539632"><ele>37.714285714285715</ele><time>2026-04-19T08:39:30.999Z</time></trkpt><trkpt lat="44.43921980700536" lon="8.963855662734195"><ele>37.57142857142857</ele><time>2026-04-19T08:39:33Z</time></trkpt><trkpt lat="44.43929569367064" lon="8.963884050839077"><ele>37.42857142857143</ele><time>2026-04-19T08:39:36Z</time></trkpt><trkpt lat="44.43936072691966" lon="8.963905541314112"><ele>37.285714285714285</ele><time>2026-04-19T08:39:40Z</time></trkpt><trkpt lat="44.43942293807892" lon="8.963926480865398"><ele>37.142857142857146</ele><time>2026-04-19T08:39:45Z</time></trkpt><trkpt lat="44.43950130403431" lon="8.963955901968854"><ele>37.0</ele><time>2026-04-19T08:39:48Z</time></trkpt><trkpt lat="44.43958766224742" lon="8.964000225161612"><ele>37.142857142857146</ele><time>2026-04-19T08:39:51Z</time></trkpt><trkpt lat="44.43965403179292" lon="8.964026884546493"><ele>37.285714285714285</ele><time>2026-04-19T08:39:53Z</time></trkpt><trkpt lat="44.43971739556685" lon="8.964050868850837"><ele>37.42857142857143</ele><time>2026-04-19T08:39:55.001Z</time></trkpt><trkpt lat="44.439786305994254" lon="8.964075385081495"><ele>37.57142857142857</ele><time>2026-04-19T08:39:57.001Z</time></trkpt><trkpt lat="44.43985287786288" lon="8.964101473349304"><ele>37.714285714285715</ele><time>2026-04-19T08:39:59.001Z</time></trkpt><trkpt lat="44.4399255689646" lon="8.964118696016223"><ele>37.857142857142854</ele><time>2026-04-19T08:40:01.001Z</time></trkpt><trkpt lat="44.43999294804313" lon="8.964149786039822"><ele>38.0</ele><time>2026-04-19T08:40:03.001Z</time></trkpt><trkpt lat="44.440065031635264" lon="8.964175807995716"><ele>38.285714285714285</ele><time>2026-04-19T08:40:05.001Z</time></trkpt><trkpt lat="44.440135637637965" lon="8.964205375874482"><ele>38.57142857142858</ele><time>2026-04-19T08:40:07.001Z</time></trkpt><trkpt lat="44.44020413820529" lon="8.964235451338142"><ele>38.85714285714286</ele><time>2026-04-19T08:40:09.001Z</time></trkpt><trkpt lat="44.44027361611379" lon="8.964267779272877"><ele>39.14285714285714</ele><time>2026-04-19T08:40:11.001Z</time></trkpt><trkpt lat="44.440342913139276" lon="8.964293791769846"><ele>39.42857142857143</ele><time>2026-04-19T08:40:13.001Z</time></trkpt><trkpt lat="44.440416123685885" lon="8.964333224705525"><ele>39.714285714285715</ele><time>2026-04-19T08:40:15.001Z</time></trkpt><trkpt lat="44.440488018995524" lon="8.964369227250053"><ele>40.0</ele><time>2026-04-19T08:40:17.001Z</time></trkpt><trkpt lat="44.440558382996656" lon="8.9644091040541"><ele>40.14285714285714</ele><time>2026-04-19T08:40:19.001Z</time></trkpt><trkpt lat="44.44062778982927" lon="8.964453038552117"><ele>40.285714285714285</ele><time>2026-04-19T08:40:21.001Z</time></trkpt><trkpt lat="44.440699221494576" lon="8.964493311921608"><ele>40.42857142857143</ele><time>2026-04-19T08:40:23.001Z</time></trkpt><trkpt lat="44.44076521284575" lon="8.964533339167016"><ele>40.57142857142857</ele><time>2026-04-19T08:40:25.002Z</time></trkpt><trkpt lat="44.440829442883285" lon="8.964560975717673"><ele>40.714285714285715</ele><time>2026-04-19T08:40:27.002Z</time></trkpt><trkpt lat="44.440893737523936" lon="8.964588641154123"><ele>40.857142857142854</ele><time>2026-04-19T08:40:29.002Z</time></trkpt><trkpt lat="44.440955170607204" lon="8.964637713618632"><ele>41.0</ele><time>2026-04-19T08:40:31.002Z</time></trkpt><trkpt lat="44.44101929646447" lon="8.964685241439614"><ele>40.99999999999999</ele><time>2026-04-19T08:40:33.002Z</time></trkpt><trkpt lat="44.44108914111532" lon="8.964710170016746"><ele>41.0</ele><time>2026-04-19T08:40:35.002Z</time></trkpt><trkpt lat="44.441155940364276" lon="8.96475738600824"><ele>41.0</ele><time>2026-04-19T08:40:37.002Z</time></trkpt><trkpt lat="44.4412180284921" lon="8.964793843462985"><ele>41.0</ele><time>2026-04-19T08:40:39.002Z</time></trkpt><trkpt lat="44.44129836681568" lon="8.964848869931993"><ele>41.0</ele><time>2026-04-19T08:40:42.002Z</time></trkpt><trkpt lat="44.44135808281497" lon="8.964893250553017"><ele>40.99999999999999</ele><time>2026-04-19T08:40:45.002Z</time></trkpt><trkpt lat="44.44142581790183" lon="8.964870458406406"><ele>41.0</ele><time>2026-04-19T08:41:09.003Z</time></trkpt><trkpt lat="44.44145855138047" lon="8.964770996144821"><ele>40.5</ele><time>2026-04-19T08:41:13.003Z</time></trkpt><trkpt lat="44.441484328369874" lon="8.964663337367151"><ele>40.0</ele><time>2026-04-19T08:41:16.003Z</time></trkpt><trkpt lat="44.44151369434404" lon="8.96456550066127"><ele>39.5</ele><time>2026-04-19T08:41:19.003Z</time></trkpt><trkpt lat="44.44154976779356" lon="8.964470299338089"><ele>39.0</ele><time>2026-04-19T08:41:22.003Z</time></trkpt><trkpt lat="44.441579297855895" lon="8.964378956418924"><ele>38.5</ele><time>2026-04-19T08:41:24.999Z</time></trkpt><trkpt lat="44.44161710196333" lon="8.964278597348919"><ele>38.0</ele><time>2026-04-19T08:41:27.999Z</time></trkpt><trkpt lat="44.44164614160593" lon="8.964160322204105"><ele>38.0</ele><time>2026-04-19T08:41:30.999Z</time></trkpt><trkpt lat="44.4416802621862" lon="8.96404956719042"><ele>38.0</ele><time>2026-04-19T08:41:33.999Z</time></trkpt><trkpt lat="44.441710449187326" lon="8.96393572013952"><ele>38.0</ele><time>2026-04-19T08:41:36.999Z</time></trkpt><trkpt lat="44.44173978375769" lon="8.963841519472854"><ele>38.0</ele><time>2026-04-19T08:41:41Z</time></trkpt><trkpt lat="44.44173749680059" lon="8.96374931308333"><ele>38.0</ele><time>2026-04-19T08:41:44Z</time></trkpt><trkpt lat="44.441810013070416" lon="8.963704691662608"><ele>38.0</ele><time>2026-04-19T08:41:47Z</time></trkpt><trkpt lat="44.44187635507462" lon="8.96373998641928"><ele>38.0</ele><time>2026-04-19T08:41:49Z</time></trkpt><trkpt lat="44.441935944384376" lon="8.963776129583625"><ele>38.0</ele><time>2026-04-19T08:41:51Z</time></trkpt><trkpt lat="44.44199816159017" lon="8.963809902221463"><ele>38.0</ele><time>2026-04-19T08:41:53Z</time></trkpt><trkpt lat="44.442058078691815" lon="8.963845699940215"><ele>38.0</ele><time>2026-04-19T08:41:55Z</time></trkpt><trkpt lat="44.442122535910585" lon="8.9638791159356"><ele>38.0</ele><time>2026-04-19T08:41:57Z</time></trkpt><trkpt lat="44.44218981218402" lon="8.963918245727948"><ele>38.0</ele><time>2026-04-19T08:41:59.001Z</time></trkpt><trkpt lat="44.44226302933331" lon="8.963957893817318"><ele>38.0</ele><time>2026-04-19T08:42:01.001Z</time></trkpt><trkpt lat="44.44233169596545" lon="8.964006220025095"><ele>37.666666666666664</ele><time>2026-04-19T08:42:03.001Z</time></trkpt><trkpt lat="44.44240136988276" lon="8.964049327441346"><ele>37.33333333333333</ele><time>2026-04-19T08:42:05.001Z</time></trkpt><trkpt lat="44.442463638708396" lon="8.964106010420766"><ele>37.0</ele><time>2026-04-19T08:42:07.001Z</time></trkpt><trkpt lat="44.44252963881757" lon="8.96416296797394"><ele>36.666666666666664</ele><time>2026-04-19T08:42:09.001Z</time></trkpt><trkpt lat="44.442592582134594" lon="8.964223809680126"><ele>36.333333333333336</ele><time>2026-04-19T08:42:11.001Z</time></trkpt><trkpt lat="44.44265902038841" lon="8.964288654093487"><ele>36.0</ele><time>2026-04-19T08:42:13.001Z</time></trkpt><trkpt lat="44.442723882400976" lon="8.964345615161125"><ele>36.0</ele><time>2026-04-19T08:42:15.001Z</time></trkpt><trkpt lat="44.442790390188215" lon="8.964410365118013"><ele>36.0</ele><time>2026-04-19T08:42:17.001Z</time></trkpt><trkpt lat="44.44285322265805" lon="8.96448018392189"><ele>36.0</ele><time>2026-04-19T08:42:19.001Z</time></trkpt><trkpt lat="44.4429193948095" lon="8.964548596953724"><ele>36.0</ele><time>2026-04-19T08:42:21.001Z</time></trkpt><trkpt lat="44.44298521681283" lon="8.964619667459898"><ele>36.0</ele><time>2026-04-19T08:42:23.001Z</time></trkpt><trkpt lat="44.44305131393804" lon="8.964689724440788"><ele>36.0</ele><time>2026-04-19T08:42:25.001Z</time></trkpt><trkpt lat="44.44312302485866" lon="8.964762017939565"><ele>36.666666666666664</ele><time>2026-04-19T08:42:27.001Z</time></trkpt><trkpt lat="44.44318914255948" lon="8.964832377667774"><ele>37.333333333333336</ele><time>2026-04-19T08:42:29.002Z</time></trkpt><trkpt lat="44.44326109256042" lon="8.96490234176102"><ele>38.0</ele><time>2026-04-19T08:42:31.002Z</time></trkpt><trkpt lat="44.443330051465544" lon="8.964974884951477"><ele>38.66666666666667</ele><time>2026-04-19T08:42:33.002Z</time></trkpt><trkpt lat="44.4433940457478" lon="8.965049313663174"><ele>39.333333333333336</ele><time>2026-04-19T08:42:35.002Z</time></trkpt><trkpt lat="44.44346535584045" lon="8.965125085732248"><ele>40.0</ele><time>2026-04-19T08:42:37.002Z</time></trkpt><trkpt lat="44.44353528867993" lon="8.965193332615408"><ele>40.0</ele><time>2026-04-19T08:42:39.002Z</time></trkpt><trkpt lat="44.44360315255847" lon="8.96525641155908"><ele>40.0</ele><time>2026-04-19T08:42:41.002Z</time></trkpt><trkpt lat="44.4436668845136" lon="8.965319315412492"><ele>40.0</ele><time>2026-04-19T08:42:43.002Z</time></trkpt><trkpt lat="44.44373181906438" lon="8.965386817094545"><ele>40.0</ele><time>2026-04-19T08:42:45.002Z</time></trkpt><trkpt lat="44.44379831955433" lon="8.965450683554568"><ele>40.0</ele><time>2026-04-19T08:42:47.002Z</time></trkpt><trkpt lat="44.44386820685561" lon="8.965517080563176"><ele>40.0</ele><time>2026-04-19T08:42:49.002Z</time></trkpt><trkpt lat="44.44393458754817" lon="8.965583884653647"><ele>39.833333333333336</ele><time>2026-04-19T08:42:51.002Z</time></trkpt><trkpt lat="44.443999191032525" lon="8.965654300766227"><ele>39.66666666666667</ele><time>2026-04-19T08:42:53.002Z</time></trkpt><trkpt lat="44.44406648805814" lon="8.965723305982362"><ele>39.5</ele><time>2026-04-19T08:42:55.002Z</time></trkpt><trkpt lat="44.44413669913376" lon="8.965788171976888"><ele>39.333333333333336</ele><time>2026-04-19T08:42:57.002Z</time></trkpt><trkpt lat="44.444203053231696" lon="8.965859145706885"><ele>39.166666666666664</ele><time>2026-04-19T08:42:59.002Z</time></trkpt><trkpt lat="44.44426982592109" lon="8.965928693980297"><ele>39.0</ele><time>2026-04-19T08:43:01.003Z</time></trkpt><trkpt lat="44.44433281457276" lon="8.965995611455957"><ele>39.0</ele><time>2026-04-19T08:43:03.003Z</time></trkpt><trkpt lat="44.4443950306486" lon="8.966065310218807"><ele>39.0</ele><time>2026-04-19T08:43:05.003Z</time></trkpt><trkpt lat="44.444456596192" lon="8.966128152771777"><ele>39.0</ele><time>2026-04-19T08:43:07.003Z</time></trkpt><trkpt lat="44.444515528501555" lon="8.966195442176598"><ele>39.0</ele><time>2026-04-19T08:43:09.003Z</time></trkpt><trkpt lat="44.444575547542215" lon="8.966264835806946"><ele>39.0</ele><time>2026-04-19T08:43:11.003Z</time></trkpt><trkpt lat="44.444637326042816" lon="8.96633813435859"><ele>39.0</ele><time>2026-04-19T08:43:13.003Z</time></trkpt><trkpt lat="44.44469959959763" lon="8.966414592791223"><ele>39.333333333333336</ele><time>2026-04-19T08:43:15.003Z</time></trkpt><trkpt lat="44.444755611205174" lon="8.966490947571074"><ele>39.666666666666664</ele><time>2026-04-19T08:43:17.003Z</time></trkpt><trkpt lat="44.44481164227076" lon="8.966556718601609"><ele>40.0</ele><time>2026-04-19T08:43:19.003Z</time></trkpt><trkpt lat="44.44485595415479" lon="8.966622242044368"><ele>40.33333333333333</ele><time>2026-04-19T08:43:21.003Z</time></trkpt><trkpt lat="44.444923011796945" lon="8.966717399309841"><ele>40.666666666666664</ele><time>2026-04-19T08:43:24.003Z</time></trkpt><trkpt lat="44.44497895742634" lon="8.966782114190394"><ele>41.0</ele><time>2026-04-19T08:43:26.003Z</time></trkpt><trkpt lat="44.44503070756151" lon="8.966846693604753"><ele>40.99999999999999</ele><time>2026-04-19T08:43:28.003Z</time></trkpt><trkpt lat="44.445084939409135" lon="8.966915937205801"><ele>41.0</ele><time>2026-04-19T08:43:30.003Z</time></trkpt><trkpt lat="44.44513458556788" lon="8.966978569965873"><ele>41.0</ele><time>2026-04-19T08:43:31.999Z</time></trkpt><trkpt lat="44.44518724551589" lon="8.967048176180231"><ele>41.0</ele><time>2026-04-19T08:43:33.999Z</time></trkpt><trkpt lat="44.44523750198469" lon="8.967118598522317"><ele>41.0</ele><time>2026-04-19T08:43:35.999Z</time></trkpt><trkpt lat="44.44529028025884" lon="8.967183580296009"><ele>40.99999999999999</ele><time>2026-04-19T08:43:37.999Z</time></trkpt><trkpt lat="44.445346903416116" lon="8.967253442133476"><ele>41.0</ele><time>2026-04-19T08:43:39.999Z</time></trkpt><trkpt lat="44.445400514724305" lon="8.967329067123838"><ele>41.0</ele><time>2026-04-19T08:43:41.999Z</time></trkpt><trkpt lat="44.44545508598903" lon="8.96739724516323"><ele>41.0</ele><time>2026-04-19T08:43:43.999Z</time></trkpt><trkpt lat="44.44551179521297" lon="8.967464263042539"><ele>41.0</ele><time>2026-04-19T08:43:45.999Z</time></trkpt><trkpt lat="44.44556977149605" lon="8.967534814304258"><ele>41.0</ele><time>2026-04-19T08:43:48Z</time></trkpt><trkpt lat="44.44562462616492" lon="8.96761313232299"><ele>41.0</ele><time>2026-04-19T08:43:50Z</time></trkpt><trkpt lat="44.4456830729864" lon="8.967686336523707"><ele>41.0</ele><time>2026-04-19T08:43:52Z</time></trkpt><trkpt lat="44.44573819529865" lon="8.96776005629855"><ele>41.42857142857142</ele><time>2026-04-19T08:43:54Z</time></trkpt><trkpt lat="44.44578278155689" lon="8.96782241615997"><ele>41.857142857142854</ele><time>2026-04-19T08:43:56Z</time></trkpt><trkpt lat="44.445848247328456" lon="8.967907419312532"><ele>42.285714285714285</ele><time>2026-04-19T08:43:59Z</time></trkpt><trkpt lat="44.44589766451803" lon="8.96797033737742"><ele>42.71428571428571</ele><time>2026-04-19T08:44:01Z</time></trkpt><trkpt lat="44.445950620643806" lon="8.968025072271287"><ele>43.14285714285714</ele><time>2026-04-19T08:44:03Z</time></trkpt><trkpt lat="44.44600325332865" lon="8.968080375270137"><ele>43.57142857142857</ele><time>2026-04-19T08:44:05Z</time></trkpt><trkpt lat="44.44606363985529" lon="8.968153070678463"><ele>44.0</ele><time>2026-04-19T08:44:08.001Z</time></trkpt><trkpt lat="44.44612515895804" lon="8.96822223302145"><ele>44.0</ele><time>2026-04-19T08:44:12.001Z</time></trkpt><trkpt lat="44.44617779909404" lon="8.968286852090321"><ele>44.0</ele><time>2026-04-19T08:44:16.001Z</time></trkpt><trkpt lat="44.44624004806959" lon="8.968367973538461"><ele>44.0</ele><time>2026-04-19T08:44:25.001Z</time></trkpt><trkpt lat="44.446304981876644" lon="8.968462987209957"><ele>44.0</ele><time>2026-04-19T08:44:28.001Z</time></trkpt><trkpt lat="44.44636249803542" lon="8.968551384625522"><ele>44.0</ele><time>2026-04-19T08:44:30.001Z</time></trkpt><trkpt lat="44.44641978735241" lon="8.968625386500731"><ele>44.0</ele><time>2026-04-19T08:44:32.001Z</time></trkpt><trkpt lat="44.446474512812635" lon="8.968695992568309"><ele>43.83333333333333</ele><time>2026-04-19T08:44:34.001Z</time></trkpt><trkpt lat="44.44653819390185" lon="8.968769810261715"><ele>43.666666666666664</ele><time>2026-04-19T08:44:36.001Z</time></trkpt><trkpt lat="44.44660630020241" lon="8.968836829730028"><ele>43.5</ele><time>2026-04-19T08:44:38.002Z</time></trkpt><trkpt lat="44.4466679345348" lon="8.968906922030747"><ele>43.333333333333336</ele><time>2026-04-19T08:44:40.002Z</time></trkpt><trkpt lat="44.44673026805134" lon="8.968971569240338"><ele>43.16666666666667</ele><time>2026-04-19T08:44:42.002Z</time></trkpt><trkpt lat="44.44678788661026" lon="8.969046499726153"><ele>43.0</ele><time>2026-04-19T08:44:44.002Z</time></trkpt><trkpt lat="44.44684235850784" lon="8.969117617249395"><ele>43.0</ele><time>2026-04-19T08:44:46.002Z</time></trkpt><trkpt lat="44.44690104071831" lon="8.96920263312683"><ele>43.0</ele><time>2026-04-19T08:44:48.002Z</time></trkpt><trkpt lat="44.446945946178886" lon="8.969286691175885"><ele>43.0</ele><time>2026-04-19T08:44:50.002Z</time></trkpt><trkpt lat="44.44699749098593" lon="8.969358056410547"><ele>43.0</ele><time>2026-04-19T08:44:52.002Z</time></trkpt><trkpt lat="44.44706616337687" lon="8.969416713492615"><ele>43.0</ele><time>2026-04-19T08:44:54.002Z</time></trkpt><trkpt lat="44.447128446593666" lon="8.969501922251874"><ele>43.0</ele><time>2026-04-19T08:44:56.002Z</time></trkpt><trkpt lat="44.44718961483245" lon="8.969581951688829"><ele>43.833333333333336</ele><time>2026-04-19T08:44:58.002Z</time></trkpt><trkpt lat="44.447245786574165" lon="8.96965605622062"><ele>44.66666666666667</ele><time>2026-04-19T08:45:00.002Z</time></trkpt><trkpt lat="44.44730228852928" lon="8.969730623022487"><ele>45.5</ele><time>2026-04-19T08:45:02.002Z</time></trkpt><trkpt lat="44.447364660626974" lon="8.969802845190028"><ele>46.333333333333336</ele><time>2026-04-19T08:45:04.002Z</time></trkpt><trkpt lat="44.447435730983564" lon="8.969864482013236"><ele>47.166666666666664</ele><time>2026-04-19T08:45:06.002Z</time></trkpt><trkpt lat="44.44749964591979" lon="8.969933746627309"><ele>48.0</ele><time>2026-04-19T08:45:08.002Z</time></trkpt><trkpt lat="44.44754993766242" lon="8.970018819730868"><ele>47.333333333333336</ele><time>2026-04-19T08:45:10.003Z</time></trkpt><trkpt lat="44.44761745129447" lon="8.97007961953988"><ele>46.666666666666664</ele><time>2026-04-19T08:45:12.003Z</time></trkpt><trkpt lat="44.447684783182716" lon="8.97014569384349"><ele>46.0</ele><time>2026-04-19T08:45:14.003Z</time></trkpt><trkpt lat="44.447752228864196" lon="8.970220032058954"><ele>45.33333333333333</ele><time>2026-04-19T08:45:16.003Z</time></trkpt><trkpt lat="44.44782857510698" lon="8.970301347082303"><ele>44.666666666666664</ele><time>2026-04-19T08:45:18.003Z</time></trkpt><trkpt lat="44.44789344223469" lon="8.970401508581386"><ele>44.0</ele><time>2026-04-19T08:45:20.003Z</time></trkpt><trkpt lat="44.447956707864435" lon="8.970496039025667"><ele>44.0</ele><time>2026-04-19T08:45:22.003Z</time></trkpt><trkpt lat="44.44802321940691" lon="8.970573492757532"><ele>44.0</ele><time>2026-04-19T08:45:24.003Z</time></trkpt><trkpt lat="44.44808123251656" lon="8.97065848671041"><ele>44.0</ele><time>2026-04-19T08:45:29.003Z</time></trkpt><trkpt lat="44.44813231173265" lon="8.970729792579847"><ele>44.0</ele><time>2026-04-19T08:45:31.003Z</time></trkpt><trkpt lat="44.448192829726715" lon="8.970806644864357"><ele>44.0</ele><time>2026-04-19T08:45:33.003Z</time></trkpt><trkpt lat="44.44825544973858" lon="8.970883416079117"><ele>44.0</ele><time>2026-04-19T08:45:35.003Z</time></trkpt><trkpt lat="44.448305743887694" lon="8.970984363762094"><ele>44.0</ele><time>2026-04-19T08:45:36.998Z</time></trkpt><trkpt lat="44.44834400343124" lon="8.971097387971719"><ele>44.0</ele><time>2026-04-19T08:45:38.998Z</time></trkpt><trkpt lat="44.448408767005425" lon="8.971185534173923"><ele>44.0</ele><time>2026-04-19T08:45:40.999Z</time></trkpt><trkpt lat="44.44846861570423" lon="8.971273461312927"><ele>44.0</ele><time>2026-04-19T08:45:42.999Z</time></trkpt><trkpt lat="44.44853808446379" lon="8.971356451251323"><ele>44.0</ele><time>2026-04-19T08:45:44.999Z</time></trkpt><trkpt lat="44.448598790156" lon="8.971448521057312"><ele>44.0</ele><time>2026-04-19T08:45:46.999Z</time></trkpt><trkpt lat="44.44866204685532" lon="8.971537571013796"><ele>44.0</ele><time>2026-04-19T08:45:48.999Z</time></trkpt><trkpt lat="44.44873037834563" lon="8.971612674176539"><ele>44.0</ele><time>2026-04-19T08:45:50.999Z</time></trkpt><trkpt lat="44.44879556146295" lon="8.971683542572888"><ele>44.0</ele><time>2026-04-19T08:45:52.999Z</time></trkpt><trkpt lat="44.4488697593683" lon="8.971743725989246"><ele>44.0</ele><time>2026-04-19T08:45:54.999Z</time></trkpt><trkpt lat="44.44894268679841" lon="8.971798883795378"><ele>44.0</ele><time>2026-04-19T08:45:57Z</time></trkpt><trkpt lat="44.44900713961717" lon="8.97187888625708"><ele>44.0</ele><time>2026-04-19T08:45:59Z</time></trkpt><trkpt lat="44.449076772744874" lon="8.971955483143368"><ele>44.33333333333333</ele><time>2026-04-19T08:46:01Z</time></trkpt><trkpt lat="44.44914234132437" lon="8.97203703817"><ele>44.666666666666664</ele><time>2026-04-19T08:46:03Z</time></trkpt><trkpt lat="44.44920529706979" lon="8.97211445711079"><ele>45.0</ele><time>2026-04-19T08:46:05Z</time></trkpt><trkpt lat="44.449263613734935" lon="8.972199566599402"><ele>45.333333333333336</ele><time>2026-04-19T08:46:07Z</time></trkpt><trkpt lat="44.44933534443651" lon="8.972265659682437"><ele>45.66666666666667</ele><time>2026-04-19T08:46:09Z</time></trkpt><trkpt lat="44.449395882869084" lon="8.97233455400662"><ele>46.0</ele><time>2026-04-19T08:46:11Z</time></trkpt><trkpt lat="44.4494534763855" lon="8.972410631895796"><ele>46.0</ele><time>2026-04-19T08:46:13Z</time></trkpt><trkpt lat="44.44950803904666" lon="8.972475088658294"><ele>46.0</ele><time>2026-04-19T08:46:15.001Z</time></trkpt><trkpt lat="44.44956473183473" lon="8.972537086127103"><ele>46.0</ele><time>2026-04-19T08:46:17.001Z</time></trkpt><trkpt lat="44.44963066104629" lon="8.972613840324675"><ele>46.0</ele><time>2026-04-19T08:46:19.001Z</time></trkpt><trkpt lat="44.449677650262366" lon="8.972706316994207"><ele>46.0</ele><time>2026-04-19T08:46:21.001Z</time></trkpt><trkpt lat="44.449729646335086" lon="8.972802135400066"><ele>46.0</ele><time>2026-04-19T08:46:23.001Z</time></trkpt><trkpt lat="44.44978450116267" lon="8.972888413672711"><ele>46.333333333333336</ele><time>2026-04-19T08:46:25.001Z</time></trkpt><trkpt lat="44.449846025266574" lon="8.972973388317657"><ele>46.66666666666667</ele><time>2026-04-19T08:46:27.001Z</time></trkpt><trkpt lat="44.44990431644529" lon="8.973050624278102"><ele>47.0</ele><time>2026-04-19T08:46:29.001Z</time></trkpt><trkpt lat="44.449966502126465" lon="8.973129490064052"><ele>47.333333333333336</ele><time>2026-04-19T08:46:31.001Z</time></trkpt><trkpt lat="44.45002723231483" lon="8.973204514072608"><ele>47.666666666666664</ele><time>2026-04-19T08:46:33.001Z</time></trkpt><trkpt lat="44.450090140198675" lon="8.973278864289036"><ele>48.0</ele><time>2026-04-19T08:46:35.001Z</time></trkpt><trkpt lat="44.45015188332554" lon="8.973349273021034"><ele>48.166666666666664</ele><time>2026-04-19T08:46:37.001Z</time></trkpt><trkpt lat="44.45021343073085" lon="8.973421113483223"><ele>48.33333333333333</ele><time>2026-04-19T08:46:39.001Z</time></trkpt><trkpt lat="44.450271241585206" lon="8.973493847619567"><ele>48.5</ele><time>2026-04-19T08:46:41.001Z</time></trkpt><trkpt lat="44.450330731279195" lon="8.973564776686935"><ele>48.666666666666664</ele><time>2026-04-19T08:46:43.001Z</time></trkpt><trkpt lat="44.45038628594034" lon="8.973638927011086"><ele>48.83333333333333</ele><time>2026-04-19T08:46:45.002Z</time></trkpt><trkpt lat="44.45044646413512" lon="8.973705215837633"><ele>49.0</ele><time>2026-04-19T08:46:47.002Z</time></trkpt><trkpt lat="44.45050379730987" lon="8.973774046603342"><ele>49.166666666666664</ele><time>2026-04-19T08:46:49.002Z</time></trkpt><trkpt lat="44.45056608723678" lon="8.973839667040256"><ele>49.33333333333333</ele><time>2026-04-19T08:46:51.002Z</time></trkpt><trkpt lat="44.45062062371136" lon="8.973919765946185"><ele>49.5</ele><time>2026-04-19T08:46:53.002Z</time></trkpt><trkpt lat="44.45068444441573" lon="8.9739854249121"><ele>49.66666666666667</ele><time>2026-04-19T08:46:55.002Z</time></trkpt><trkpt lat="44.450748043657896" lon="8.974053277763705"><ele>49.833333333333336</ele><time>2026-04-19T08:46:57.002Z</time></trkpt><trkpt lat="44.450806128696605" lon="8.974121795108909"><ele>50.0</ele><time>2026-04-19T08:46:59.002Z</time></trkpt><trkpt lat="44.450860897059364" lon="8.97419955625234"><ele>49.50000000000001</ele><time>2026-04-19T08:47:01.002Z</time></trkpt><trkpt lat="44.45092226959593" lon="8.974262547310808"><ele>49.0</ele><time>2026-04-19T08:47:03.002Z</time></trkpt><trkpt lat="44.450976923242166" lon="8.974342290464154"><ele>48.5</ele><time>2026-04-19T08:47:05.002Z</time></trkpt><trkpt lat="44.4510346298877" lon="8.974413168133918"><ele>48.0</ele><time>2026-04-19T08:47:07.002Z</time></trkpt><trkpt lat="44.45109066048585" lon="8.9744733032204"><ele>47.5</ele><time>2026-04-19T08:47:09.002Z</time></trkpt><trkpt lat="44.451150810534116" lon="8.97454053564934"><ele>47.0</ele><time>2026-04-19T08:47:11.002Z</time></trkpt><trkpt lat="44.4512063181788" lon="8.974610131514712"><ele>47.0</ele><time>2026-04-19T08:47:13.002Z</time></trkpt><trkpt lat="44.45126649191694" lon="8.97467440774488"><ele>47.0</ele><time>2026-04-19T08:47:15.002Z</time></trkpt><trkpt lat="44.45132544605424" lon="8.974735565610795"><ele>47.0</ele><time>2026-04-19T08:47:17.003Z</time></trkpt><trkpt lat="44.45137975288996" lon="8.974804271123615"><ele>47.0</ele><time>2026-04-19T08:47:19.003Z</time></trkpt><trkpt lat="44.451434162453644" lon="8.974872125427348"><ele>47.0</ele><time>2026-04-19T08:47:21.003Z</time></trkpt><trkpt lat="44.45148875699548" lon="8.97493833126227"><ele>47.0</ele><time>2026-04-19T08:47:23.003Z</time></trkpt><trkpt lat="44.45154920175941" lon="8.975000324823649"><ele>47.0</ele><time>2026-04-19T08:47:25.003Z</time></trkpt><trkpt lat="44.45159860879918" lon="8.9750699488721"><ele>47.83333333333333</ele><time>2026-04-19T08:47:27.003Z</time></trkpt><trkpt lat="44.451652284512356" lon="8.97512936559853"><ele>48.666666666666664</ele><time>2026-04-19T08:47:29.003Z</time></trkpt><trkpt lat="44.45170569958616" lon="8.975182697831293"><ele>49.5</ele><time>2026-04-19T08:47:31.003Z</time></trkpt><trkpt lat="44.451767356004474" lon="8.975273099186186"><ele>50.33333333333333</ele><time>2026-04-19T08:47:34.003Z</time></trkpt><trkpt lat="44.451782299108665" lon="8.97535993671623"><ele>51.166666666666664</ele><time>2026-04-19T08:47:36.003Z</time></trkpt><trkpt lat="44.45181003952278" lon="8.975488199748575"><ele>52.0</ele><time>2026-04-19T08:47:39.003Z</time></trkpt><trkpt lat="44.45183601005733" lon="8.97557754385242"><ele>52.0</ele><time>2026-04-19T08:47:41.003Z</time></trkpt><trkpt lat="44.45185675673605" lon="8.975669624658646"><ele>52.0</ele><time>2026-04-19T08:47:42.998Z</time></trkpt><trkpt lat="44.451872119694116" lon="8.975764218223084"><ele>52.0</ele><time>2026-04-19T08:47:44.998Z</time></trkpt><trkpt lat="44.451903701177535" lon="8.975856076393912"><ele>52.0</ele><time>2026-04-19T08:47:46.998Z</time></trkpt><trkpt lat="44.45195149631743" lon="8.97594080050075"><ele>52.0</ele><time>2026-04-19T08:47:48.998Z</time></trkpt><trkpt lat="44.452001184245006" lon="8.97602919449541"><ele>52.0</ele><time>2026-04-19T08:47:50.999Z</time></trkpt><trkpt lat="44.45205096906197" lon="8.976118317129606"><ele>52.0</ele><time>2026-04-19T08:47:52.999Z</time></trkpt><trkpt lat="44.45210035807753" lon="8.976211833127085"><ele>52.49999999999999</ele><time>2026-04-19T08:47:54.999Z</time></trkpt><trkpt lat="44.452149389075664" lon="8.976306441757087"><ele>53.0</ele><time>2026-04-19T08:47:56.999Z</time></trkpt><trkpt lat="44.452197267186406" lon="8.976396563715086"><ele>53.5</ele><time>2026-04-19T08:47:58.999Z</time></trkpt><trkpt lat="44.452247828086186" lon="8.97649033321824"><ele>54.0</ele><time>2026-04-19T08:48:00.999Z</time></trkpt><trkpt lat="44.452304101432304" lon="8.976581777855028"><ele>54.49999999999999</ele><time>2026-04-19T08:48:02.999Z</time></trkpt><trkpt lat="44.452354450519216" lon="8.976677272485839"><ele>55.0</ele><time>2026-04-19T08:48:05Z</time></trkpt><trkpt lat="44.452404643630565" lon="8.976777167868397"><ele>55.33333333333333</ele><time>2026-04-19T08:48:07Z</time></trkpt><trkpt lat="44.45244787136715" lon="8.97687838664841"><ele>55.666666666666664</ele><time>2026-04-19T08:48:09Z</time></trkpt><trkpt lat="44.45249444814326" lon="8.976982944053855"><ele>56.0</ele><time>2026-04-19T08:48:11Z</time></trkpt><trkpt lat="44.45254465645134" lon="8.977087891072541"><ele>56.33333333333333</ele><time>2026-04-19T08:48:13Z</time></trkpt><trkpt lat="44.45259339901414" lon="8.977193232571441"><ele>56.666666666666664</ele><time>2026-04-19T08:48:15Z</time></trkpt><trkpt lat="44.452641334527144" lon="8.977300765187225"><ele>57.0</ele><time>2026-04-19T08:48:17Z</time></trkpt><trkpt lat="44.45269085683953" lon="8.97741552946201"><ele>58.0</ele><time>2026-04-19T08:48:19Z</time></trkpt><trkpt lat="44.45273908452728" lon="8.977536726581757"><ele>59.0</ele><time>2026-04-19T08:48:21Z</time></trkpt><trkpt lat="44.45278972192367" lon="8.977652778911143"><ele>60.0</ele><time>2026-04-19T08:48:23.001Z</time></trkpt><trkpt lat="44.45283071615485" lon="8.97777173443453"><ele>61.0</ele><time>2026-04-19T08:48:25.001Z</time></trkpt><trkpt lat="44.45288029090621" lon="8.977877799312665"><ele>62.0</ele><time>2026-04-19T08:48:27.001Z</time></trkpt><trkpt lat="44.45292140828426" lon="8.977983440259482"><ele>62.00000000000001</ele><time>2026-04-19T08:48:29.001Z</time></trkpt><trkpt lat="44.452951718863346" lon="8.978091595837764"><ele>62.0</ele><time>2026-04-19T08:48:31.001Z</time></trkpt><trkpt lat="44.452993189741484" lon="8.978186107181566"><ele>62.0</ele><time>2026-04-19T08:48:33.001Z</time></trkpt><trkpt lat="44.45302143787166" lon="8.978295878968263"><ele>62.0</ele><time>2026-04-19T08:48:35.001Z</time></trkpt><trkpt lat="44.453057090620376" lon="8.978393562939765"><ele>62.00000000000001</ele><time>2026-04-19T08:48:37.001Z</time></trkpt><trkpt lat="44.4530898247222" lon="8.978499219475308"><ele>62.0</ele><time>2026-04-19T08:48:39.001Z</time></trkpt><trkpt lat="44.45312291776164" lon="8.978595361566441"><ele>61.714285714285715</ele><time>2026-04-19T08:48:41.001Z</time></trkpt><trkpt lat="44.45315050702121" lon="8.978697873701995"><ele>61.42857142857143</ele><time>2026-04-19T08:48:43.001Z</time></trkpt><trkpt lat="44.45317697612751" lon="8.978785264353375"><ele>61.142857142857146</ele><time>2026-04-19T08:48:45.001Z</time></trkpt><trkpt lat="44.45319946159152" lon="8.978870418517992"><ele>60.85714285714286</ele><time>2026-04-19T08:48:47.001Z</time></trkpt><trkpt lat="44.453234910160155" lon="8.978983977809222"><ele>60.57142857142857</ele><time>2026-04-19T08:48:50.002Z</time></trkpt><trkpt lat="44.45326531133712" lon="8.97906521521561"><ele>60.28571428571429</ele><time>2026-04-19T08:48:53.002Z</time></trkpt><trkpt lat="44.45329255896597" lon="8.979171003839392"><ele>60.0</ele><time>2026-04-19T08:48:56.002Z</time></trkpt><trkpt lat="44.453329222796555" lon="8.97927706631228"><ele>59.166666666666664</ele><time>2026-04-19T08:48:59.002Z</time></trkpt><trkpt lat="44.45336364363493" lon="8.979389744381358"><ele>58.33333333333333</ele><time>2026-04-19T08:49:02.002Z</time></trkpt><trkpt lat="44.453389871018956" lon="8.97947650697439"><ele>57.5</ele><time>2026-04-19T08:49:05.002Z</time></trkpt><trkpt lat="44.4534383498671" lon="8.979575858416789"><ele>56.666666666666664</ele><time>2026-04-19T08:49:08.002Z</time></trkpt><trkpt lat="44.4534700351497" lon="8.979688645118776"><ele>55.83333333333333</ele><time>2026-04-19T08:49:11.002Z</time></trkpt><trkpt lat="44.45348015800614" lon="8.979816252978521"><ele>55.0</ele><time>2026-04-19T08:49:14.002Z</time></trkpt><trkpt lat="44.453490318941" lon="8.979907129266266"><ele>54.99999999999999</ele><time>2026-04-19T08:49:16.002Z</time></trkpt><trkpt lat="44.45349764224802" lon="8.98001426260654"><ele>55.0</ele><time>2026-04-19T08:49:18.002Z</time></trkpt><trkpt lat="44.45351104935315" lon="8.980155607810829"><ele>55.0</ele><time>2026-04-19T08:49:20.002Z</time></trkpt><trkpt lat="44.45353875176253" lon="8.980243789164032"><ele>55.0</ele><time>2026-04-19T08:49:26.003Z</time></trkpt><trkpt lat="44.45357480993379" lon="8.980329204475384"><ele>54.99999999999999</ele><time>2026-04-19T08:49:30.003Z</time></trkpt><trkpt lat="44.45366194327756" lon="8.980347458577604"><ele>55.0</ele><time>2026-04-19T08:49:33.003Z</time></trkpt><trkpt lat="44.45372609288635" lon="8.980315886611972"><ele>55.71428571428571</ele><time>2026-04-19T08:49:35.003Z</time></trkpt><trkpt lat="44.4538091923211" lon="8.980265494744303"><ele>56.42857142857143</ele><time>2026-04-19T08:49:38.003Z</time></trkpt><trkpt lat="44.453865059877494" lon="8.980215501270772"><ele>57.14285714285714</ele><time>2026-04-19T08:49:41.003Z</time></trkpt><trkpt lat="44.45392294998145" lon="8.980167584539828"><ele>57.857142857142854</ele><time>2026-04-19T08:49:47.003Z</time></trkpt><trkpt lat="44.4539826741815" lon="8.980111328146595"><ele>58.57142857142857</ele><time>2026-04-19T08:49:51.998Z</time></trkpt><trkpt lat="44.45404649078588" lon="8.980109099755644"><ele>59.285714285714285</ele><time>2026-04-19T08:49:53.998Z</time></trkpt><trkpt lat="44.45411809226002" lon="8.980131835434252"><ele>60.0</ele><time>2026-04-19T08:49:56.999Z</time></trkpt><trkpt lat="44.45416237178997" lon="8.98025144744085"><ele>60.0</ele><time>2026-04-19T08:49:59.999Z</time></trkpt><trkpt lat="44.45419194631866" lon="8.980364386392496"><ele>60.0</ele><time>2026-04-19T08:50:02.999Z</time></trkpt><trkpt lat="44.454217363808226" lon="8.980455272979897"><ele>60.0</ele><time>2026-04-19T08:50:06.999Z</time></trkpt><trkpt lat="44.45425082609224" lon="8.980559167090046"><ele>60.0</ele><time>2026-04-19T08:50:11Z</time></trkpt><trkpt lat="44.45427741370917" lon="8.980648706681752"><ele>60.0</ele><time>2026-04-19T08:50:13Z</time></trkpt><trkpt lat="44.45431195629241" lon="8.98077013015642"><ele>60.0</ele><time>2026-04-19T08:50:16Z</time></trkpt><trkpt lat="44.454326163996676" lon="8.980877597963161"><ele>59.57142857142857</ele><time>2026-04-19T08:50:18Z</time></trkpt><trkpt lat="44.45433248869505" lon="8.980982596642907"><ele>59.14285714285714</ele><time>2026-04-19T08:50:20Z</time></trkpt><trkpt lat="44.45433759552014" lon="8.981088428693397"><ele>58.71428571428571</ele><time>2026-04-19T08:50:22Z</time></trkpt><trkpt lat="44.454348937064054" lon="8.981181808022423"><ele>58.285714285714285</ele><time>2026-04-19T08:50:24Z</time></trkpt><trkpt lat="44.45435483760173" lon="8.981284778414967"><ele>57.85714285714285</ele><time>2026-04-19T08:50:26Z</time></trkpt><trkpt lat="44.454365329937936" lon="8.981376764852254"><ele>57.42857142857142</ele><time>2026-04-19T08:50:28.001Z</time></trkpt><trkpt lat="44.454376712000595" lon="8.981474199687096"><ele>57.0</ele><time>2026-04-19T08:50:30.001Z</time></trkpt><trkpt lat="44.454390493699925" lon="8.981575965059573"><ele>57.0</ele><time>2026-04-19T08:50:32.001Z</time></trkpt><trkpt lat="44.4543981748829" lon="8.981672042250182"><ele>57.0</ele><time>2026-04-19T08:50:34.001Z</time></trkpt><trkpt lat="44.454406105622624" lon="8.981770737835458"><ele>57.0</ele><time>2026-04-19T08:50:36.001Z</time></trkpt><trkpt lat="44.454413707407255" lon="8.981871307126244"><ele>57.0</ele><time>2026-04-19T08:50:38.001Z</time></trkpt><trkpt lat="44.45442534544118" lon="8.98199635502679"><ele>57.0</ele><time>2026-04-19T08:50:40.001Z</time></trkpt><trkpt lat="44.45443718826522" lon="8.982136814549024"><ele>57.0</ele><time>2026-04-19T08:50:42.001Z</time></trkpt><trkpt lat="44.45444733058259" lon="8.982286017132907"><ele>57.0</ele><time>2026-04-19T08:50:44.001Z</time></trkpt><trkpt lat="44.45446291391822" lon="8.982431400144796"><ele>57.0</ele><time>2026-04-19T08:50:46.001Z</time></trkpt><trkpt lat="44.45446543045237" lon="8.982525681143605"><ele>57.0</ele><time>2026-04-19T08:50:48.001Z</time></trkpt><trkpt lat="44.4544869668053" lon="8.982654440955674"><ele>57.0</ele><time>2026-04-19T08:50:51.001Z</time></trkpt><trkpt lat="44.45449823375835" lon="8.982771607717252"><ele>57.0</ele><time>2026-04-19T08:50:53.001Z</time></trkpt><trkpt lat="44.45450933829893" lon="8.982898182234"><ele>57.0</ele><time>2026-04-19T08:50:55.001Z</time></trkpt><trkpt lat="44.45453020495696" lon="8.983018237454777"><ele>57.0</ele><time>2026-04-19T08:50:57.002Z</time></trkpt><trkpt lat="44.454559045559044" lon="8.983144247662478"><ele>57.0</ele><time>2026-04-19T08:50:59.002Z</time></trkpt><trkpt lat="44.45456131316576" lon="8.983273151187383"><ele>57.0</ele><time>2026-04-19T08:51:01.002Z</time></trkpt><trkpt lat="44.45457744040794" lon="8.983404063748068"><ele>57.0</ele><time>2026-04-19T08:51:03.002Z</time></trkpt><trkpt lat="44.454596036792715" lon="8.983539061019963"><ele>57.0</ele><time>2026-04-19T08:51:05.002Z</time></trkpt><trkpt lat="44.45460143023193" lon="8.983678370155726"><ele>56.833333333333336</ele><time>2026-04-19T08:51:07.002Z</time></trkpt><trkpt lat="44.45460271042011" lon="8.983811124564433"><ele>56.66666666666667</ele><time>2026-04-19T08:51:09.002Z</time></trkpt><trkpt lat="44.45460848076736" lon="8.983941978955553"><ele>56.5</ele><time>2026-04-19T08:51:11.002Z</time></trkpt><trkpt lat="44.45462175423307" lon="8.98404596661293"><ele>56.333333333333336</ele><time>2026-04-19T08:51:13.002Z</time></trkpt><trkpt lat="44.45463169426847" lon="8.984163003779095"><ele>56.16666666666667</ele><time>2026-04-19T08:51:15.002Z</time></trkpt><trkpt lat="44.454640072593264" lon="8.984281338584012"><ele>56.0</ele><time>2026-04-19T08:51:17.002Z</time></trkpt><trkpt lat="44.45466005494541" lon="8.984395449000175"><ele>57.4</ele><time>2026-04-19T08:51:19.002Z</time></trkpt><trkpt lat="44.45467486446351" lon="8.984514843221955"><ele>58.8</ele><time>2026-04-19T08:51:21.002Z</time></trkpt><trkpt lat="44.45469079280904" lon="8.984644325590533"><ele>60.199999999999996</ele><time>2026-04-19T08:51:23.002Z</time></trkpt><trkpt lat="44.454705756005275" lon="8.984764396205328"><ele>61.599999999999994</ele><time>2026-04-19T08:51:25.002Z</time></trkpt><trkpt lat="44.4547117135809" lon="8.984892020559334"><ele>63.0</ele><time>2026-04-19T08:51:27.002Z</time></trkpt><trkpt lat="44.454707331228526" lon="8.985019676272413"><ele>63.2</ele><time>2026-04-19T08:51:29.003Z</time></trkpt><trkpt lat="44.45469904629443" lon="8.985143717065863"><ele>63.4</ele><time>2026-04-19T08:51:31.003Z</time></trkpt><trkpt lat="44.45468233907628" lon="8.985271832877567"><ele>63.60000000000001</ele><time>2026-04-19T08:51:33.003Z</time></trkpt><trkpt lat="44.454660782088766" lon="8.985398442387362"><ele>63.800000000000004</ele><time>2026-04-19T08:51:35.003Z</time></trkpt><trkpt lat="44.45463649390127" lon="8.985522733997719"><ele>64.0</ele><time>2026-04-19T08:51:37.003Z</time></trkpt><trkpt lat="44.45460942230103" lon="8.985646154555129"><ele>62.6</ele><time>2026-04-19T08:51:39.003Z</time></trkpt><trkpt lat="44.45458439338974" lon="8.985774833861926"><ele>61.2</ele><time>2026-04-19T08:51:41.003Z</time></trkpt><trkpt lat="44.45455022795642" lon="8.985893401913724"><ele>59.800000000000004</ele><time>2026-04-19T08:51:43.003Z</time></trkpt><trkpt lat="44.45452446973028" lon="8.986017420886322"><ele>58.400000000000006</ele><time>2026-04-19T08:51:45.003Z</time></trkpt><trkpt lat="44.45449228982021" lon="8.986139059709618"><ele>57.0</ele><time>2026-04-19T08:51:47.003Z</time></trkpt><trkpt lat="44.454459613834054" lon="8.98625632857493"><ele>57.0</ele><time>2026-04-19T08:51:49.003Z</time></trkpt><trkpt lat="44.45442888216013" lon="8.986376566980708"><ele>57.0</ele><time>2026-04-19T08:51:51.003Z</time></trkpt><trkpt lat="44.45439413754634" lon="8.986498342387208"><ele>57.0</ele><time>2026-04-19T08:51:53.003Z</time></trkpt><trkpt lat="44.45436526951606" lon="8.98661843303479"><ele>57.0</ele><time>2026-04-19T08:51:54.998Z</time></trkpt><trkpt lat="44.4543342005632" lon="8.986744968571672"><ele>57.0</ele><time>2026-04-19T08:51:56.998Z</time></trkpt><trkpt lat="44.45430146195492" lon="8.986864790373776"><ele>58.0</ele><time>2026-04-19T08:51:58.998Z</time></trkpt><trkpt lat="44.45426643408797" lon="8.986982738404716"><ele>59.0</ele><time>2026-04-19T08:52:00.998Z</time></trkpt><trkpt lat="44.45423245542806" lon="8.987112572347092"><ele>60.0</ele><time>2026-04-19T08:52:02.999Z</time></trkpt><trkpt lat="44.45419906667582" lon="8.987236736107509"><ele>61.0</ele><time>2026-04-19T08:52:04.999Z</time></trkpt><trkpt lat="44.454165254411976" lon="8.987359058595434"><ele>62.0</ele><time>2026-04-19T08:52:06.999Z</time></trkpt><trkpt lat="44.45413359877968" lon="8.987485584050862"><ele>64.2</ele><time>2026-04-19T08:52:08.999Z</time></trkpt><trkpt lat="44.45409884564561" lon="8.987606081558013"><ele>66.4</ele><time>2026-04-19T08:52:10.999Z</time></trkpt><trkpt lat="44.454062746979034" lon="8.987722616186359"><ele>68.6</ele><time>2026-04-19T08:52:12.999Z</time></trkpt><trkpt lat="44.4540298398697" lon="8.987842941930596"><ele>70.8</ele><time>2026-04-19T08:52:15Z</time></trkpt><trkpt lat="44.45399802916018" lon="8.987968291459035"><ele>73.0</ele><time>2026-04-19T08:52:17Z</time></trkpt><trkpt lat="44.45396560057665" lon="8.988092585285475"><ele>73.0</ele><time>2026-04-19T08:52:19Z</time></trkpt><trkpt lat="44.453931724246736" lon="8.988218421618974"><ele>73.0</ele><time>2026-04-19T08:52:21Z</time></trkpt><trkpt lat="44.45389967535644" lon="8.988347383884097"><ele>73.0</ele><time>2026-04-19T08:52:23Z</time></trkpt><trkpt lat="44.45386128652255" lon="8.988469784371768"><ele>73.0</ele><time>2026-04-19T08:52:25Z</time></trkpt><trkpt lat="44.453825547891775" lon="8.988609033700827"><ele>73.0</ele><time>2026-04-19T08:52:27Z</time></trkpt><trkpt lat="44.45379455616542" lon="8.98874799768923"><ele>70.4</ele><time>2026-04-19T08:52:29Z</time></trkpt><trkpt lat="44.453758751688895" lon="8.988892142702515"><ele>67.8</ele><time>2026-04-19T08:52:31Z</time></trkpt><trkpt lat="44.45372330690844" lon="8.98902510893666"><ele>65.2</ele><time>2026-04-19T08:52:33.001Z</time></trkpt><trkpt lat="44.45368518046359" lon="8.9891644865803"><ele>62.6</ele><time>2026-04-19T08:52:35.001Z</time></trkpt><trkpt lat="44.45365157233643" lon="8.989309761649547"><ele>60.0</ele><time>2026-04-19T08:52:37.001Z</time></trkpt><trkpt lat="44.45361131596786" lon="8.989445373294739"><ele>59.6</ele><time>2026-04-19T08:52:39.001Z</time></trkpt><trkpt lat="44.45357723437142" lon="8.989586771663806"><ele>59.2</ele><time>2026-04-19T08:52:41.001Z</time></trkpt><trkpt lat="44.45354179787405" lon="8.989723564040172"><ele>58.8</ele><time>2026-04-19T08:52:43.001Z</time></trkpt><trkpt lat="44.45350528885897" lon="8.989860225531402"><ele>58.4</ele><time>2026-04-19T08:52:45.001Z</time></trkpt><trkpt lat="44.453469665734026" lon="8.989993014805524"><ele>58.0</ele><time>2026-04-19T08:52:47.001Z</time></trkpt><trkpt lat="44.4534361074573" lon="8.990127515007218"><ele>59.2</ele><time>2026-04-19T08:52:49.001Z</time></trkpt><trkpt lat="44.45339459595364" lon="8.990250098909321"><ele>60.4</ele><time>2026-04-19T08:52:51.001Z</time></trkpt><trkpt lat="44.4533529912354" lon="8.990373507795855"><ele>61.60000000000001</ele><time>2026-04-19T08:52:53.001Z</time></trkpt><trkpt lat="44.45330276385709" lon="8.99049172907676"><ele>62.800000000000004</ele><time>2026-04-19T08:52:55.001Z</time></trkpt><trkpt lat="44.45325707846419" lon="8.99061144482566"><ele>64.0</ele><time>2026-04-19T08:52:57.001Z</time></trkpt><trkpt lat="44.4532034612578" lon="8.990722642640272"><ele>64.0</ele><time>2026-04-19T08:52:59.002Z</time></trkpt><trkpt lat="44.45314985672121" lon="8.990831552911013"><ele>64.0</ele><time>2026-04-19T08:53:01.002Z</time></trkpt><trkpt lat="44.453095398634304" lon="8.990939549200652"><ele>64.0</ele><time>2026-04-19T08:53:03.002Z</time></trkpt><trkpt lat="44.45303923353043" lon="8.991045599255916"><ele>64.0</ele><time>2026-04-19T08:53:05.002Z</time></trkpt><trkpt lat="44.45297796423143" lon="8.991150906584965"><ele>64.0</ele><time>2026-04-19T08:53:07.002Z</time></trkpt><trkpt lat="44.45291696519041" lon="8.991247820117362"><ele>64.0</ele><time>2026-04-19T08:53:09.002Z</time></trkpt><trkpt lat="44.452852188987826" lon="8.991349578713598"><ele>64.0</ele><time>2026-04-19T08:53:11.002Z</time></trkpt><trkpt lat="44.45278768652683" lon="8.991448416839072"><ele>64.0</ele><time>2026-04-19T08:53:13.002Z</time></trkpt><trkpt lat="44.45271804286047" lon="8.991548428250923"><ele>64.0</ele><time>2026-04-19T08:53:15.002Z</time></trkpt><trkpt lat="44.45264307283656" lon="8.99163058658753"><ele>64.0</ele><time>2026-04-19T08:53:17.002Z</time></trkpt><trkpt lat="44.45257349289884" lon="8.991721121526256"><ele>66.2</ele><time>2026-04-19T08:53:19.002Z</time></trkpt><trkpt lat="44.45250722680654" lon="8.991819323032715"><ele>68.4</ele><time>2026-04-19T08:53:21.002Z</time></trkpt><trkpt lat="44.45243761533126" lon="8.991906086984558"><ele>70.6</ele><time>2026-04-19T08:53:23.002Z</time></trkpt><trkpt lat="44.45237344239321" lon="8.991999980319825"><ele>72.8</ele><time>2026-04-19T08:53:25.002Z</time></trkpt><trkpt lat="44.45230734740041" lon="8.992089744419154"><ele>75.0</ele><time>2026-04-19T08:53:27.002Z</time></trkpt><trkpt lat="44.45224104901986" lon="8.992171567213617"><ele>75.0</ele><time>2026-04-19T08:53:29.002Z</time></trkpt><trkpt lat="44.45216363504344" lon="8.992246341371589"><ele>75.0</ele><time>2026-04-19T08:53:31.003Z</time></trkpt><trkpt lat="44.4520836834489" lon="8.992321139862684"><ele>75.0</ele><time>2026-04-19T08:53:33.003Z</time></trkpt><trkpt lat="44.452002976844156" lon="8.992391482570268"><ele>75.0</ele><time>2026-04-19T08:53:35.003Z</time></trkpt><trkpt lat="44.451918876839876" lon="8.992444451568035"><ele>75.0</ele><time>2026-04-19T08:53:37.003Z</time></trkpt><trkpt lat="44.45183373159168" lon="8.992486127464998"><ele>76.4</ele><time>2026-04-19T08:53:39.003Z</time></trkpt><trkpt lat="44.451745578833865" lon="8.992505148628304"><ele>77.8</ele><time>2026-04-19T08:53:41.003Z</time></trkpt><trkpt lat="44.45164906053088" lon="8.992520506741869"><ele>79.19999999999999</ele><time>2026-04-19T08:53:43.003Z</time></trkpt><trkpt lat="44.451547636574276" lon="8.992526022499785"><ele>80.6</ele><time>2026-04-19T08:53:45.003Z</time></trkpt><trkpt lat="44.45144301723291" lon="8.992514644779348"><ele>82.0</ele><time>2026-04-19T08:53:47.003Z</time></trkpt><trkpt lat="44.45133705329247" lon="8.992474448773642"><ele>78.8</ele><time>2026-04-19T08:53:49.003Z</time></trkpt><trkpt lat="44.45123147747563" lon="8.992441885730647"><ele>75.6</ele><time>2026-04-19T08:53:51.003Z</time></trkpt><trkpt lat="44.451130830206914" lon="8.992417543867859"><ele>72.39999999999999</ele><time>2026-04-19T08:53:53.003Z</time></trkpt><trkpt lat="44.4510424414231" lon="8.992383328010561"><ele>69.19999999999999</ele><time>2026-04-19T08:53:55.003Z</time></trkpt><trkpt lat="44.450958070906964" lon="8.992350531169471"><ele>66.0</ele><time>2026-04-19T08:53:57.003Z</time></trkpt><trkpt lat="44.450871785915105" lon="8.9923314068408"><ele>66.0</ele><time>2026-04-19T08:53:59.003Z</time></trkpt><trkpt lat="44.450784921989225" lon="8.992333133582886"><ele>66.0</ele><time>2026-04-19T08:54:00.999Z</time></trkpt><trkpt lat="44.450698219121946" lon="8.992348061058431"><ele>66.0</ele><time>2026-04-19T08:54:02.999Z</time></trkpt><trkpt lat="44.45060881704436" lon="8.992379202793922"><ele>66.0</ele><time>2026-04-19T08:54:04.999Z</time></trkpt><trkpt lat="44.45052081035612" lon="8.99242029428608"><ele>66.0</ele><time>2026-04-19T08:54:06.999Z</time></trkpt><trkpt lat="44.45044076957933" lon="8.992479728114116"><ele>66.6</ele><time>2026-04-19T08:54:08.999Z</time></trkpt><trkpt lat="44.45036628560495" lon="8.992567626511564"><ele>67.19999999999999</ele><time>2026-04-19T08:54:10.999Z</time></trkpt><trkpt lat="44.450299681078654" lon="8.992667755910931"><ele>67.80000000000001</ele><time>2026-04-19T08:54:12.999Z</time></trkpt><trkpt lat="44.450240765252865" lon="8.9927708422168"><ele>68.4</ele><time>2026-04-19T08:54:14.999Z</time></trkpt><trkpt lat="44.450184142127" lon="8.99287721374425"><ele>69.0</ele><time>2026-04-19T08:54:16.999Z</time></trkpt><trkpt lat="44.45012950379025" lon="8.992987685096015"><ele>69.0</ele><time>2026-04-19T08:54:19Z</time></trkpt><trkpt lat="44.45007465188474" lon="8.993093142468682"><ele>69.0</ele><time>2026-04-19T08:54:21Z</time></trkpt><trkpt lat="44.45002160045904" lon="8.9932017188759"><ele>69.0</ele><time>2026-04-19T08:54:23Z</time></trkpt><trkpt lat="44.449968179524525" lon="8.99330564714713"><ele>69.0</ele><time>2026-04-19T08:54:25Z</time></trkpt><trkpt lat="44.44991346794069" lon="8.993418502660845"><ele>69.0</ele><time>2026-04-19T08:54:27Z</time></trkpt><trkpt lat="44.44985595582372" lon="8.993520662135984"><ele>68.8</ele><time>2026-04-19T08:54:29Z</time></trkpt><trkpt lat="44.449805270871266" lon="8.99362890231414"><ele>68.60000000000001</ele><time>2026-04-19T08:54:31Z</time></trkpt><trkpt lat="44.449752584919615" lon="8.993742262886482"><ele>68.4</ele><time>2026-04-19T08:54:33Z</time></trkpt><trkpt lat="44.44970047999213" lon="8.993855178382885"><ele>68.2</ele><time>2026-04-19T08:54:35Z</time></trkpt><trkpt lat="44.449648055593975" lon="8.993966056593038"><ele>68.0</ele><time>2026-04-19T08:54:37Z</time></trkpt><trkpt lat="44.44959991452402" lon="8.994083180092533"><ele>68.33333333333334</ele><time>2026-04-19T08:54:39.001Z</time></trkpt><trkpt lat="44.44956746240753" lon="8.99419854431974"><ele>68.66666666666667</ele><time>2026-04-19T08:54:41.001Z</time></trkpt><trkpt lat="44.44953615612132" lon="8.994323466775121"><ele>69.0</ele><time>2026-04-19T08:54:43.001Z</time></trkpt><trkpt lat="44.44950572871068" lon="8.994441150050859"><ele>69.33333333333333</ele><time>2026-04-19T08:54:45.001Z</time></trkpt><trkpt lat="44.44947303661285" lon="8.99455089037336"><ele>69.66666666666666</ele><time>2026-04-19T08:54:47.001Z</time></trkpt><trkpt lat="44.44943868739037" lon="8.994663187949307"><ele>70.0</ele><time>2026-04-19T08:54:49.001Z</time></trkpt><trkpt lat="44.44941268766104" lon="8.994775698963672"><ele>70.0</ele><time>2026-04-19T08:54:51.001Z</time></trkpt><trkpt lat="44.44939352163987" lon="8.994899010321337"><ele>70.0</ele><time>2026-04-19T08:54:53.001Z</time></trkpt><trkpt lat="44.44936195632209" lon="8.995015492699164"><ele>70.0</ele><time>2026-04-19T08:54:55.001Z</time></trkpt><trkpt lat="44.44932330471918" lon="8.995136218199885"><ele>70.0</ele><time>2026-04-19T08:54:57.001Z</time></trkpt><trkpt lat="44.449298486430976" lon="8.995263558761216"><ele>70.0</ele><time>2026-04-19T08:54:59.001Z</time></trkpt><trkpt lat="44.449265612857786" lon="8.995394202026162"><ele>70.5</ele><time>2026-04-19T08:55:01.001Z</time></trkpt><trkpt lat="44.44923018875114" lon="8.99550745539523"><ele>71.0</ele><time>2026-04-19T08:55:03.001Z</time></trkpt><trkpt lat="44.44920235460845" lon="8.99560385897295"><ele>71.5</ele><time>2026-04-19T08:55:05.001Z</time></trkpt><trkpt lat="44.44918238296093" lon="8.995688076154764"><ele>72.0</ele><time>2026-04-19T08:55:07.002Z</time></trkpt><trkpt lat="44.449150643440184" lon="8.995787464206982"><ele>72.5</ele><time>2026-04-19T08:55:09.002Z</time></trkpt><trkpt lat="44.449128948571655" lon="8.995893015710156"><ele>73.0</ele><time>2026-04-19T08:55:11.002Z</time></trkpt><trkpt lat="44.449096501864005" lon="8.996001256419616"><ele>73.5</ele><time>2026-04-19T08:55:13.002Z</time></trkpt><trkpt lat="44.4490696422743" lon="8.996112923396657"><ele>74.0</ele><time>2026-04-19T08:55:15.002Z</time></trkpt><trkpt lat="44.44904136598321" lon="8.996226382071367"><ele>74.5</ele><time>2026-04-19T08:55:17.002Z</time></trkpt><trkpt lat="44.44901153932804" lon="8.996343558769915"><ele>75.0</ele><time>2026-04-19T08:55:19.002Z</time></trkpt><trkpt lat="44.44898147543999" lon="8.996459257309072"><ele>75.5</ele><time>2026-04-19T08:55:21.002Z</time></trkpt><trkpt lat="44.44895257387844" lon="8.996581295624763"><ele>76.0</ele><time>2026-04-19T08:55:23.002Z</time></trkpt><trkpt lat="44.4489243261541" lon="8.996701062069173"><ele>76.16666666666666</ele><time>2026-04-19T08:55:25.002Z</time></trkpt><trkpt lat="44.44890041156703" lon="8.996816916716494"><ele>76.33333333333333</ele><time>2026-04-19T08:55:27.002Z</time></trkpt><trkpt lat="44.448870497437156" lon="8.996924859126215"><ele>76.5</ele><time>2026-04-19T08:55:29.002Z</time></trkpt><trkpt lat="44.448840471177036" lon="8.997034534299031"><ele>76.66666666666667</ele><time>2026-04-19T08:55:31.002Z</time></trkpt><trkpt lat="44.44879438847526" lon="8.997131586990744"><ele>76.83333333333334</ele><time>2026-04-19T08:55:33.002Z</time></trkpt><trkpt lat="44.44876668372045" lon="8.997243059372462"><ele>77.0</ele><time>2026-04-19T08:55:35.002Z</time></trkpt><trkpt lat="44.44873835794138" lon="8.997362184376014"><ele>75.66666666666667</ele><time>2026-04-19T08:55:37.002Z</time></trkpt><trkpt lat="44.448705497251346" lon="8.997476084565706"><ele>74.33333333333334</ele><time>2026-04-19T08:55:39.003Z</time></trkpt><trkpt lat="44.44867123551761" lon="8.9975835085507"><ele>73.0</ele><time>2026-04-19T08:55:41.003Z</time></trkpt><trkpt lat="44.44864352929791" lon="8.997696174794203"><ele>71.66666666666667</ele><time>2026-04-19T08:55:43.003Z</time></trkpt><trkpt lat="44.448616542339245" lon="8.997814869883106"><ele>70.33333333333333</ele><time>2026-04-19T08:55:45.003Z</time></trkpt><trkpt lat="44.44858431384422" lon="8.997932829413942"><ele>69.0</ele><time>2026-04-19T08:55:47.003Z</time></trkpt><trkpt lat="44.44855708434409" lon="8.998050657153536"><ele>68.83333333333333</ele><time>2026-04-19T08:55:49.003Z</time></trkpt><trkpt lat="44.448529830693076" lon="8.998160374474118"><ele>68.66666666666667</ele><time>2026-04-19T08:55:51.003Z</time></trkpt><trkpt lat="44.44850086667247" lon="8.998263027301103"><ele>68.5</ele><time>2026-04-19T08:55:53.003Z</time></trkpt><trkpt lat="44.44847631111174" lon="8.99836010501515"><ele>68.33333333333334</ele><time>2026-04-19T08:55:55.003Z</time></trkpt><trkpt lat="44.44844036771755" lon="8.99845686002189"><ele>68.16666666666667</ele><time>2026-04-19T08:55:57.003Z</time></trkpt><trkpt lat="44.44841926227775" lon="8.998564809324481"><ele>68.0</ele><time>2026-04-19T08:55:59.003Z</time></trkpt><trkpt lat="44.44838973397999" lon="8.998675949522966"><ele>68.6</ele><time>2026-04-19T08:56:01.003Z</time></trkpt><trkpt lat="44.44835497152794" lon="8.99878409075327"><ele>69.19999999999999</ele><time>2026-04-19T08:56:03.003Z</time></trkpt><trkpt lat="44.448327546439266" lon="8.99890467785262"><ele>69.8</ele><time>2026-04-19T08:56:05.003Z</time></trkpt><trkpt lat="44.44828998734212" lon="8.999021748542548"><ele>70.39999999999999</ele><time>2026-04-19T08:56:06.999Z</time></trkpt><trkpt lat="44.448263672119296" lon="8.999144804008171"><ele>71.0</ele><time>2026-04-19T08:56:08.999Z</time></trkpt><trkpt lat="44.44823067048904" lon="8.999264997046991"><ele>71.8</ele><time>2026-04-19T08:56:10.999Z</time></trkpt><trkpt lat="44.448198850285515" lon="8.99938637449794"><ele>72.6</ele><time>2026-04-19T08:56:12.999Z</time></trkpt><trkpt lat="44.44816867729011" lon="8.99950615641217"><ele>73.4</ele><time>2026-04-19T08:56:14.999Z</time></trkpt><trkpt lat="44.44814039203603" lon="8.999628951186478"><ele>74.2</ele><time>2026-04-19T08:56:16.999Z</time></trkpt><trkpt lat="44.44810625454764" lon="8.999748768700828"><ele>75.0</ele><time>2026-04-19T08:56:18.999Z</time></trkpt><trkpt lat="44.448074316287574" lon="8.999862723222016"><ele>74.99999999999999</ele><time>2026-04-19T08:56:20.999Z</time></trkpt><trkpt lat="44.44804722350419" lon="8.999972081862401"><ele>75.0</ele><time>2026-04-19T08:56:22.999Z</time></trkpt><trkpt lat="44.44802055370766" lon="9.000075435725813"><ele>75.0</ele><time>2026-04-19T08:56:25Z</time></trkpt><trkpt lat="44.4479942922733" lon="9.000176778978563"><ele>75.0</ele><time>2026-04-19T08:56:27Z</time></trkpt><trkpt lat="44.447968584516005" lon="9.000273976865424"><ele>75.0</ele><time>2026-04-19T08:56:29Z</time></trkpt><trkpt lat="44.447940755394946" lon="9.000356203232423"><ele>74.99999999999999</ele><time>2026-04-19T08:56:31Z</time></trkpt><trkpt lat="44.447922701957026" lon="9.00044586549993"><ele>75.0</ele><time>2026-04-19T08:56:34Z</time></trkpt><trkpt lat="44.44789901180489" lon="9.000534931684518"><ele>74.83333333333333</ele><time>2026-04-19T08:56:39Z</time></trkpt><trkpt lat="44.44787685161373" lon="9.000645581595476"><ele>74.66666666666667</ele><time>2026-04-19T08:56:45.001Z</time></trkpt><trkpt lat="44.44786302224851" lon="9.0007580354094"><ele>74.5</ele><time>2026-04-19T08:56:48.001Z</time></trkpt><trkpt lat="44.447837568246726" lon="9.00085058202441"><ele>74.33333333333334</ele><time>2026-04-19T08:56:50.001Z</time></trkpt><trkpt lat="44.44781158536312" lon="9.000952459026896"><ele>74.16666666666667</ele><time>2026-04-19T08:56:52.001Z</time></trkpt><trkpt lat="44.447780604029376" lon="9.001051009854912"><ele>74.0</ele><time>2026-04-19T08:56:54.001Z</time></trkpt><trkpt lat="44.44773056035552" lon="9.001139972471925"><ele>73.33333333333334</ele><time>2026-04-19T08:56:56.001Z</time></trkpt><trkpt lat="44.447702069045754" lon="9.001247881545979"><ele>72.66666666666667</ele><time>2026-04-19T08:56:58.001Z</time></trkpt><trkpt lat="44.44768073576116" lon="9.001358474631164"><ele>72.0</ele><time>2026-04-19T08:57:00.001Z</time></trkpt><trkpt lat="44.447657598877925" lon="9.001468999875474"><ele>71.33333333333333</ele><time>2026-04-19T08:57:02.001Z</time></trkpt><trkpt lat="44.447638924550084" lon="9.001583862435085"><ele>70.66666666666666</ele><time>2026-04-19T08:57:04.001Z</time></trkpt><trkpt lat="44.44762500934679" lon="9.001687618870234"><ele>70.0</ele><time>2026-04-19T08:57:06.001Z</time></trkpt><trkpt lat="44.44761062590663" lon="9.001799099431581"><ele>70.0</ele><time>2026-04-19T08:57:08.001Z</time></trkpt><trkpt lat="44.44759676970505" lon="9.001907886400522"><ele>70.0</ele><time>2026-04-19T08:57:10.001Z</time></trkpt><trkpt lat="44.44758488482202" lon="9.002018232041452"><ele>70.0</ele><time>2026-04-19T08:57:12.001Z</time></trkpt><trkpt lat="44.44757263919145" lon="9.002128761359932"><ele>70.0</ele><time>2026-04-19T08:57:14.002Z</time></trkpt><trkpt lat="44.44755951444457" lon="9.00224251444071"><ele>70.0</ele><time>2026-04-19T08:57:16.002Z</time></trkpt><trkpt lat="44.44754485633894" lon="9.002363002091794"><ele>70.0</ele><time>2026-04-19T08:57:18.002Z</time></trkpt><trkpt lat="44.44753036206863" lon="9.002483241430715"><ele>70.16666666666666</ele><time>2026-04-19T08:57:20.002Z</time></trkpt><trkpt lat="44.44751788639864" lon="9.0026069609446"><ele>70.33333333333333</ele><time>2026-04-19T08:57:22.002Z</time></trkpt><trkpt lat="44.44750403699412" lon="9.002729835365976"><ele>70.5</ele><time>2026-04-19T08:57:24.002Z</time></trkpt><trkpt lat="44.447502125553086" lon="9.002856774490802"><ele>70.66666666666667</ele><time>2026-04-19T08:57:26.002Z</time></trkpt><trkpt lat="44.4475013416105" lon="9.002980246793419"><ele>70.83333333333334</ele><time>2026-04-19T08:57:28.002Z</time></trkpt><trkpt lat="44.4475127049113" lon="9.00310514391319"><ele>71.0</ele><time>2026-04-19T08:57:30.002Z</time></trkpt><trkpt lat="44.447524313385834" lon="9.003233076727216"><ele>71.39999999999999</ele><time>2026-04-19T08:57:32.002Z</time></trkpt><trkpt lat="44.447528258322514" lon="9.003365492124201"><ele>71.8</ele><time>2026-04-19T08:57:34.002Z</time></trkpt><trkpt lat="44.44753366877744" lon="9.003498532037703"><ele>72.19999999999999</ele><time>2026-04-19T08:57:36.002Z</time></trkpt><trkpt lat="44.44753858557296" lon="9.003628823027256"><ele>72.6</ele><time>2026-04-19T08:57:38.002Z</time></trkpt><trkpt lat="44.44753037095279" lon="9.003758769885973"><ele>73.0</ele><time>2026-04-19T08:57:40.002Z</time></trkpt><trkpt lat="44.44752640079601" lon="9.003885709663033"><ele>73.0</ele><time>2026-04-19T08:57:42.002Z</time></trkpt><trkpt lat="44.447533749316364" lon="9.004010493137898"><ele>73.0</ele><time>2026-04-19T08:57:44.002Z</time></trkpt><trkpt lat="44.44755104531603" lon="9.004129800046002"><ele>73.0</ele><time>2026-04-19T08:57:46.003Z</time></trkpt><trkpt lat="44.44756444712833" lon="9.004245768613954"><ele>73.0</ele><time>2026-04-19T08:57:48.003Z</time></trkpt><trkpt lat="44.44758331246601" lon="9.004354362632315"><ele>73.0</ele><time>2026-04-19T08:57:50.003Z</time></trkpt><trkpt lat="44.447609450947525" lon="9.004470078248243"><ele>73.0</ele><time>2026-04-19T08:57:52.003Z</time></trkpt><trkpt lat="44.44763362584849" lon="9.00458188798338"><ele>73.16666666666666</ele><time>2026-04-19T08:57:54.003Z</time></trkpt><trkpt lat="44.44765899938821" lon="9.004692859964383"><ele>73.33333333333333</ele><time>2026-04-19T08:57:56.003Z</time></trkpt><trkpt lat="44.44768576159445" lon="9.004800581984812"><ele>73.5</ele><time>2026-04-19T08:57:58.003Z</time></trkpt><trkpt lat="44.447702972925065" lon="9.004903784510667"><ele>73.66666666666667</ele><time>2026-04-19T08:58:00.003Z</time></trkpt><trkpt lat="44.447729943123996" lon="9.005006350239013"><ele>73.83333333333334</ele><time>2026-04-19T08:58:02.003Z</time></trkpt><trkpt lat="44.4477519779212" lon="9.005108632040672"><ele>74.0</ele><time>2026-04-19T08:58:04.003Z</time></trkpt><trkpt lat="44.44775610403027" lon="9.005217391652312"><ele>74.16666666666667</ele><time>2026-04-19T08:58:06.003Z</time></trkpt><trkpt lat="44.44777937848831" lon="9.005324410339108"><ele>74.33333333333334</ele><time>2026-04-19T08:58:08.003Z</time></trkpt><trkpt lat="44.447801632131394" lon="9.00543867621225"><ele>74.5</ele><time>2026-04-19T08:58:10.003Z</time></trkpt><trkpt lat="44.44782521522199" lon="9.005545907644873"><ele>74.66666666666667</ele><time>2026-04-19T08:58:12.003Z</time></trkpt><trkpt lat="44.44784606475675" lon="9.005659633887417"><ele>74.83333333333333</ele><time>2026-04-19T08:58:13.999Z</time></trkpt><trkpt lat="44.44787070154347" lon="9.005766915603957"><ele>75.0</ele><time>2026-04-19T08:58:15.999Z</time></trkpt><trkpt lat="44.447900619963974" lon="9.005879801366671"><ele>75.0</ele><time>2026-04-19T08:58:17.999Z</time></trkpt><trkpt lat="44.447934065317234" lon="9.005981219290188"><ele>75.0</ele><time>2026-04-19T08:58:19.999Z</time></trkpt><trkpt lat="44.44795960159497" lon="9.006088570735098"><ele>75.0</ele><time>2026-04-19T08:58:21.999Z</time></trkpt><trkpt lat="44.447992869370275" lon="9.00619603123198"><ele>75.0</ele><time>2026-04-19T08:58:23.999Z</time></trkpt><trkpt lat="44.44802244969148" lon="9.006316503382187"><ele>75.0</ele><time>2026-04-19T08:58:25.999Z</time></trkpt><trkpt lat="44.44804122265169" lon="9.006437407444132"><ele>75.0</ele><time>2026-04-19T08:58:27.999Z</time></trkpt><trkpt lat="44.44801723096529" lon="9.006547034352533"><ele>75.33333333333333</ele><time>2026-04-19T08:58:29.999Z</time></trkpt><trkpt lat="44.447961847489815" lon="9.006636382012298"><ele>75.66666666666667</ele><time>2026-04-19T08:58:31.999Z</time></trkpt><trkpt lat="44.447899241319966" lon="9.006705354644527"><ele>76.0</ele><time>2026-04-19T08:58:33.999Z</time></trkpt><trkpt lat="44.44787342195509" lon="9.006810244567239"><ele>76.33333333333334</ele><time>2026-04-19T08:58:36Z</time></trkpt><trkpt lat="44.447902992569546" lon="9.00696178197601"><ele>76.66666666666667</ele><time>2026-04-19T08:58:38Z</time></trkpt><trkpt lat="44.44793417495294" lon="9.007085337494912"><ele>77.0</ele><time>2026-04-19T08:58:40Z</time></trkpt><trkpt lat="44.44797525329446" lon="9.007193749010947"><ele>77.28571428571429</ele><time>2026-04-19T08:58:42Z</time></trkpt><trkpt lat="44.44800424995349" lon="9.007293511589957"><ele>77.57142857142857</ele><time>2026-04-19T08:58:44Z</time></trkpt><trkpt lat="44.44803574100086" lon="9.007382931493074"><ele>77.85714285714286</ele><time>2026-04-19T08:58:46Z</time></trkpt><trkpt lat="44.448072325529274" lon="9.007470899245824"><ele>78.14285714285714</ele><time>2026-04-19T08:58:48Z</time></trkpt><trkpt lat="44.448115234002145" lon="9.007547798571357"><ele>78.42857142857143</ele><time>2026-04-19T08:58:50Z</time></trkpt><trkpt lat="44.44814634184927" lon="9.007626424149702"><ele>78.71428571428572</ele><time>2026-04-19T08:58:52Z</time></trkpt><trkpt lat="44.4482003735272" lon="9.007706907907476"><ele>79.0</ele><time>2026-04-19T08:58:55Z</time></trkpt><trkpt lat="44.44824789793083" lon="9.007771648690063"><ele>79.16666666666666</ele><time>2026-04-19T08:58:57Z</time></trkpt><trkpt lat="44.448284868209136" lon="9.007855215871443"><ele>79.33333333333333</ele><time>2026-04-19T08:58:59.001Z</time></trkpt><trkpt lat="44.448308491093975" lon="9.007943999629981"><ele>79.5</ele><time>2026-04-19T08:59:01.001Z</time></trkpt><trkpt lat="44.44833529052414" lon="9.00804137507036"><ele>79.66666666666667</ele><time>2026-04-19T08:59:03.001Z</time></trkpt><trkpt lat="44.44835719744547" lon="9.008148010851773"><ele>79.83333333333334</ele><time>2026-04-19T08:59:05.001Z</time></trkpt><trkpt lat="44.44838090572208" lon="9.008258379404891"><ele>80.0</ele><time>2026-04-19T08:59:07.001Z</time></trkpt><trkpt lat="44.44840966415666" lon="9.008366765967619"><ele>80.5</ele><time>2026-04-19T08:59:09.001Z</time></trkpt><trkpt lat="44.448425724810576" lon="9.00847873210314"><ele>81.0</ele><time>2026-04-19T08:59:11.001Z</time></trkpt><trkpt lat="44.448441635957785" lon="9.008598823845249"><ele>81.5</ele><time>2026-04-19T08:59:13.001Z</time></trkpt><trkpt lat="44.44846748589183" lon="9.00871447511141"><ele>82.0</ele><time>2026-04-19T08:59:15.001Z</time></trkpt><trkpt lat="44.448491283888934" lon="9.008828594024086"><ele>82.5</ele><time>2026-04-19T08:59:17.001Z</time></trkpt><trkpt lat="44.44851753329298" lon="9.008947811415462"><ele>83.0</ele><time>2026-04-19T08:59:19.001Z</time></trkpt><trkpt lat="44.44854506114559" lon="9.009067572997546"><ele>82.2</ele><time>2026-04-19T08:59:21.001Z</time></trkpt><trkpt lat="44.4485736619348" lon="9.009186631841152"><ele>81.4</ele><time>2026-04-19T08:59:23.001Z</time></trkpt><trkpt lat="44.44860051851819" lon="9.009310294243976"><ele>80.60000000000001</ele><time>2026-04-19T08:59:25.001Z</time></trkpt><trkpt lat="44.44863134020122" lon="9.009427669378542"><ele>79.80000000000001</ele><time>2026-04-19T08:59:27.001Z</time></trkpt><trkpt lat="44.44865433414745" lon="9.009548845006304"><ele>79.0</ele><time>2026-04-19T08:59:29.001Z</time></trkpt><trkpt lat="44.44868351157929" lon="9.00966977305249"><ele>79.0</ele><time>2026-04-19T08:59:31.002Z</time></trkpt><trkpt lat="44.44870784248839" lon="9.009798321212157"><ele>79.0</ele><time>2026-04-19T08:59:33.002Z</time></trkpt><trkpt lat="44.44872824518773" lon="9.009919682910363"><ele>79.0</ele><time>2026-04-19T08:59:35.002Z</time></trkpt><trkpt lat="44.44874939826531" lon="9.01004734844736"><ele>79.0</ele><time>2026-04-19T08:59:37.002Z</time></trkpt><trkpt lat="44.44877490930278" lon="9.010170153815558"><ele>79.0</ele><time>2026-04-19T08:59:39.002Z</time></trkpt><trkpt lat="44.44880657519571" lon="9.010294866537906"><ele>79.80000000000001</ele><time>2026-04-19T08:59:41.002Z</time></trkpt><trkpt lat="44.44883211504885" lon="9.010421401606054"><ele>80.60000000000001</ele><time>2026-04-19T08:59:43.002Z</time></trkpt><trkpt lat="44.448854038637165" lon="9.010544643953532"><ele>81.4</ele><time>2026-04-19T08:59:45.002Z</time></trkpt><trkpt lat="44.448879174873355" lon="9.01066821375373"><ele>82.2</ele><time>2026-04-19T08:59:47.002Z</time></trkpt><trkpt lat="44.448903897131565" lon="9.010791648990208"><ele>83.0</ele><time>2026-04-19T08:59:49.002Z</time></trkpt><trkpt lat="44.4489308212427" lon="9.010913304369254"><ele>83.0</ele><time>2026-04-19T08:59:51.002Z</time></trkpt><trkpt lat="44.44895313094242" lon="9.011030690915645"><ele>83.0</ele><time>2026-04-19T08:59:53.002Z</time></trkpt><trkpt lat="44.448978815178876" lon="9.01114200574404"><ele>83.0</ele><time>2026-04-19T08:59:55.002Z</time></trkpt><trkpt lat="44.44900444129226" lon="9.011244366397621"><ele>83.0</ele><time>2026-04-19T08:59:57.002Z</time></trkpt><trkpt lat="44.44902282804674" lon="9.01133652523312"><ele>83.0</ele><time>2026-04-19T08:59:59.002Z</time></trkpt><trkpt lat="44.44904348855797" lon="9.011450807333706"><ele>83.0</ele><time>2026-04-19T09:00:02.002Z</time></trkpt><trkpt lat="44.44907789044398" lon="9.011545399934699"><ele>83.33333333333334</ele><time>2026-04-19T09:00:25.999Z</time></trkpt><trkpt lat="44.4491104159615" lon="9.01167131588829"><ele>83.66666666666667</ele><time>2026-04-19T09:00:28.999Z</time></trkpt><trkpt lat="44.44913288562144" lon="9.011763450435557"><ele>84.0</ele><time>2026-04-19T09:00:30.999Z</time></trkpt><trkpt lat="44.44915742891778" lon="9.011861374653092"><ele>84.33333333333333</ele><time>2026-04-19T09:00:32.999Z</time></trkpt><trkpt lat="44.44917993583444" lon="9.011975398738945"><ele>84.66666666666666</ele><time>2026-04-19T09:00:34.999Z</time></trkpt><trkpt lat="44.44920329165148" lon="9.012083773676322"><ele>85.0</ele><time>2026-04-19T09:00:37Z</time></trkpt><trkpt lat="44.449220349669794" lon="9.012203906436488"><ele>85.0</ele><time>2026-04-19T09:00:39Z</time></trkpt><trkpt lat="44.44924880826393" lon="9.012322610904446"><ele>85.0</ele><time>2026-04-19T09:00:41Z</time></trkpt><trkpt lat="44.44927639187761" lon="9.012442990500794"><ele>85.0</ele><time>2026-04-19T09:00:43Z</time></trkpt><trkpt lat="44.44929591541165" lon="9.012568055419303"><ele>85.0</ele><time>2026-04-19T09:00:45Z</time></trkpt><trkpt lat="44.44932711251541" lon="9.012683169903584"><ele>85.0</ele><time>2026-04-19T09:00:47Z</time></trkpt><trkpt lat="44.44935118005945" lon="9.012804496174567"><ele>85.0</ele><time>2026-04-19T09:00:49Z</time></trkpt><trkpt lat="44.44937238587973" lon="9.012928267321168"><ele>84.4</ele><time>2026-04-19T09:00:51Z</time></trkpt><trkpt lat="44.44939905655741" lon="9.01305656937101"><ele>83.8</ele><time>2026-04-19T09:00:53Z</time></trkpt><trkpt lat="44.449421584752635" lon="9.013175746008594"><ele>83.19999999999999</ele><time>2026-04-19T09:00:55.001Z</time></trkpt><trkpt lat="44.449453942624096" lon="9.013299552638568"><ele>82.6</ele><time>2026-04-19T09:00:57.001Z</time></trkpt><trkpt lat="44.44948313011386" lon="9.013425683475965"><ele>82.0</ele><time>2026-04-19T09:00:59.001Z</time></trkpt><trkpt lat="44.44950947731851" lon="9.013546561824036"><ele>82.0</ele><time>2026-04-19T09:01:01.001Z</time></trkpt><trkpt lat="44.44953987885092" lon="9.013676142545007"><ele>82.0</ele><time>2026-04-19T09:01:03.001Z</time></trkpt><trkpt lat="44.44956417287108" lon="9.013805058666074"><ele>82.0</ele><time>2026-04-19T09:01:05.001Z</time></trkpt><trkpt lat="44.44959569958514" lon="9.013928897590121"><ele>82.0</ele><time>2026-04-19T09:01:07.001Z</time></trkpt><trkpt lat="44.44961782539679" lon="9.014053943426816"><ele>82.0</ele><time>2026-04-19T09:01:09.001Z</time></trkpt><trkpt lat="44.44964119166553" lon="9.014182175795487"><ele>83.6</ele><time>2026-04-19T09:01:11.001Z</time></trkpt><trkpt lat="44.44966334820242" lon="9.01431326114085"><ele>85.19999999999999</ele><time>2026-04-19T09:01:13.001Z</time></trkpt><trkpt lat="44.449685148363834" lon="9.014444042483964"><ele>86.8</ele><time>2026-04-19T09:01:15.001Z</time></trkpt><trkpt lat="44.44970622137103" lon="9.014581456249909"><ele>88.4</ele><time>2026-04-19T09:01:17.001Z</time></trkpt><trkpt lat="44.44973305143141" lon="9.014707021113237"><ele>90.0</ele><time>2026-04-19T09:01:19.001Z</time></trkpt><trkpt lat="44.449748177991914" lon="9.014841402833824"><ele>90.0</ele><time>2026-04-19T09:01:21.002Z</time></trkpt><trkpt lat="44.44976173965209" lon="9.014976614019654"><ele>90.0</ele><time>2026-04-19T09:01:23.002Z</time></trkpt><trkpt lat="44.44977594139516" lon="9.015108150503341"><ele>90.0</ele><time>2026-04-19T09:01:25.002Z</time></trkpt><trkpt lat="44.44978657587128" lon="9.01523767322249"><ele>90.0</ele><time>2026-04-19T09:01:27.002Z</time></trkpt><trkpt lat="44.44979891310315" lon="9.015369105365329"><ele>90.0</ele><time>2026-04-19T09:01:29.002Z</time></trkpt><trkpt lat="44.449808830600965" lon="9.015501750632826"><ele>90.0</ele><time>2026-04-19T09:01:31.002Z</time></trkpt><trkpt lat="44.449814417870044" lon="9.015634845035828"><ele>90.0</ele><time>2026-04-19T09:01:33.002Z</time></trkpt><trkpt lat="44.449817164263685" lon="9.01575133983237"><ele>90.0</ele><time>2026-04-19T09:01:35.002Z</time></trkpt><trkpt lat="44.4498254543121" lon="9.015873621678194"><ele>90.0</ele><time>2026-04-19T09:01:37.002Z</time></trkpt><trkpt lat="44.44983119043538" lon="9.015992059158405"><ele>90.0</ele><time>2026-04-19T09:01:39.002Z</time></trkpt><trkpt lat="44.44982546112951" lon="9.016115265731147"><ele>90.0</ele><time>2026-04-19T09:01:41.002Z</time></trkpt><trkpt lat="44.449817139613565" lon="9.016241288691994"><ele>90.0</ele><time>2026-04-19T09:01:43.002Z</time></trkpt><trkpt lat="44.449815048639664" lon="9.016366840455463"><ele>90.0</ele><time>2026-04-19T09:01:45.002Z</time></trkpt><trkpt lat="44.449802624949434" lon="9.016483927117548"><ele>90.0</ele><time>2026-04-19T09:01:47.002Z</time></trkpt><trkpt lat="44.44979553825031" lon="9.016611653808097"><ele>90.0</ele><time>2026-04-19T09:01:49.002Z</time></trkpt><trkpt lat="44.44978666846118" lon="9.016736612455473"><ele>90.0</ele><time>2026-04-19T09:01:51.002Z</time></trkpt><trkpt lat="44.44977293187178" lon="9.016855812461232"><ele>90.0</ele><time>2026-04-19T09:01:53.002Z</time></trkpt><trkpt lat="44.44976544702112" lon="9.016979817837674"><ele>90.0</ele><time>2026-04-19T09:01:55.003Z</time></trkpt><trkpt lat="44.44975075307125" lon="9.017099571909846"><ele>90.0</ele><time>2026-04-19T09:01:57.003Z</time></trkpt><trkpt lat="44.44974496001406" lon="9.017221417200806"><ele>90.0</ele><time>2026-04-19T09:01:59.003Z</time></trkpt><trkpt lat="44.449726055330174" lon="9.0173372640661"><ele>90.0</ele><time>2026-04-19T09:02:01.003Z</time></trkpt><trkpt lat="44.44972231451751" lon="9.017467265007513"><ele>90.0</ele><time>2026-04-19T09:02:03.003Z</time></trkpt><trkpt lat="44.4497193025298" lon="9.017591453686153"><ele>90.0</ele><time>2026-04-19T09:02:05.003Z</time></trkpt><trkpt lat="44.44971461784183" lon="9.017716714269781"><ele>90.2</ele><time>2026-04-19T09:02:07.003Z</time></trkpt><trkpt lat="44.44970281810557" lon="9.017844051164804"><ele>90.4</ele><time>2026-04-19T09:02:09.003Z</time></trkpt><trkpt lat="44.44968722941175" lon="9.017967893099943"><ele>90.6</ele><time>2026-04-19T09:02:11.003Z</time></trkpt><trkpt lat="44.44967519191037" lon="9.018088983262595"><ele>90.8</ele><time>2026-04-19T09:02:13.003Z</time></trkpt><trkpt lat="44.44967399914788" lon="9.018218934382224"><ele>91.0</ele><time>2026-04-19T09:02:15.003Z</time></trkpt><trkpt lat="44.44966506647124" lon="9.018350283934675"><ele>91.16666666666666</ele><time>2026-04-19T09:02:17.003Z</time></trkpt><trkpt lat="44.44965473288776" lon="9.018471226420699"><ele>91.33333333333333</ele><time>2026-04-19T09:02:19.003Z</time></trkpt><trkpt lat="44.44963469681329" lon="9.01858177826091"><ele>91.5</ele><time>2026-04-19T09:02:21.003Z</time></trkpt><trkpt lat="44.449619499907676" lon="9.018699140161809"><ele>91.66666666666667</ele><time>2026-04-19T09:02:23.003Z</time></trkpt><trkpt lat="44.44960798136368" lon="9.018815086976643"><ele>91.83333333333334</ele><time>2026-04-19T09:02:24.999Z</time></trkpt><trkpt lat="44.449617278941574" lon="9.018932267262864"><ele>92.0</ele><time>2026-04-19T09:02:26.999Z</time></trkpt><trkpt lat="44.44960717213992" lon="9.019052803610393"><ele>91.33333333333334</ele><time>2026-04-19T09:02:28.999Z</time></trkpt><trkpt lat="44.44958727251855" lon="9.019160985820664"><ele>90.66666666666667</ele><time>2026-04-19T09:02:30.999Z</time></trkpt><trkpt lat="44.44957799391315" lon="9.019274146526007"><ele>90.0</ele><time>2026-04-19T09:02:32.999Z</time></trkpt><trkpt lat="44.44957409729861" lon="9.01938676014196"><ele>89.33333333333333</ele><time>2026-04-19T09:02:34.999Z</time></trkpt><trkpt lat="44.44956420366912" lon="9.01950758575536"><ele>88.66666666666666</ele><time>2026-04-19T09:02:36.999Z</time></trkpt><trkpt lat="44.44955138874644" lon="9.019618735213369"><ele>88.0</ele><time>2026-04-19T09:02:39Z</time></trkpt><trkpt lat="44.44954051290317" lon="9.019739932246141"><ele>88.0</ele><time>2026-04-19T09:02:41Z</time></trkpt><trkpt lat="44.449530877890496" lon="9.019857173146475"><ele>88.0</ele><time>2026-04-19T09:02:43Z</time></trkpt><trkpt lat="44.449521010493804" lon="9.019974628603059"><ele>88.0</ele><time>2026-04-19T09:02:45Z</time></trkpt><trkpt lat="44.44950914693568" lon="9.020088428954743"><ele>88.0</ele><time>2026-04-19T09:02:47Z</time></trkpt><trkpt lat="44.44949811617864" lon="9.020200213332508"><ele>88.0</ele><time>2026-04-19T09:02:49Z</time></trkpt><trkpt lat="44.449478948435726" lon="9.020289298311463"><ele>88.0</ele><time>2026-04-19T09:02:51Z</time></trkpt><trkpt lat="44.44947665446168" lon="9.020412278420762"><ele>88.16666666666666</ele><time>2026-04-19T09:02:53Z</time></trkpt><trkpt lat="44.44946676429186" lon="9.020527925422627"><ele>88.33333333333333</ele><time>2026-04-19T09:02:55Z</time></trkpt><trkpt lat="44.44946047974223" lon="9.020647045540128"><ele>88.5</ele><time>2026-04-19T09:02:57Z</time></trkpt><trkpt lat="44.449445553548045" lon="9.020776197847074"><ele>88.66666666666667</ele><time>2026-04-19T09:02:59Z</time></trkpt><trkpt lat="44.449429630887515" lon="9.020893538162543"><ele>88.83333333333334</ele><time>2026-04-19T09:03:01.001Z</time></trkpt><trkpt lat="44.449423134343576" lon="9.02101926133784"><ele>89.0</ele><time>2026-04-19T09:03:03.001Z</time></trkpt><trkpt lat="44.449400530906985" lon="9.021135592228141"><ele>89.0</ele><time>2026-04-19T09:03:05.001Z</time></trkpt><trkpt lat="44.449393109331226" lon="9.021233745425178"><ele>89.0</ele><time>2026-04-19T09:03:07.001Z</time></trkpt><trkpt lat="44.449387724222845" lon="9.021345631927582"><ele>89.0</ele><time>2026-04-19T09:03:09.001Z</time></trkpt><trkpt lat="44.449379424161506" lon="9.021460503268468"><ele>89.0</ele><time>2026-04-19T09:03:11.001Z</time></trkpt><trkpt lat="44.44936873669854" lon="9.021566751496508"><ele>89.0</ele><time>2026-04-19T09:03:13.001Z</time></trkpt><trkpt lat="44.44936336937132" lon="9.021679564217239"><ele>89.0</ele><time>2026-04-19T09:03:15.001Z</time></trkpt><trkpt lat="44.44936036174773" lon="9.02179498462338"><ele>89.16666666666667</ele><time>2026-04-19T09:03:17.001Z</time></trkpt><trkpt lat="44.44934667714741" lon="9.021903889890446"><ele>89.33333333333334</ele><time>2026-04-19T09:03:19.001Z</time></trkpt><trkpt lat="44.449334006999074" lon="9.02201771701427"><ele>89.5</ele><time>2026-04-19T09:03:21.001Z</time></trkpt><trkpt lat="44.44933024446005" lon="9.02213189798912"><ele>89.66666666666667</ele><time>2026-04-19T09:03:23.001Z</time></trkpt><trkpt lat="44.449318758481624" lon="9.022243560250722"><ele>89.83333333333333</ele><time>2026-04-19T09:03:25.001Z</time></trkpt><trkpt lat="44.449311070367905" lon="9.022354882246827"><ele>90.0</ele><time>2026-04-19T09:03:27.001Z</time></trkpt><trkpt lat="44.449296706128656" lon="9.022470967231925"><ele>90.83333333333333</ele><time>2026-04-19T09:03:29.001Z</time></trkpt><trkpt lat="44.449293275905916" lon="9.022586574597035"><ele>91.66666666666667</ele><time>2026-04-19T09:03:31.002Z</time></trkpt><trkpt lat="44.4492852019937" lon="9.02270233182888"><ele>92.5</ele><time>2026-04-19T09:03:33.002Z</time></trkpt><trkpt lat="44.44927793702686" lon="9.022817698116084"><ele>93.33333333333334</ele><time>2026-04-19T09:03:35.002Z</time></trkpt><trkpt lat="44.44926983325179" lon="9.022930545609071"><ele>94.16666666666667</ele><time>2026-04-19T09:03:37.002Z</time></trkpt><trkpt lat="44.449263138519214" lon="9.023044328245073"><ele>95.0</ele><time>2026-04-19T09:03:39.002Z</time></trkpt><trkpt lat="44.44925150082781" lon="9.023153456765767"><ele>95.0</ele><time>2026-04-19T09:03:41.002Z</time></trkpt><trkpt lat="44.449244466469764" lon="9.023269032602144"><ele>95.0</ele><time>2026-04-19T09:03:43.002Z</time></trkpt><trkpt lat="44.44924093738553" lon="9.023387905886379"><ele>95.0</ele><time>2026-04-19T09:03:45.002Z</time></trkpt><trkpt lat="44.449232661284206" lon="9.023508487303282"><ele>95.0</ele><time>2026-04-19T09:03:47.002Z</time></trkpt><trkpt lat="44.44922392687402" lon="9.023631011647456"><ele>95.0</ele><time>2026-04-19T09:03:49.002Z</time></trkpt><trkpt lat="44.449215442783974" lon="9.023745334112217"><ele>95.0</ele><time>2026-04-19T09:03:51.002Z</time></trkpt><trkpt lat="44.44920956927012" lon="9.023863672017074"><ele>96.0</ele><time>2026-04-19T09:03:53.002Z</time></trkpt><trkpt lat="44.44920773515664" lon="9.023978898965677"><ele>97.0</ele><time>2026-04-19T09:03:55.002Z</time></trkpt><trkpt lat="44.44921688106603" lon="9.02409318438198"><ele>98.0</ele><time>2026-04-19T09:03:57.002Z</time></trkpt><trkpt lat="44.449231969065785" lon="9.024205636400671"><ele>99.0</ele><time>2026-04-19T09:03:59.002Z</time></trkpt><trkpt lat="44.44925879210161" lon="9.024305611549513"><ele>99.99999999999999</ele><time>2026-04-19T09:04:01.002Z</time></trkpt><trkpt lat="44.449300863259964" lon="9.024400236667796"><ele>101.0</ele><time>2026-04-19T09:04:03.003Z</time></trkpt><trkpt lat="44.449352019020786" lon="9.024467695434849"><ele>101.0</ele><time>2026-04-19T09:04:05.003Z</time></trkpt><trkpt lat="44.44940703354533" lon="9.024519020227485"><ele>101.0</ele><time>2026-04-19T09:04:07.003Z</time></trkpt><trkpt lat="44.449480584373276" lon="9.02456826769338"><ele>101.0</ele><time>2026-04-19T09:04:09.003Z</time></trkpt><trkpt lat="44.44954062812561" lon="9.024617624200229"><ele>101.0</ele><time>2026-04-19T09:04:11.003Z</time></trkpt><trkpt lat="44.44960423409786" lon="9.024664429317312"><ele>101.0</ele><time>2026-04-19T09:04:13.003Z</time></trkpt><trkpt lat="44.449667698462584" lon="9.02470487019573"><ele>101.0</ele><time>2026-04-19T09:04:15.003Z</time></trkpt><trkpt lat="44.44973274010329" lon="9.024742195998959"><ele>101.0</ele><time>2026-04-19T09:04:17.003Z</time></trkpt><trkpt lat="44.449796577855324" lon="9.024792210714038"><ele>101.0</ele><time>2026-04-19T09:04:19.003Z</time></trkpt><trkpt lat="44.4498566075052" lon="9.024850737307377"><ele>101.0</ele><time>2026-04-19T09:04:21.003Z</time></trkpt><trkpt lat="44.44991487439104" lon="9.024903999610478"><ele>101.0</ele><time>2026-04-19T09:04:23.003Z</time></trkpt><trkpt lat="44.44997329482199" lon="9.024965619261451"><ele>101.0</ele><time>2026-04-19T09:04:25.003Z</time></trkpt><trkpt lat="44.45003251420326" lon="9.025018272236554"><ele>101.0</ele><time>2026-04-19T09:04:27.003Z</time></trkpt><trkpt lat="44.45008453240851" lon="9.025099675263048"><ele>101.0</ele><time>2026-04-19T09:04:29.003Z</time></trkpt><trkpt lat="44.45013370650478" lon="9.025171156275409"><ele>101.0</ele><time>2026-04-19T09:04:30.999Z</time></trkpt><trkpt lat="44.45017019972983" lon="9.025258937932247"><ele>101.57142857142857</ele><time>2026-04-19T09:04:32.999Z</time></trkpt><trkpt lat="44.45020488649629" lon="9.025347344456748"><ele>102.14285714285714</ele><time>2026-04-19T09:04:34.999Z</time></trkpt><trkpt lat="44.450230933872106" lon="9.025439063416972"><ele>102.71428571428572</ele><time>2026-04-19T09:04:36.999Z</time></trkpt><trkpt lat="44.45023307240945" lon="9.0255298761534"><ele>103.28571428571428</ele><time>2026-04-19T09:04:38.999Z</time></trkpt><trkpt lat="44.45021972679531" lon="9.025618650056686"><ele>103.85714285714286</ele><time>2026-04-19T09:04:40.999Z</time></trkpt><trkpt lat="44.450181184796655" lon="9.025697499673104"><ele>104.42857142857143</ele><time>2026-04-19T09:04:42.999Z</time></trkpt><trkpt lat="44.45013071969909" lon="9.025778996890802"><ele>105.0</ele><time>2026-04-19T09:04:44.999Z</time></trkpt><trkpt lat="44.450069963992725" lon="9.025851349399499"><ele>106.16666666666667</ele><time>2026-04-19T09:04:47Z</time></trkpt><trkpt lat="44.45001204028045" lon="9.025933042409912"><ele>107.33333333333334</ele><time>2026-04-19T09:04:49Z</time></trkpt><trkpt lat="44.44995145768534" lon="9.025994395022783"><ele>108.5</ele><time>2026-04-19T09:04:51Z</time></trkpt><trkpt lat="44.44988370891294" lon="9.026044810783059"><ele>109.66666666666667</ele><time>2026-04-19T09:04:53Z</time></trkpt><trkpt lat="44.44981263093653" lon="9.026097747368716"><ele>110.83333333333334</ele><time>2026-04-19T09:04:56Z</time></trkpt><trkpt lat="44.44975503412912" lon="9.026176689433262"><ele>112.0</ele><time>2026-04-19T09:04:59Z</time></trkpt><trkpt lat="44.449681075243085" lon="9.026252275561115"><ele>116.83333333333334</ele><time>2026-04-19T09:05:02Z</time></trkpt><trkpt lat="44.44961784431492" lon="9.026337750692425"><ele>121.66666666666667</ele><time>2026-04-19T09:05:05.001Z</time></trkpt><trkpt lat="44.449552012814564" lon="9.026414208550266"><ele>126.5</ele><time>2026-04-19T09:05:08.001Z</time></trkpt><trkpt lat="44.44951049568237" lon="9.02652050792269"><ele>131.33333333333334</ele><time>2026-04-19T09:05:11.001Z</time></trkpt><trkpt lat="44.44947673873123" lon="9.026608557385655"><ele>136.16666666666666</ele><time>2026-04-19T09:05:14.001Z</time></trkpt><trkpt lat="44.449454813995665" lon="9.026708371355813"><ele>141.0</ele><time>2026-04-19T09:05:17.001Z</time></trkpt><trkpt lat="44.449451876421044" lon="9.026805217023867"><ele>141.0</ele><time>2026-04-19T09:05:20.001Z</time></trkpt><trkpt lat="44.44949408026622" lon="9.026883281227258"><ele>141.0</ele><time>2026-04-19T09:09:08Z</time></trkpt><trkpt lat="44.44953836668269" lon="9.026945969618614"><ele>141.0</ele><time>2026-04-19T09:09:12Z</time></trkpt><trkpt lat="44.44955637094411" lon="9.027031321451371"><ele>141.0</ele><time>2026-04-19T09:09:18.001Z</time></trkpt><trkpt lat="44.44959718783398" lon="9.027131442378614"><ele>141.0</ele><time>2026-04-19T09:09:21.001Z</time></trkpt><trkpt lat="44.44963280971518" lon="9.02721089648476"><ele>141.0</ele><time>2026-04-19T09:09:23.001Z</time></trkpt><trkpt lat="44.44970733854501" lon="9.02728317863011"><ele>141.0</ele><time>2026-04-19T09:09:26.001Z</time></trkpt><trkpt lat="44.44976767223587" lon="9.027357885430296"><ele>137.0</ele><time>2026-04-19T09:09:29.001Z</time></trkpt><trkpt lat="44.44982140163778" lon="9.027414142629667"><ele>133.0</ele><time>2026-04-19T09:09:32.001Z</time></trkpt><trkpt lat="44.4498586023611" lon="9.027526200740825"><ele>129.0</ele><time>2026-04-19T09:09:36.001Z</time></trkpt><trkpt lat="44.44991606997946" lon="9.027595446837552"><ele>125.0</ele><time>2026-04-19T09:09:38.001Z</time></trkpt><trkpt lat="44.44998225819581" lon="9.027652282691097"><ele>121.0</ele><time>2026-04-19T09:09:40.001Z</time></trkpt><trkpt lat="44.45004493034659" lon="9.02771113561859"><ele>117.0</ele><time>2026-04-19T09:09:42.001Z</time></trkpt><trkpt lat="44.45011549700999" lon="9.027756383079252"><ele>117.0</ele><time>2026-04-19T09:09:44.001Z</time></trkpt><trkpt lat="44.45019211760469" lon="9.02781087727794"><ele>117.0</ele><time>2026-04-19T09:09:46.001Z</time></trkpt><trkpt lat="44.450255856050326" lon="9.027863383568178"><ele>117.0</ele><time>2026-04-19T09:09:48.001Z</time></trkpt><trkpt lat="44.45032719690444" lon="9.027918258033111"><ele>117.0</ele><time>2026-04-19T09:09:50.002Z</time></trkpt><trkpt lat="44.45039906918569" lon="9.02796880061659"><ele>117.0</ele><time>2026-04-19T09:09:52.002Z</time></trkpt><trkpt lat="44.45046923143254" lon="9.028032548964667"><ele>117.0</ele><time>2026-04-19T09:09:54.002Z</time></trkpt><trkpt lat="44.450539931021254" lon="9.028093490071432"><ele>116.8</ele><time>2026-04-19T09:09:56.002Z</time></trkpt><trkpt lat="44.450618508207924" lon="9.0281697304259"><ele>116.6</ele><time>2026-04-19T09:09:58.002Z</time></trkpt><trkpt lat="44.450690223448234" lon="9.02826221009956"><ele>116.39999999999999</ele><time>2026-04-19T09:10:00.002Z</time></trkpt><trkpt lat="44.45075446415865" lon="9.02836044246499"><ele>116.19999999999999</ele><time>2026-04-19T09:10:02.002Z</time></trkpt><trkpt lat="44.45081680899971" lon="9.0284641437377"><ele>116.0</ele><time>2026-04-19T09:10:04.002Z</time></trkpt><trkpt lat="44.45085207505896" lon="9.028590081949734"><ele>115.99999999999999</ele><time>2026-04-19T09:10:06.002Z</time></trkpt><trkpt lat="44.450855640151836" lon="9.028721175895003"><ele>116.0</ele><time>2026-04-19T09:10:08.002Z</time></trkpt><trkpt lat="44.45082531278319" lon="9.028831744073878"><ele>116.0</ele><time>2026-04-19T09:10:10.002Z</time></trkpt><trkpt lat="44.45079797087939" lon="9.028929403574887"><ele>116.0</ele><time>2026-04-19T09:10:12.002Z</time></trkpt><trkpt lat="44.45074681334204" lon="9.029012131698195"><ele>115.99999999999999</ele><time>2026-04-19T09:10:14.002Z</time></trkpt><trkpt lat="44.45068917138767" lon="9.02910481820519"><ele>116.0</ele><time>2026-04-19T09:10:16.002Z</time></trkpt><trkpt lat="44.45064751444744" lon="9.029196547339467"><ele>114.6</ele><time>2026-04-19T09:10:18.002Z</time></trkpt><trkpt lat="44.450593175486" lon="9.029292726596154"><ele>113.19999999999999</ele><time>2026-04-19T09:10:20.002Z</time></trkpt><trkpt lat="44.45055753314244" lon="9.029384328942085"><ele>111.80000000000001</ele><time>2026-04-19T09:10:21.002Z</time></trkpt><trkpt lat="44.45047285713488" lon="9.029469259335565"><ele>110.4</ele><time>2026-04-19T09:10:24.002Z</time></trkpt><trkpt lat="44.45040915313143" lon="9.029600147524278"><ele>109.0</ele><time>2026-04-19T09:10:26.003Z</time></trkpt><trkpt lat="44.45034939975695" lon="9.029687168624092"><ele>114.50000000000001</ele><time>2026-04-19T09:10:28.003Z</time></trkpt><trkpt lat="44.45029126675839" lon="9.029785564256779"><ele>120.0</ele><time>2026-04-19T09:10:30.003Z</time></trkpt><trkpt lat="44.450265038723174" lon="9.029870559497681"><ele>125.5</ele><time>2026-04-19T09:10:32.003Z</time></trkpt><trkpt lat="44.450227825452295" lon="9.029964987321808"><ele>131.0</ele><time>2026-04-19T09:10:34.003Z</time></trkpt><trkpt lat="44.45020287221837" lon="9.030077403750692"><ele>136.5</ele><time>2026-04-19T09:10:36.003Z</time></trkpt><trkpt lat="44.450185412828475" lon="9.030182946445064"><ele>142.0</ele><time>2026-04-19T09:10:38.003Z</time></trkpt><trkpt lat="44.45017652501704" lon="9.030308821186157"><ele>142.0</ele><time>2026-04-19T09:10:40.003Z</time></trkpt><trkpt lat="44.45017186527646" lon="9.030414796071996"><ele>142.0</ele><time>2026-04-19T09:10:42.003Z</time></trkpt><trkpt lat="44.4501793621095" lon="9.030526032194244"><ele>142.0</ele><time>2026-04-19T09:10:44.003Z</time></trkpt><trkpt lat="44.45018413707" lon="9.030630264310641"><ele>142.0</ele><time>2026-04-19T09:10:46.003Z</time></trkpt><trkpt lat="44.4502087063155" lon="9.030736544590033"><ele>142.0</ele><time>2026-04-19T09:10:48.003Z</time></trkpt><trkpt lat="44.450230466316015" lon="9.030833631777368"><ele>142.0</ele><time>2026-04-19T09:10:49.999Z</time></trkpt><trkpt lat="44.45025404865071" lon="9.030916412076255"><ele>142.0</ele><time>2026-04-19T09:10:52Z</time></trkpt><trkpt lat="44.45028425513809" lon="9.031005057384649"><ele>142.66666666666669</ele><time>2026-04-19T09:10:54Z</time></trkpt><trkpt lat="44.45032411772511" lon="9.031125960111442"><ele>143.33333333333334</ele><time>2026-04-19T09:10:57Z</time></trkpt><trkpt lat="44.45038267446606" lon="9.031200560035577"><ele>144.0</ele><time>2026-04-19T09:11:00Z</time></trkpt><trkpt lat="44.45044196639637" lon="9.031278180924978"><ele>144.66666666666666</ele><time>2026-04-19T09:11:03Z</time></trkpt><trkpt lat="44.450516186474545" lon="9.031363765977028"><ele>145.33333333333331</ele><time>2026-04-19T09:11:06Z</time></trkpt><trkpt lat="44.450569840655696" lon="9.031422152194153"><ele>146.0</ele><time>2026-04-19T09:11:08Z</time></trkpt><trkpt lat="44.450648639257366" lon="9.031506079247375"><ele>142.5</ele><time>2026-04-19T09:11:11Z</time></trkpt><trkpt lat="44.45072894950775" lon="9.031566040247554"><ele>139.0</ele><time>2026-04-19T09:11:14Z</time></trkpt><trkpt lat="44.45079544250136" lon="9.031637487791576"><ele>135.5</ele><time>2026-04-19T09:11:17Z</time></trkpt><trkpt lat="44.45085239462588" lon="9.03169045222186"><ele>132.0</ele><time>2026-04-19T09:11:19Z</time></trkpt><trkpt lat="44.45092868483153" lon="9.03175485937918"><ele>128.5</ele><time>2026-04-19T09:11:22Z</time></trkpt><trkpt lat="44.451006293441864" lon="9.031818378650016"><ele>125.0</ele><time>2026-04-19T09:11:25.001Z</time></trkpt><trkpt lat="44.45106174191114" lon="9.031867041042915"><ele>124.66666666666666</ele><time>2026-04-19T09:11:27.001Z</time></trkpt><trkpt lat="44.45113207039349" lon="9.031953161757084"><ele>124.33333333333333</ele><time>2026-04-19T09:11:30.001Z</time></trkpt><trkpt lat="44.45118438045316" lon="9.032012379315155"><ele>124.0</ele><time>2026-04-19T09:11:32.001Z</time></trkpt><trkpt lat="44.45123458773061" lon="9.032074721051623"><ele>123.66666666666666</ele><time>2026-04-19T09:11:34.001Z</time></trkpt><trkpt lat="44.451296673885395" lon="9.032162564085096"><ele>123.33333333333333</ele><time>2026-04-19T09:11:37.001Z</time></trkpt><trkpt lat="44.4513471504962" lon="9.032262153795449"><ele>123.0</ele><time>2026-04-19T09:11:40.001Z</time></trkpt><trkpt lat="44.451371061047446" lon="9.032364819913417"><ele>123.66666666666667</ele><time>2026-04-19T09:11:43.001Z</time></trkpt><trkpt lat="44.45138164777139" lon="9.03247552025461"><ele>124.33333333333334</ele><time>2026-04-19T09:11:46.001Z</time></trkpt><trkpt lat="44.4513806759725" lon="9.032587543628281"><ele>125.0</ele><time>2026-04-19T09:11:49.001Z</time></trkpt><trkpt lat="44.45134041460271" lon="9.032690021965676"><ele>125.66666666666667</ele><time>2026-04-19T09:11:52.001Z</time></trkpt><trkpt lat="44.45129813343816" lon="9.032756710861714"><ele>126.33333333333334</ele><time>2026-04-19T09:11:54.001Z</time></trkpt><trkpt lat="44.451224519492754" lon="9.032835599237858"><ele>127.0</ele><time>2026-04-19T09:11:57.002Z</time></trkpt><trkpt lat="44.451148600811884" lon="9.032892026044042"><ele>127.00000000000001</ele><time>2026-04-19T09:12:00.002Z</time></trkpt><trkpt lat="44.45106515292744" lon="9.032933471198278"><ele>127.0</ele><time>2026-04-19T09:12:03.002Z</time></trkpt><trkpt lat="44.45098042328648" lon="9.032966571440713"><ele>127.0</ele><time>2026-04-19T09:12:06.002Z</time></trkpt><trkpt lat="44.45089325625779" lon="9.03298626491823"><ele>127.0</ele><time>2026-04-19T09:12:09.002Z</time></trkpt><trkpt lat="44.450813122050945" lon="9.033016094598363"><ele>127.00000000000001</ele><time>2026-04-19T09:12:12.002Z</time></trkpt><trkpt lat="44.45074372450973" lon="9.033019284508997"><ele>127.0</ele><time>2026-04-19T09:12:15.002Z</time></trkpt><trkpt lat="44.450663808576074" lon="9.033061816015444"><ele>127.00000000000001</ele><time>2026-04-19T09:12:18.002Z</time></trkpt><trkpt lat="44.45059303397352" lon="9.033090474758374"><ele>127.0</ele><time>2026-04-19T09:12:21.002Z</time></trkpt><trkpt lat="44.450557667587255" lon="9.033192257392352"><ele>127.0</ele><time>2026-04-19T09:12:56Z</time></trkpt><trkpt lat="44.45056641600207" lon="9.033298505887332"><ele>127.0</ele><time>2026-04-19T09:12:59Z</time></trkpt><trkpt lat="44.450570619285415" lon="9.033386637667885"><ele>127.00000000000001</ele><time>2026-04-19T09:13:02Z</time></trkpt><trkpt lat="44.450593961583074" lon="9.033492695269782"><ele>127.0</ele><time>2026-04-19T09:14:38.003Z</time></trkpt><trkpt lat="44.450605388091574" lon="9.033602055115823"><ele>128.28571428571428</ele><time>2026-04-19T09:14:42.003Z</time></trkpt><trkpt lat="44.450622229227704" lon="9.033703039893522"><ele>129.57142857142856</ele><time>2026-04-19T09:14:45.003Z</time></trkpt><trkpt lat="44.450637439617466" lon="9.033808860106797"><ele>130.85714285714283</ele><time>2026-04-19T09:14:48.003Z</time></trkpt><trkpt lat="44.450611569916035" lon="9.033920226387352"><ele>132.14285714285714</ele><time>2026-04-19T09:14:51.003Z</time></trkpt><trkpt lat="44.4505405108638" lon="9.033969026476361"><ele>133.42857142857142</ele><time>2026-04-19T09:14:54.003Z</time></trkpt><trkpt lat="44.450479993461805" lon="9.034012193938766"><ele>134.7142857142857</ele><time>2026-04-19T09:14:57.003Z</time></trkpt><trkpt lat="44.4504201368956" lon="9.034053041587201"><ele>136.0</ele><time>2026-04-19T09:15:00.003Z</time></trkpt><trkpt lat="44.45035625851562" lon="9.034078043547371"><ele>135.99999999999997</ele><time>2026-04-19T09:15:03Z</time></trkpt><trkpt lat="44.450286849978795" lon="9.034133183827812"><ele>136.0</ele><time>2026-04-19T09:15:07Z</time></trkpt><trkpt lat="44.45023057046496" lon="9.034192541613216"><ele>136.0</ele><time>2026-04-19T09:15:10Z</time></trkpt><trkpt lat="44.45019011930671" lon="9.034280639091419"><ele>136.0</ele><time>2026-04-19T09:15:13Z</time></trkpt><trkpt lat="44.4501466239833" lon="9.03435857495909"><ele>136.0</ele><time>2026-04-19T09:15:16Z</time></trkpt><trkpt lat="44.45009844426732" lon="9.034427140562308"><ele>135.99999999999997</ele><time>2026-04-19T09:15:19Z</time></trkpt><trkpt lat="44.45004480619703" lon="9.034489535879253"><ele>136.0</ele><time>2026-04-19T09:15:22Z</time></trkpt><trkpt lat="44.4500038584945" lon="9.034567083550245"><ele>135.85714285714283</ele><time>2026-04-19T09:15:25Z</time></trkpt><trkpt lat="44.44996283502012" lon="9.034650099454344"><ele>135.71428571428572</ele><time>2026-04-19T09:15:28Z</time></trkpt><trkpt lat="44.44992535752372" lon="9.034733396042085"><ele>135.57142857142856</ele><time>2026-04-19T09:15:31Z</time></trkpt><trkpt lat="44.44990089652508" lon="9.034827667652433"><ele>135.42857142857142</ele><time>2026-04-19T09:15:34.001Z</time></trkpt><trkpt lat="44.4498812895093" lon="9.034918795674969"><ele>135.28571428571428</ele><time>2026-04-19T09:15:37.001Z</time></trkpt><trkpt lat="44.44986559346541" lon="9.03503516236472"><ele>135.14285714285714</ele><time>2026-04-19T09:15:41.001Z</time></trkpt><trkpt lat="44.449871792041634" lon="9.03513010850615"><ele>135.0</ele><time>2026-04-19T09:15:44.001Z</time></trkpt><trkpt lat="44.449880054532265" lon="9.035221937681527"><ele>135.0</ele><time>2026-04-19T09:15:47.001Z</time></trkpt><trkpt lat="44.44988313396758" lon="9.035321931904939"><ele>135.0</ele><time>2026-04-19T09:15:50.001Z</time></trkpt><trkpt lat="44.449883884384775" lon="9.035415900615831"><ele>135.0</ele><time>2026-04-19T09:15:53.001Z</time></trkpt><trkpt lat="44.44987053972258" lon="9.035507319578656"><ele>135.0</ele><time>2026-04-19T09:15:56.001Z</time></trkpt><trkpt lat="44.449850581764125" lon="9.035618035568898"><ele>135.0</ele><time>2026-04-19T09:16:00.001Z</time></trkpt><trkpt lat="44.44983317860562" lon="9.03572873786586"><ele>135.0</ele><time>2026-04-19T09:16:04.001Z</time></trkpt><trkpt lat="44.44981701767189" lon="9.035841102847229"><ele>135.0</ele><time>2026-04-19T09:16:08.001Z</time></trkpt><trkpt lat="44.44979854818383" lon="9.03594975982983"><ele>136.14285714285714</ele><time>2026-04-19T09:16:12.001Z</time></trkpt><trkpt lat="44.44978893437892" lon="9.036038528067223"><ele>137.28571428571428</ele><time>2026-04-19T09:16:15.002Z</time></trkpt><trkpt lat="44.449801164567255" lon="9.036135651085733"><ele>138.42857142857142</ele><time>2026-04-19T09:16:18.002Z</time></trkpt><trkpt lat="44.44984913909734" lon="9.03619633469862"><ele>139.57142857142856</ele><time>2026-04-19T09:16:21.002Z</time></trkpt><trkpt lat="44.44992280394931" lon="9.036196258254666"><ele>140.71428571428572</ele><time>2026-04-19T09:16:24.002Z</time></trkpt><trkpt lat="44.449982070287355" lon="9.03612583230112"><ele>141.85714285714283</ele><time>2026-04-19T09:16:27.002Z</time></trkpt><trkpt lat="44.44999971607051" lon="9.036018474531602"><ele>143.0</ele><time>2026-04-19T09:16:30.002Z</time></trkpt><trkpt lat="44.449987449921" lon="9.035917278450738"><ele>142.99999999999997</ele><time>2026-04-19T09:16:33.002Z</time></trkpt><trkpt lat="44.449986437844814" lon="9.035822465817137"><ele>143.0</ele><time>2026-04-19T09:16:36.002Z</time></trkpt><trkpt lat="44.450001446189745" lon="9.035726495637444"><ele>143.0</ele><time>2026-04-19T09:16:39.002Z</time></trkpt><trkpt lat="44.450029275988044" lon="9.035637917009128"><ele>143.0</ele><time>2026-04-19T09:16:42.002Z</time></trkpt><trkpt lat="44.45004520406636" lon="9.035541993678246"><ele>143.0</ele><time>2026-04-19T09:16:45.002Z</time></trkpt><trkpt lat="44.45005191149433" lon="9.035445605393495"><ele>142.99999999999997</ele><time>2026-04-19T09:16:48.002Z</time></trkpt><trkpt lat="44.45006142256445" lon="9.035356465483966"><ele>143.0</ele><time>2026-04-19T09:16:51.003Z</time></trkpt><trkpt lat="44.45006315437853" lon="9.03526170397131"><ele>141.85714285714283</ele><time>2026-04-19T09:16:54.003Z</time></trkpt><trkpt lat="44.45006889845583" lon="9.035159116316969"><ele>140.71428571428572</ele><time>2026-04-19T09:16:58.003Z</time></trkpt><trkpt lat="44.450076534330655" lon="9.03506671533479"><ele>139.57142857142856</ele><time>2026-04-19T09:17:01.003Z</time></trkpt><trkpt lat="44.45009437186227" lon="9.034957578254188"><ele>138.42857142857142</ele><time>2026-04-19T09:17:05.003Z</time></trkpt><trkpt lat="44.450112272187454" lon="9.034863906396112"><ele>137.28571428571428</ele><time>2026-04-19T09:17:07.999Z</time></trkpt><trkpt lat="44.45015599823095" lon="9.03476792679073"><ele>136.14285714285714</ele><time>2026-04-19T09:17:12Z</time></trkpt><trkpt lat="44.45020015331089" lon="9.034693054345352"><ele>135.0</ele><time>2026-04-19T09:17:15Z</time></trkpt><trkpt lat="44.45024485355931" lon="9.034626525943414"><ele>134.42857142857142</ele><time>2026-04-19T09:17:18Z</time></trkpt><trkpt lat="44.45029625914736" lon="9.03456435927082"><ele>133.85714285714283</ele><time>2026-04-19T09:17:21Z</time></trkpt><trkpt lat="44.450336095675844" lon="9.03449326200076"><ele>133.28571428571428</ele><time>2026-04-19T09:17:24Z</time></trkpt><trkpt lat="44.45037308198108" lon="9.034407406339339"><ele>132.71428571428572</ele><time>2026-04-19T09:17:28Z</time></trkpt><trkpt lat="44.45042487250225" lon="9.03435005996644"><ele>132.14285714285717</ele><time>2026-04-19T09:17:32Z</time></trkpt><trkpt lat="44.45048396870883" lon="9.03431013567086"><ele>131.57142857142858</ele><time>2026-04-19T09:19:20Z</time></trkpt><trkpt lat="44.450565732131224" lon="9.034282716188487"><ele>131.0</ele><time>2026-04-19T09:19:25Z</time></trkpt><trkpt lat="44.450647481484744" lon="9.034302045687863"><ele>131.0</ele><time>2026-04-19T09:19:28Z</time></trkpt><trkpt lat="44.45074895962228" lon="9.034355684261289"><ele>131.0</ele><time>2026-04-19T09:19:30Z</time></trkpt><trkpt lat="44.450808305869515" lon="9.0344338951758"><ele>131.0</ele><time>2026-04-19T09:19:32Z</time></trkpt><trkpt lat="44.450851426034895" lon="9.034547032829204"><ele>131.0</ele><time>2026-04-19T09:19:34Z</time></trkpt><trkpt lat="44.45087382049946" lon="9.034455002418996"><ele>131.0</ele><time>2026-04-19T09:19:41Z</time></trkpt><trkpt lat="44.45093999469975" lon="9.034351410253198"><ele>131.0</ele><time>2026-04-19T09:19:45Z</time></trkpt><trkpt lat="44.4510325717952" lon="9.03434952124905"><ele>131.0</ele><time>2026-04-19T09:19:47.001Z</time></trkpt><trkpt lat="44.451124897118746" lon="9.034316671969107"><ele>131.0</ele><time>2026-04-19T09:19:50.001Z</time></trkpt><trkpt lat="44.4511941308274" lon="9.034280540006502"><ele>131.0</ele><time>2026-04-19T09:19:52.001Z</time></trkpt><trkpt lat="44.45125862181094" lon="9.034261261781252"><ele>131.0</ele><time>2026-04-19T09:19:54.001Z</time></trkpt><trkpt lat="44.45132287180872" lon="9.03423244919713"><ele>131.0</ele><time>2026-04-19T09:19:56.001Z</time></trkpt><trkpt lat="44.45138899722899" lon="9.034209155982625"><ele>131.66666666666666</ele><time>2026-04-19T09:19:58.001Z</time></trkpt><trkpt lat="44.451478376852656" lon="9.034178735018633"><ele>132.33333333333331</ele><time>2026-04-19T09:20:01.001Z</time></trkpt><trkpt lat="44.45156370131484" lon="9.034145185719307"><ele>133.0</ele><time>2026-04-19T09:20:04.001Z</time></trkpt><trkpt lat="44.45162708602252" lon="9.034127550506001"><ele>133.66666666666666</ele><time>2026-04-19T09:20:07.001Z</time></trkpt><trkpt lat="44.451701843769364" lon="9.034109604405495"><ele>134.33333333333334</ele><time>2026-04-19T09:20:10.001Z</time></trkpt><trkpt lat="44.45177693091202" lon="9.034075998001608"><ele>135.0</ele><time>2026-04-19T09:20:14.001Z</time></trkpt><trkpt lat="44.451844578017344" lon="9.034052934177009"><ele>133.0</ele><time>2026-04-19T09:20:17.001Z</time></trkpt><trkpt lat="44.45188467354506" lon="9.033968110987708"><ele>131.0</ele><time>2026-04-19T09:20:21.002Z</time></trkpt><trkpt lat="44.451904237207295" lon="9.033882671227207"><ele>129.0</ele><time>2026-04-19T09:20:25.002Z</time></trkpt><trkpt lat="44.45193963235168" lon="9.033797232487517"><ele>127.0</ele><time>2026-04-19T09:20:28.002Z</time></trkpt><trkpt lat="44.45197950018637" lon="9.033709798347374"><ele>124.99999999999999</ele><time>2026-04-19T09:20:31.002Z</time></trkpt><trkpt lat="44.45201037630595" lon="9.033631075406126"><ele>123.0</ele><time>2026-04-19T09:20:34.002Z</time></trkpt><trkpt lat="44.45204930096231" lon="9.033546415684853"><ele>121.0</ele><time>2026-04-19T09:20:37.002Z</time></trkpt><trkpt lat="44.45210420656335" lon="9.03349115218073"><ele>128.33333333333334</ele><time>2026-04-19T09:20:40.002Z</time></trkpt><trkpt lat="44.45215386076629" lon="9.033414194429927"><ele>135.66666666666669</ele><time>2026-04-19T09:20:43.002Z</time></trkpt><trkpt lat="44.45218644920641" lon="9.03332830847777"><ele>143.0</ele><time>2026-04-19T09:20:46.002Z</time></trkpt><trkpt lat="44.452229131922074" lon="9.033238710970343"><ele>150.33333333333334</ele><time>2026-04-19T09:20:50.002Z</time></trkpt><trkpt lat="44.45227352115097" lon="9.033136180507189"><ele>157.66666666666666</ele><time>2026-04-19T09:20:54.003Z</time></trkpt><trkpt lat="44.45230508270374" lon="9.033055040197572"><ele>165.0</ele><time>2026-04-19T09:20:57.003Z</time></trkpt><trkpt lat="44.45232887725708" lon="9.032945539680826"><ele>165.00000000000003</ele><time>2026-04-19T09:21:00.003Z</time></trkpt><trkpt lat="44.45235255167204" lon="9.032842498957967"><ele>165.0</ele><time>2026-04-19T09:21:04.003Z</time></trkpt><trkpt lat="44.4523736587427" lon="9.03274290538769"><ele>165.0</ele><time>2026-04-19T09:21:07.003Z</time></trkpt><trkpt lat="44.452387343996605" lon="9.03263675235633"><ele>165.0</ele><time>2026-04-19T09:21:10.003Z</time></trkpt><trkpt lat="44.45240285410381" lon="9.032539350222338"><ele>165.0</ele><time>2026-04-19T09:21:13.003Z</time></trkpt><trkpt lat="44.45243229206025" lon="9.032454103849345"><ele>165.00000000000003</ele><time>2026-04-19T09:21:16.003Z</time></trkpt><trkpt lat="44.45243866374158" lon="9.032351081032397"><ele>165.0</ele><time>2026-04-19T09:21:21.999Z</time></trkpt><trkpt lat="44.4523844490798" lon="9.032264385544703"><ele>165.42857142857144</ele><time>2026-04-19T09:21:25.999Z</time></trkpt><trkpt lat="44.452354030125136" lon="9.032176684898204"><ele>165.85714285714286</ele><time>2026-04-19T09:21:28.999Z</time></trkpt><trkpt lat="44.45232027545237" lon="9.032100989222023"><ele>166.28571428571428</ele><time>2026-04-19T09:21:32Z</time></trkpt><trkpt lat="44.45228980266765" lon="9.031998623655117"><ele>166.71428571428572</ele><time>2026-04-19T09:21:35Z</time></trkpt><trkpt lat="44.45223728178707" lon="9.031921477200573"><ele>167.14285714285714</ele><time>2026-04-19T09:21:39Z</time></trkpt><trkpt lat="44.45220647401158" lon="9.03182981963745"><ele>167.57142857142858</ele><time>2026-04-19T09:21:42Z</time></trkpt><trkpt lat="44.45217708944301" lon="9.031739674654485"><ele>168.0</ele><time>2026-04-19T09:21:45Z</time></trkpt><trkpt lat="44.452144752746385" lon="9.031653055421293"><ele>165.71428571428572</ele><time>2026-04-19T09:21:48Z</time></trkpt><trkpt lat="44.45210201854223" lon="9.031570198883802"><ele>163.42857142857144</ele><time>2026-04-19T09:21:52Z</time></trkpt><trkpt lat="44.45205907416256" lon="9.031487904156375"><ele>161.14285714285714</ele><time>2026-04-19T09:21:56.001Z</time></trkpt><trkpt lat="44.452017174286354" lon="9.03141704731024"><ele>158.85714285714286</ele><time>2026-04-19T09:21:59.001Z</time></trkpt><trkpt lat="44.45196143692406" lon="9.031334183694959"><ele>156.57142857142858</ele><time>2026-04-19T09:22:02.001Z</time></trkpt><trkpt lat="44.45190435584553" lon="9.031268494785948"><ele>154.28571428571428</ele><time>2026-04-19T09:22:05.001Z</time></trkpt><trkpt lat="44.45183525028245" lon="9.0312337611213"><ele>152.0</ele><time>2026-04-19T09:22:08.001Z</time></trkpt><trkpt lat="44.45177351666544" lon="9.031180885155523"><ele>152.0</ele><time>2026-04-19T09:22:10.001Z</time></trkpt><trkpt lat="44.4517032793114" lon="9.031128431502333"><ele>152.0</ele><time>2026-04-19T09:22:13.001Z</time></trkpt><trkpt lat="44.451643052053086" lon="9.031040440738034"><ele>152.0</ele><time>2026-04-19T09:22:16.001Z</time></trkpt><trkpt lat="44.451580158587895" lon="9.03096673741155"><ele>152.0</ele><time>2026-04-19T09:22:19.001Z</time></trkpt><trkpt lat="44.451509361973855" lon="9.030904412494952"><ele>152.0</ele><time>2026-04-19T09:22:22.001Z</time></trkpt><trkpt lat="44.451434150955926" lon="9.03085497772483"><ele>152.0</ele><time>2026-04-19T09:22:25.001Z</time></trkpt><trkpt lat="44.45136063124034" lon="9.03081462408146"><ele>152.0</ele><time>2026-04-19T09:22:28.002Z</time></trkpt><trkpt lat="44.45129363682455" lon="9.030777623437228"><ele>152.0</ele><time>2026-04-19T09:22:31.002Z</time></trkpt><trkpt lat="44.45121593327878" lon="9.030740009667257"><ele>152.0</ele><time>2026-04-19T09:22:34.002Z</time></trkpt><trkpt lat="44.451150640651505" lon="9.030720205602377"><ele>152.0</ele><time>2026-04-19T09:22:37.002Z</time></trkpt><trkpt lat="44.45110537400433" lon="9.030640594279475"><ele>152.0</ele><time>2026-04-19T09:22:41.002Z</time></trkpt><trkpt lat="44.451089748883035" lon="9.03054898440527"><ele>152.0</ele><time>2026-04-19T09:22:44.002Z</time></trkpt><trkpt lat="44.45111879940714" lon="9.030435854914225"><ele>152.0</ele><time>2026-04-19T09:22:48.002Z</time></trkpt><trkpt lat="44.45116500310621" lon="9.030346073630513"><ele>152.0</ele><time>2026-04-19T09:22:53.002Z</time></trkpt><trkpt lat="44.451208346258355" lon="9.030257491347246"><ele>152.0</ele><time>2026-04-19T09:22:56.002Z</time></trkpt><trkpt lat="44.45124532123764" lon="9.030177713546438"><ele>152.0</ele><time>2026-04-19T09:22:59.003Z</time></trkpt><trkpt lat="44.45129428348303" lon="9.030083366654754"><ele>152.0</ele><time>2026-04-19T09:23:03.003Z</time></trkpt><trkpt lat="44.45135518216922" lon="9.030017122026374"><ele>152.0</ele><time>2026-04-19T09:23:07.003Z</time></trkpt><trkpt lat="44.451419354219034" lon="9.029944053864716"><ele>152.0</ele><time>2026-04-19T09:23:11.003Z</time></trkpt><trkpt lat="44.45147609809357" lon="9.029871384284853"><ele>150.33333333333331</ele><time>2026-04-19T09:23:14.003Z</time></trkpt><trkpt lat="44.45150812120013" lon="9.029765719162489"><ele>148.66666666666666</ele><time>2026-04-19T09:23:18.003Z</time></trkpt><trkpt lat="44.45156047047085" lon="9.02969792607127"><ele>147.0</ele><time>2026-04-19T09:23:20.003Z</time></trkpt><trkpt lat="44.4516142003228" lon="9.029589567256393"><ele>145.33333333333334</ele><time>2026-04-19T09:23:23.003Z</time></trkpt><trkpt lat="44.45166631842908" lon="9.029512143279064"><ele>143.66666666666669</ele><time>2026-04-19T09:23:25.999Z</time></trkpt><trkpt lat="44.45169955613424" lon="9.029414607030706"><ele>142.0</ele><time>2026-04-19T09:23:28.999Z</time></trkpt><trkpt lat="44.45174489821595" lon="9.029323130531495"><ele>142.0</ele><time>2026-04-19T09:23:32.999Z</time></trkpt><trkpt lat="44.45174892244579" lon="9.029233005561721"><ele>142.0</ele><time>2026-04-19T09:23:36.999Z</time></trkpt><trkpt lat="44.451742760936455" lon="9.029110310602347"><ele>142.0</ele><time>2026-04-19T09:23:41Z</time></trkpt><trkpt lat="44.45174520520164" lon="9.029020415741817"><ele>142.0</ele><time>2026-04-19T09:23:43Z</time></trkpt><trkpt lat="44.451768201575796" lon="9.028934849934734"><ele>142.0</ele><time>2026-04-19T09:23:46Z</time></trkpt><trkpt lat="44.45175766528504" lon="9.02882388195714"><ele>142.0</ele><time>2026-04-19T09:23:49Z</time></trkpt><trkpt lat="44.451767267186796" lon="9.028695314985429"><ele>143.0</ele><time>2026-04-19T09:23:53Z</time></trkpt><trkpt lat="44.45177026752387" lon="9.028606924628358"><ele>144.0</ele><time>2026-04-19T09:24:04.001Z</time></trkpt><trkpt lat="44.451795165871424" lon="9.02851589602412"><ele>145.0</ele><time>2026-04-19T09:24:18.001Z</time></trkpt><trkpt lat="44.45181425152354" lon="9.028430648471275"><ele>146.0</ele><time>2026-04-19T09:24:22.001Z</time></trkpt><trkpt lat="44.45183340939584" lon="9.02833568575318"><ele>147.0</ele><time>2026-04-19T09:24:25.001Z</time></trkpt><trkpt lat="44.45182436515724" lon="9.028245756451849"><ele>148.0</ele><time>2026-04-19T09:24:29.002Z</time></trkpt><trkpt lat="44.45175156588959" lon="9.028176613961442"><ele>149.0</ele><time>2026-04-19T09:24:33.002Z</time></trkpt><trkpt lat="44.45168623062382" lon="9.028149184971895"><ele>152.83333333333331</ele><time>2026-04-19T09:24:38.002Z</time></trkpt><trkpt lat="44.45162833742841" lon="9.028054545854781"><ele>156.66666666666666</ele><time>2026-04-19T09:24:41.002Z</time></trkpt><trkpt lat="44.45158255788092" lon="9.027964039339906"><ele>160.5</ele><time>2026-04-19T09:24:45.002Z</time></trkpt><trkpt lat="44.45154298654794" lon="9.027858893882248"><ele>164.33333333333334</ele><time>2026-04-19T09:24:48.002Z</time></trkpt><trkpt lat="44.45148188081026" lon="9.027789088422216"><ele>168.16666666666669</ele><time>2026-04-19T09:24:51.002Z</time></trkpt><trkpt lat="44.45143249402616" lon="9.027709236353807"><ele>172.0</ele><time>2026-04-19T09:24:54.002Z</time></trkpt><trkpt lat="44.451376818859885" lon="9.027628741169865"><ele>172.0</ele><time>2026-04-19T09:24:57.002Z</time></trkpt><trkpt lat="44.451326692825276" lon="9.027531627667493"><ele>172.0</ele><time>2026-04-19T09:25:00.002Z</time></trkpt><trkpt lat="44.45126139486455" lon="9.027463688949627"><ele>172.0</ele><time>2026-04-19T09:25:03.003Z</time></trkpt><trkpt lat="44.4512053031744" lon="9.027404633090082"><ele>172.0</ele><time>2026-04-19T09:25:06.003Z</time></trkpt><trkpt lat="44.45112039953525" lon="9.027352051923117"><ele>172.0</ele><time>2026-04-19T09:25:09.003Z</time></trkpt><trkpt lat="44.45104559889497" lon="9.027310755185551"><ele>172.0</ele><time>2026-04-19T09:25:12.003Z</time></trkpt><trkpt lat="44.45097795845897" lon="9.02725538829592"><ele>166.57142857142858</ele><time>2026-04-19T09:25:15.003Z</time></trkpt><trkpt lat="44.45092248334933" lon="9.027202097796483"><ele>161.14285714285714</ele><time>2026-04-19T09:25:18.003Z</time></trkpt><trkpt lat="44.450858617465606" lon="9.027179600969063"><ele>155.71428571428572</ele><time>2026-04-19T09:25:20.003Z</time></trkpt><trkpt lat="44.45080144045351" lon="9.027121370702034"><ele>150.28571428571428</ele><time>2026-04-19T09:25:23.003Z</time></trkpt><trkpt lat="44.45074548407097" lon="9.027049472005695"><ele>144.85714285714286</ele><time>2026-04-19T09:25:26.003Z</time></trkpt><trkpt lat="44.45075593837633" lon="9.026945378100253"><ele>139.42857142857144</ele><time>2026-04-19T09:25:33.999Z</time></trkpt><trkpt lat="44.45081618181284" lon="9.026887887769853"><ele>134.0</ele><time>2026-04-19T09:25:37.999Z</time></trkpt><trkpt lat="44.450876308110956" lon="9.026830665810687"><ele>134.0</ele><time>2026-04-19T09:25:41.999Z</time></trkpt><trkpt lat="44.450947716435685" lon="9.026757656332506"><ele>134.0</ele><time>2026-04-19T09:25:45.999Z</time></trkpt><trkpt lat="44.450985949105515" lon="9.026685187828221"><ele>134.0</ele><time>2026-04-19T09:25:49Z</time></trkpt><trkpt lat="44.451022240911364" lon="9.026609447111634"><ele>134.0</ele><time>2026-04-19T09:25:52Z</time></trkpt><trkpt lat="44.45105761004639" lon="9.026535970164442"><ele>134.0</ele><time>2026-04-19T09:25:55Z</time></trkpt><trkpt lat="44.45109323679492" lon="9.026461111824414"><ele>134.0</ele><time>2026-04-19T09:26:08.001Z</time></trkpt><trkpt lat="44.4511410514596" lon="9.02639626549171"><ele>134.0</ele><time>2026-04-19T09:26:18.001Z</time></trkpt><trkpt lat="44.45118930247168" lon="9.0263377259157"><ele>132.0</ele><time>2026-04-19T09:26:36.001Z</time></trkpt><trkpt lat="44.451231912284264" lon="9.026263187684092"><ele>130.0</ele><time>2026-04-19T09:26:42.002Z</time></trkpt><trkpt lat="44.45127192542732" lon="9.026162468167131"><ele>128.0</ele><time>2026-04-19T09:26:58.002Z</time></trkpt><trkpt lat="44.45128377065089" lon="9.026061421643332"><ele>126.0</ele><time>2026-04-19T09:27:24.003Z</time></trkpt><trkpt lat="44.45130078855464" lon="9.025964056156322"><ele>124.0</ele><time>2026-04-19T09:27:30.003Z</time></trkpt><trkpt lat="44.45133151035688" lon="9.025876353463152"><ele>122.0</ele><time>2026-04-19T09:27:38.999Z</time></trkpt><trkpt lat="44.45138189614976" lon="9.025799369154978"><ele>120.0</ele><time>2026-04-19T09:27:49.999Z</time></trkpt><trkpt lat="44.45139101847707" lon="9.025695127489861"><ele>119.28571428571429</ele><time>2026-04-19T09:28:03Z</time></trkpt><trkpt lat="44.45139605211919" lon="9.025584265324165"><ele>118.57142857142856</ele><time>2026-04-19T09:28:10Z</time></trkpt><trkpt lat="44.45140917242168" lon="9.025488121174972"><ele>117.85714285714285</ele><time>2026-04-19T09:28:26.001Z</time></trkpt><trkpt lat="44.45137326820426" lon="9.025377171910693"><ele>117.14285714285714</ele><time>2026-04-19T09:28:40.001Z</time></trkpt><trkpt lat="44.451321537910445" lon="9.025300618313002"><ele>116.42857142857142</ele><time>2026-04-19T09:28:48.002Z</time></trkpt><trkpt lat="44.45129934960162" lon="9.025216482916646"><ele>115.7142857142857</ele><time>2026-04-19T09:28:55.002Z</time></trkpt><trkpt lat="44.4513100941524" lon="9.025124676047772"><ele>114.99999999999999</ele><time>2026-04-19T09:29:04.002Z</time></trkpt><trkpt lat="44.45125225887481" lon="9.02507528067051"><ele>114.99999999999999</ele><time>2026-04-19T09:29:11.002Z</time></trkpt><trkpt lat="44.45121612554006" lon="9.024983961732195"><ele>115.0</ele><time>2026-04-19T09:29:18.003Z</time></trkpt><trkpt lat="44.45117914845062" lon="9.024894874172498"><ele>114.99999999999999</ele><time>2026-04-19T09:29:26.003Z</time></trkpt><trkpt lat="44.45116987416351" lon="9.024798871098122"><ele>114.99999999999999</ele><time>2026-04-19T09:29:34.003Z</time></trkpt><trkpt lat="44.451163617067536" lon="9.02469211402853"><ele>115.0</ele><time>2026-04-19T09:29:45.999Z</time></trkpt><trkpt lat="44.45113916504588" lon="9.024606290980918"><ele>114.99999999999999</ele><time>2026-04-19T09:29:59Z</time></trkpt><trkpt lat="44.45110825958941" lon="9.02452874991377"><ele>114.99999999999999</ele><time>2026-04-19T09:30:10Z</time></trkpt><trkpt lat="44.45108257625374" lon="9.024417417660151"><ele>115.99999999999999</ele><time>2026-04-19T09:30:56.002Z</time></trkpt><trkpt lat="44.451134920198804" lon="9.024328884279676"><ele>117.0</ele><time>2026-04-19T09:32:16Z</time></trkpt><trkpt lat="44.45118999069049" lon="9.02427082667364"><ele>117.99999999999999</ele><time>2026-04-19T09:32:19.001Z</time></trkpt><trkpt lat="44.45120239065608" lon="9.024181375177934"><ele>118.99999999999999</ele><time>2026-04-19T09:32:22.001Z</time></trkpt><trkpt lat="44.451256337365386" lon="9.024114454798973"><ele>120.0</ele><time>2026-04-19T09:32:26.001Z</time></trkpt><trkpt lat="44.451308196269416" lon="9.024031456980834"><ele>120.99999999999999</ele><time>2026-04-19T09:32:29.001Z</time></trkpt><trkpt lat="44.45125716000253" lon="9.023969344680074"><ele>121.99999999999999</ele><time>2026-04-19T09:32:36.001Z</time></trkpt><trkpt lat="44.45125454327575" lon="9.023874707769926"><ele>121.99999999999999</ele><time>2026-04-19T09:32:39.001Z</time></trkpt><trkpt lat="44.45127738012561" lon="9.023765176982243"><ele>122.0</ele><time>2026-04-19T09:32:42.001Z</time></trkpt><trkpt lat="44.4512816607688" lon="9.023620962317196"><ele>122.0</ele><time>2026-04-19T09:32:45.001Z</time></trkpt><trkpt lat="44.45129238226536" lon="9.023525026645501"><ele>122.0</ele><time>2026-04-19T09:32:47.002Z</time></trkpt><trkpt lat="44.45127732570347" lon="9.023430154620836"><ele>121.99999999999999</ele><time>2026-04-19T09:32:49.002Z</time></trkpt><trkpt lat="44.45121807819502" lon="9.023379714346277"><ele>122.0</ele><time>2026-04-19T09:32:51.002Z</time></trkpt><trkpt lat="44.45118123114485" lon="9.02327148161078"><ele>121.99999999999999</ele><time>2026-04-19T09:32:54.002Z</time></trkpt><trkpt lat="44.45119850228592" lon="9.023181908961806"><ele>122.0</ele><time>2026-04-19T09:32:57.002Z</time></trkpt><trkpt lat="44.451238130302436" lon="9.023110378429807"><ele>121.99999999999999</ele><time>2026-04-19T09:33:00.002Z</time></trkpt><trkpt lat="44.45129044331704" lon="9.023020142655795"><ele>121.99999999999999</ele><time>2026-04-19T09:33:05.002Z</time></trkpt><trkpt lat="44.451338558281776" lon="9.022954937076479"><ele>122.0</ele><time>2026-04-19T09:33:09.002Z</time></trkpt><trkpt lat="44.45139192678534" lon="9.022893812644321"><ele>121.99999999999999</ele><time>2026-04-19T09:33:12.002Z</time></trkpt><trkpt lat="44.45145803583827" lon="9.022934006111305"><ele>121.99999999999999</ele><time>2026-04-19T09:33:15.002Z</time></trkpt><trkpt lat="44.45153151221093" lon="9.0229590428446"><ele>122.28571428571428</ele><time>2026-04-19T09:33:19.002Z</time></trkpt><trkpt lat="44.45160051251256" lon="9.022991388960186"><ele>122.57142857142857</ele><time>2026-04-19T09:33:23.003Z</time></trkpt><trkpt lat="44.451664124834394" lon="9.023013269764952"><ele>122.85714285714286</ele><time>2026-04-19T09:33:28.003Z</time></trkpt><trkpt lat="44.45172714716124" lon="9.0230472915253"><ele>123.14285714285714</ele><time>2026-04-19T09:33:32.003Z</time></trkpt><trkpt lat="44.45178751995877" lon="9.022975250980307"><ele>123.42857142857144</ele><time>2026-04-19T09:33:39.003Z</time></trkpt><trkpt lat="44.451864670832364" lon="9.0229316188264"><ele>123.71428571428572</ele><time>2026-04-19T09:33:44.003Z</time></trkpt><trkpt lat="44.45192146137078" lon="9.02288042127089"><ele>124.0</ele><time>2026-04-19T09:33:49.003Z</time></trkpt><trkpt lat="44.45198815044712" lon="9.022850165709873"><ele>124.0</ele><time>2026-04-19T09:33:54.003Z</time></trkpt><trkpt lat="44.45206576794837" lon="9.022843927263667"><ele>124.00000000000001</ele><time>2026-04-19T09:33:59Z</time></trkpt><trkpt lat="44.452140149772106" lon="9.02286108845632"><ele>124.0</ele><time>2026-04-19T09:34:04Z</time></trkpt><trkpt lat="44.4521996554003" lon="9.02281197071826"><ele>124.0</ele><time>2026-04-19T09:34:08Z</time></trkpt><trkpt lat="44.45224666389334" lon="9.022747029427903"><ele>124.00000000000001</ele><time>2026-04-19T09:34:12Z</time></trkpt><trkpt lat="44.45228630357211" lon="9.022672070423559"><ele>124.0</ele><time>2026-04-19T09:34:16Z</time></trkpt><trkpt lat="44.45232007748496" lon="9.022592764370831"><ele>124.0</ele><time>2026-04-19T09:34:20Z</time></trkpt><trkpt lat="44.45235077868642" lon="9.022507048331525"><ele>128.0</ele><time>2026-04-19T09:34:24Z</time></trkpt><trkpt lat="44.452367865023184" lon="9.022416647784711"><ele>132.0</ele><time>2026-04-19T09:34:27.001Z</time></trkpt><trkpt lat="44.45237302279239" lon="9.022320724648651"><ele>136.0</ele><time>2026-04-19T09:34:30.001Z</time></trkpt><trkpt lat="44.45237146270002" lon="9.022223137366927"><ele>140.0</ele><time>2026-04-19T09:34:33.001Z</time></trkpt><trkpt lat="44.452360459828896" lon="9.022118769490886"><ele>144.0</ele><time>2026-04-19T09:34:36.001Z</time></trkpt><trkpt lat="44.45235048570847" lon="9.022022934215357"><ele>148.0</ele><time>2026-04-19T09:34:40.001Z</time></trkpt><trkpt lat="44.45234222316293" lon="9.021914777099564"><ele>152.0</ele><time>2026-04-19T09:34:43.001Z</time></trkpt><trkpt lat="44.45231959839073" lon="9.021799884547068"><ele>152.0</ele><time>2026-04-19T09:34:47.001Z</time></trkpt><trkpt lat="44.45229979507503" lon="9.021715060663027"><ele>152.0</ele><time>2026-04-19T09:34:50.001Z</time></trkpt><trkpt lat="44.45227689602574" lon="9.021624647334024"><ele>152.0</ele><time>2026-04-19T09:34:53.001Z</time></trkpt><trkpt lat="44.452239890265595" lon="9.021530685586365"><ele>152.0</ele><time>2026-04-19T09:34:57.001Z</time></trkpt><trkpt lat="44.45219660810206" lon="9.021452213174934"><ele>152.0</ele><time>2026-04-19T09:35:01.002Z</time></trkpt><trkpt lat="44.452157476042906" lon="9.021376940565553"><ele>152.0</ele><time>2026-04-19T09:35:04.002Z</time></trkpt><trkpt lat="44.45211354906994" lon="9.021284581272331"><ele>152.0</ele><time>2026-04-19T09:35:08.002Z</time></trkpt><trkpt lat="44.45207485921892" lon="9.021212022744738"><ele>148.7142857142857</ele><time>2026-04-19T09:35:11.002Z</time></trkpt><trkpt lat="44.452034808180116" lon="9.021109179934314"><ele>145.42857142857144</ele><time>2026-04-19T09:35:15.002Z</time></trkpt><trkpt lat="44.45201745978577" lon="9.021007095205972"><ele>142.14285714285714</ele><time>2026-04-19T09:35:18.002Z</time></trkpt><trkpt lat="44.45200754888998" lon="9.020918567932847"><ele>138.85714285714283</ele><time>2026-04-19T09:35:21.002Z</time></trkpt><trkpt lat="44.452009858021356" lon="9.020821994738471"><ele>135.57142857142856</ele><time>2026-04-19T09:35:24.002Z</time></trkpt><trkpt lat="44.452005472533735" lon="9.020713521273708"><ele>132.28571428571428</ele><time>2026-04-19T09:35:28.002Z</time></trkpt><trkpt lat="44.452011114098966" lon="9.020610487221436"><ele>129.0</ele><time>2026-04-19T09:35:31.003Z</time></trkpt><trkpt lat="44.45199888950609" lon="9.020487342637772"><ele>129.0</ele><time>2026-04-19T09:35:35.003Z</time></trkpt><trkpt lat="44.45199900289266" lon="9.020389194311488"><ele>129.0</ele><time>2026-04-19T09:35:38.003Z</time></trkpt><trkpt lat="44.45199403045552" lon="9.020289691340981"><ele>129.0</ele><time>2026-04-19T09:35:41.003Z</time></trkpt><trkpt lat="44.45200290829012" lon="9.02018933699759"><ele>129.0</ele><time>2026-04-19T09:35:44.003Z</time></trkpt><trkpt lat="44.4519986402557" lon="9.020085611734759"><ele>129.0</ele><time>2026-04-19T09:35:47.003Z</time></trkpt><trkpt lat="44.45200195948154" lon="9.019970699223729"><ele>129.0</ele><time>2026-04-19T09:35:51.003Z</time></trkpt><trkpt lat="44.45200823148826" lon="9.019856108896857"><ele>128.42857142857142</ele><time>2026-04-19T09:35:55.003Z</time></trkpt><trkpt lat="44.452021481878916" lon="9.019768968196583"><ele>127.85714285714286</ele><time>2026-04-19T09:35:58.003Z</time></trkpt><trkpt lat="44.45204757406543" lon="9.019680185121134"><ele>127.28571428571428</ele><time>2026-04-19T09:36:00.999Z</time></trkpt><trkpt lat="44.45207111254698" lon="9.019575871063662"><ele>126.71428571428571</ele><time>2026-04-19T09:36:03.999Z</time></trkpt><trkpt lat="44.45209406839955" lon="9.019487841730273"><ele>126.14285714285714</ele><time>2026-04-19T09:36:07Z</time></trkpt><trkpt lat="44.45212907779185" lon="9.019393008880417"><ele>125.57142857142857</ele><time>2026-04-19T09:36:10Z</time></trkpt><trkpt lat="44.45216451088743" lon="9.019297711351484"><ele>125.0</ele><time>2026-04-19T09:36:13Z</time></trkpt><trkpt lat="44.4522088306058" lon="9.019219128312677"><ele>129.0</ele><time>2026-04-19T09:36:16Z</time></trkpt><trkpt lat="44.45224182127572" lon="9.019111210851591"><ele>133.0</ele><time>2026-04-19T09:36:19Z</time></trkpt><trkpt lat="44.45228319219229" lon="9.01900796021212"><ele>137.0</ele><time>2026-04-19T09:36:22Z</time></trkpt><trkpt lat="44.452314616612014" lon="9.018925712873553"><ele>141.0</ele><time>2026-04-19T09:36:25Z</time></trkpt><trkpt lat="44.45235851665437" lon="9.018819673166"><ele>145.0</ele><time>2026-04-19T09:36:29Z</time></trkpt><trkpt lat="44.452406449702075" lon="9.018752203746056"><ele>149.0</ele><time>2026-04-19T09:36:33Z</time></trkpt><trkpt lat="44.45244245803358" lon="9.018656414536407"><ele>149.0</ele><time>2026-04-19T09:39:04.001Z</time></trkpt><trkpt lat="44.45243604537505" lon="9.018551540838992"><ele>149.0</ele><time>2026-04-19T09:39:07.001Z</time></trkpt><trkpt lat="44.45241800647458" lon="9.018466603134595"><ele>149.0</ele><time>2026-04-19T09:39:09.002Z</time></trkpt><trkpt lat="44.452366201922175" lon="9.018371746943245"><ele>149.0</ele><time>2026-04-19T09:39:11.002Z</time></trkpt><trkpt lat="44.45234040487928" lon="9.018246675840397"><ele>149.0</ele><time>2026-04-19T09:39:13.002Z</time></trkpt><trkpt lat="44.45232984541789" lon="9.018137840960483"><ele>149.0</ele><time>2026-04-19T09:39:15.002Z</time></trkpt><trkpt lat="44.45232415908376" lon="9.018001776918558"><ele>149.5</ele><time>2026-04-19T09:39:17.002Z</time></trkpt><trkpt lat="44.452317503451695" lon="9.017800406622797"><ele>150.0</ele><time>2026-04-19T09:39:19.002Z</time></trkpt><trkpt lat="44.452322679948715" lon="9.01763301852614"><ele>150.5</ele><time>2026-04-19T09:39:21.002Z</time></trkpt><trkpt lat="44.45231553505769" lon="9.017461733530434"><ele>151.0</ele><time>2026-04-19T09:39:23.002Z</time></trkpt><trkpt lat="44.452304627934886" lon="9.017370881507706"><ele>151.2857142857143</ele><time>2026-04-19T09:39:24.002Z</time></trkpt><trkpt lat="44.452298364398125" lon="9.01728216576788"><ele>151.57142857142858</ele><time>2026-04-19T09:39:25.002Z</time></trkpt><trkpt lat="44.452281299012455" lon="9.017195283684798"><ele>151.85714285714286</ele><time>2026-04-19T09:39:26.002Z</time></trkpt><trkpt lat="44.45224569666192" lon="9.017103324557574"><ele>152.14285714285717</ele><time>2026-04-19T09:39:27.002Z</time></trkpt><trkpt lat="44.45219694064018" lon="9.017037510288274"><ele>152.42857142857144</ele><time>2026-04-19T09:39:28.002Z</time></trkpt><trkpt lat="44.45214910576823" lon="9.016965577240091"><ele>152.71428571428572</ele><time>2026-04-19T09:39:29.002Z</time></trkpt><trkpt lat="44.4520965470833" lon="9.016892341551257"><ele>153.0</ele><time>2026-04-19T09:39:30.002Z</time></trkpt><trkpt lat="44.452044743288354" lon="9.016830993389314"><ele>150.0</ele><time>2026-04-19T09:39:31.002Z</time></trkpt><trkpt lat="44.45199698825481" lon="9.016751934776416"><ele>147.0</ele><time>2026-04-19T09:39:32.002Z</time></trkpt><trkpt lat="44.45195467080469" lon="9.016674410354447"><ele>144.0</ele><time>2026-04-19T09:39:33.002Z</time></trkpt><trkpt lat="44.45190924866146" lon="9.016602818508922"><ele>141.0</ele><time>2026-04-19T09:39:34.002Z</time></trkpt><trkpt lat="44.45183261603125" lon="9.016477554162343"><ele>138.0</ele><time>2026-04-19T09:39:36.002Z</time></trkpt><trkpt lat="44.451797310018556" lon="9.016331383341042"><ele>135.0</ele><time>2026-04-19T09:39:38.002Z</time></trkpt><trkpt lat="44.451813710082924" lon="9.016211591095264"><ele>135.0</ele><time>2026-04-19T09:39:40.002Z</time></trkpt><trkpt lat="44.4518853590598" lon="9.016117592176606"><ele>135.0</ele><time>2026-04-19T09:39:42.003Z</time></trkpt><trkpt lat="44.451945129137066" lon="9.016020179141224"><ele>135.0</ele><time>2026-04-19T09:39:44.003Z</time></trkpt><trkpt lat="44.4519903171126" lon="9.015904556372407"><ele>135.0</ele><time>2026-04-19T09:39:46.003Z</time></trkpt><trkpt lat="44.45200831597993" lon="9.0157822128302"><ele>135.0</ele><time>2026-04-19T09:39:48.003Z</time></trkpt><trkpt lat="44.452044374221735" lon="9.015677765830953"><ele>135.5</ele><time>2026-04-19T09:39:50.003Z</time></trkpt><trkpt lat="44.45205241232414" lon="9.015571695577584"><ele>136.0</ele><time>2026-04-19T09:39:52.003Z</time></trkpt><trkpt lat="44.452027303692766" lon="9.015474629519714"><ele>136.5</ele><time>2026-04-19T09:39:54.003Z</time></trkpt><trkpt lat="44.45200324946444" lon="9.015347497380395"><ele>137.0</ele><time>2026-04-19T09:39:56.003Z</time></trkpt><trkpt lat="44.45197993623517" lon="9.015225843348594"><ele>137.5</ele><time>2026-04-19T09:39:58.003Z</time></trkpt><trkpt lat="44.451922395048555" lon="9.01512797668129"><ele>138.0</ele><time>2026-04-19T09:40:00.003Z</time></trkpt><trkpt lat="44.451840169464155" lon="9.01505594333592"><ele>138.0</ele><time>2026-04-19T09:40:02.003Z</time></trkpt><trkpt lat="44.451763438490104" lon="9.014988899968206"><ele>138.0</ele><time>2026-04-19T09:40:04.003Z</time></trkpt><trkpt lat="44.4516887904255" lon="9.01491708777098"><ele>138.0</ele><time>2026-04-19T09:40:06.003Z</time></trkpt><trkpt lat="44.451647079951535" lon="9.014783562064904"><ele>138.0</ele><time>2026-04-19T09:40:08.003Z</time></trkpt><trkpt lat="44.45163322217767" lon="9.014696832791737"><ele>138.0</ele><time>2026-04-19T09:40:09.003Z</time></trkpt><trkpt lat="44.451594562941374" lon="9.014549545926561"><ele>139.66666666666666</ele><time>2026-04-19T09:40:11.003Z</time></trkpt><trkpt lat="44.451527620327944" lon="9.014441726688844"><ele>141.33333333333334</ele><time>2026-04-19T09:40:13.001Z</time></trkpt><trkpt lat="44.45147653892554" lon="9.014368762662123"><ele>143.0</ele><time>2026-04-19T09:40:15.001Z</time></trkpt><trkpt lat="44.451470045179" lon="9.014226521996289"><ele>144.66666666666669</ele><time>2026-04-19T09:40:17.001Z</time></trkpt><trkpt lat="44.451471406799" lon="9.014111669245127"><ele>146.33333333333334</ele><time>2026-04-19T09:40:19.001Z</time></trkpt><trkpt lat="44.451462054206075" lon="9.01399481651571"><ele>148.0</ele><time>2026-04-19T09:40:21.001Z</time></trkpt><trkpt lat="44.45146124257325" lon="9.013887542488272"><ele>148.0</ele><time>2026-04-19T09:40:25.001Z</time></trkpt><trkpt lat="44.45146092543751" lon="9.013790995394103"><ele>148.0</ele><time>2026-04-19T09:40:31.001Z</time></trkpt><trkpt lat="44.45146305321822" lon="9.013694537975457"><ele>148.0</ele><time>2026-04-19T09:40:34.001Z</time></trkpt><trkpt lat="44.4514449706782" lon="9.013593223512459"><ele>148.0</ele><time>2026-04-19T09:40:36.001Z</time></trkpt><trkpt lat="44.45143735331661" lon="9.013475473964789"><ele>148.0</ele><time>2026-04-19T09:40:38.001Z</time></trkpt><trkpt lat="44.451411151361064" lon="9.013349455792122"><ele>148.0</ele><time>2026-04-19T09:40:40.001Z</time></trkpt><trkpt lat="44.451395004457545" lon="9.013211855217785"><ele>146.4</ele><time>2026-04-19T09:40:42.001Z</time></trkpt><trkpt lat="44.451423313957434" lon="9.013072790654858"><ele>144.8</ele><time>2026-04-19T09:40:44.001Z</time></trkpt><trkpt lat="44.451488029202906" lon="9.012982344483476"><ele>143.2</ele><time>2026-04-19T09:40:46.001Z</time></trkpt><trkpt lat="44.45153566781743" lon="9.012890860583461"><ele>141.6</ele><time>2026-04-19T09:40:48.001Z</time></trkpt><trkpt lat="44.45156985224165" lon="9.012784090011943"><ele>140.0</ele><time>2026-04-19T09:40:50.001Z</time></trkpt><trkpt lat="44.45164209377225" lon="9.01267860664005"><ele>140.0</ele><time>2026-04-19T09:40:52.001Z</time></trkpt><trkpt lat="44.451723590755876" lon="9.012566560650615"><ele>140.0</ele><time>2026-04-19T09:40:54.001Z</time></trkpt><trkpt lat="44.45179081585769" lon="9.01243493517029"><ele>140.0</ele><time>2026-04-19T09:40:56.001Z</time></trkpt><trkpt lat="44.45184056118057" lon="9.012297062293376"><ele>140.0</ele><time>2026-04-19T09:40:58.001Z</time></trkpt><trkpt lat="44.451883814817336" lon="9.012165651567217"><ele>140.0</ele><time>2026-04-19T09:41:00.001Z</time></trkpt><trkpt lat="44.45192236402426" lon="9.012040247239838"><ele>139.5</ele><time>2026-04-19T09:41:02.001Z</time></trkpt><trkpt lat="44.45194603905637" lon="9.011906474734992"><ele>139.0</ele><time>2026-04-19T09:41:04.001Z</time></trkpt><trkpt lat="44.45198630629232" lon="9.011813588821331"><ele>138.5</ele><time>2026-04-19T09:41:06.001Z</time></trkpt><trkpt lat="44.4520074024112" lon="9.011713825159262"><ele>138.0</ele><time>2026-04-19T09:41:11.001Z</time></trkpt><trkpt lat="44.452054419408235" lon="9.011614648942054"><ele>137.5</ele><time>2026-04-19T09:41:14.001Z</time></trkpt><trkpt lat="44.45211181741131" lon="9.011522790962973"><ele>137.0</ele><time>2026-04-19T09:41:17.001Z</time></trkpt><trkpt lat="44.45217259608468" lon="9.01143320103399"><ele>137.0</ele><time>2026-04-19T09:41:20.001Z</time></trkpt><trkpt lat="44.452231347036026" lon="9.01134978630202"><ele>137.0</ele><time>2026-04-19T09:41:23.001Z</time></trkpt><trkpt lat="44.45230521032994" lon="9.011313668018047"><ele>137.0</ele><time>2026-04-19T09:41:27.001Z</time></trkpt><trkpt lat="44.45236369199174" lon="9.011253262584843"><ele>137.0</ele><time>2026-04-19T09:41:30.001Z</time></trkpt><trkpt lat="44.4524175400921" lon="9.011191954733244"><ele>137.0</ele><time>2026-04-19T09:41:33.001Z</time></trkpt><trkpt lat="44.452473585077605" lon="9.011134997262287"><ele>137.0</ele><time>2026-04-19T09:41:36.002Z</time></trkpt><trkpt lat="44.45252472487177" lon="9.011035623169914"><ele>137.0</ele><time>2026-04-19T09:41:41.002Z</time></trkpt><trkpt lat="44.4525424050154" lon="9.010934410005396"><ele>137.0</ele><time>2026-04-19T09:41:44.002Z</time></trkpt><trkpt lat="44.45255697413686" lon="9.010795970465887"><ele>137.0</ele><time>2026-04-19T09:41:48.002Z</time></trkpt><trkpt lat="44.45262186985351" lon="9.010718838910886"><ele>137.0</ele><time>2026-04-19T09:41:51.002Z</time></trkpt><trkpt lat="44.452677690880016" lon="9.010634382101545"><ele>137.0</ele><time>2026-04-19T09:41:54.002Z</time></trkpt><trkpt lat="44.452741043814434" lon="9.01053451231227"><ele>137.0</ele><time>2026-04-19T09:41:57.002Z</time></trkpt><trkpt lat="44.4528074185008" lon="9.010449898324309"><ele>135.33333333333331</ele><time>2026-04-19T09:42:00.002Z</time></trkpt><trkpt lat="44.45286399929476" lon="9.010365932125255"><ele>133.66666666666666</ele><time>2026-04-19T09:42:03.002Z</time></trkpt><trkpt lat="44.452913113093295" lon="9.010299190907606"><ele>132.0</ele><time>2026-04-19T09:42:06.002Z</time></trkpt><trkpt lat="44.45297974634546" lon="9.010194735409863"><ele>130.33333333333334</ele><time>2026-04-19T09:42:10.002Z</time></trkpt><trkpt lat="44.45305474086665" lon="9.010213120330372"><ele>128.66666666666669</ele><time>2026-04-19T09:42:13.002Z</time></trkpt><trkpt lat="44.453132678436134" lon="9.010271894380082"><ele>127.0</ele><time>2026-04-19T09:42:16.002Z</time></trkpt><trkpt lat="44.45320757646045" lon="9.010348049334384"><ele>127.00000000000001</ele><time>2026-04-19T09:42:19.001Z</time></trkpt><trkpt lat="44.45329209657999" lon="9.01038383792113"><ele>127.0</ele><time>2026-04-19T09:42:22.001Z</time></trkpt><trkpt lat="44.45335844863747" lon="9.010383296933885"><ele>127.0</ele><time>2026-04-19T09:42:25.001Z</time></trkpt><trkpt lat="44.45342464092388" lon="9.010373501841949"><ele>127.0</ele><time>2026-04-19T09:42:28.001Z</time></trkpt><trkpt lat="44.453496853950554" lon="9.010403281244317"><ele>127.00000000000001</ele><time>2026-04-19T09:42:31.001Z</time></trkpt><trkpt lat="44.45357747898552" lon="9.01043003691396"><ele>127.0</ele><time>2026-04-19T09:42:34.001Z</time></trkpt><trkpt lat="44.45364867344921" lon="9.010460536583482"><ele>127.0</ele><time>2026-04-19T09:42:37.001Z</time></trkpt><trkpt lat="44.453702878225414" lon="9.01051429797059"><ele>127.0</ele><time>2026-04-19T09:42:40.001Z</time></trkpt><trkpt lat="44.453755842853965" lon="9.01059023345002"><ele>127.0</ele><time>2026-04-19T09:42:53.001Z</time></trkpt><trkpt lat="44.45377811295612" lon="9.010684385292619"><ele>127.0</ele><time>2026-04-19T09:42:58.001Z</time></trkpt><trkpt lat="44.45380969870541" lon="9.010768275474451"><ele>127.0</ele><time>2026-04-19T09:43:02.001Z</time></trkpt><trkpt lat="44.453855704609175" lon="9.01084595034768"><ele>127.0</ele><time>2026-04-19T09:43:06.001Z</time></trkpt><trkpt lat="44.453895805097886" lon="9.010920148227202"><ele>127.0</ele><time>2026-04-19T09:43:10.001Z</time></trkpt><trkpt lat="44.45394362410782" lon="9.011020192630921"><ele>128.0</ele><time>2026-04-19T09:43:16.001Z</time></trkpt><trkpt lat="44.45401095632875" lon="9.011091374595004"><ele>129.0</ele><time>2026-04-19T09:43:20.001Z</time></trkpt><trkpt lat="44.454071959597655" lon="9.011143997432988"><ele>130.0</ele><time>2026-04-19T09:43:23.001Z</time></trkpt><trkpt lat="44.45413654563115" lon="9.011191809140685"><ele>131.0</ele><time>2026-04-19T09:43:27.001Z</time></trkpt><trkpt lat="44.45421702442882" lon="9.011222513391962"><ele>132.0</ele><time>2026-04-19T09:43:30.001Z</time></trkpt><trkpt lat="44.45429345258956" lon="9.011236108321793"><ele>133.0</ele><time>2026-04-19T09:43:34.001Z</time></trkpt><trkpt lat="44.45439006227512" lon="9.011243480346575"><ele>133.0</ele><time>2026-04-19T09:43:39.001Z</time></trkpt><trkpt lat="44.45447307910522" lon="9.01126468934286"><ele>133.0</ele><time>2026-04-19T09:43:42.001Z</time></trkpt><trkpt lat="44.4545420108914" lon="9.011263914426317"><ele>133.0</ele><time>2026-04-19T09:43:45.001Z</time></trkpt><trkpt lat="44.45461836172637" lon="9.011278677731204"><ele>133.0</ele><time>2026-04-19T09:43:49.001Z</time></trkpt><trkpt lat="44.454688405223884" lon="9.011237604546997"><ele>133.0</ele><time>2026-04-19T09:43:54.002Z</time></trkpt><trkpt lat="44.45476004651033" lon="9.011161146121323"><ele>133.0</ele><time>2026-04-19T09:43:56.002Z</time></trkpt><trkpt lat="44.45481684206011" lon="9.011064716938066"><ele>133.28571428571428</ele><time>2026-04-19T09:43:59.002Z</time></trkpt><trkpt lat="44.45486784670388" lon="9.01100074951878"><ele>133.57142857142856</ele><time>2026-04-19T09:44:02.002Z</time></trkpt><trkpt lat="44.454928847590104" lon="9.010928517954703"><ele>133.85714285714286</ele><time>2026-04-19T09:44:06.002Z</time></trkpt><trkpt lat="44.454981857258474" lon="9.010875755787529"><ele>134.14285714285714</ele><time>2026-04-19T09:44:09.002Z</time></trkpt><trkpt lat="44.455052318844274" lon="9.01084576459378"><ele>134.42857142857142</ele><time>2026-04-19T09:44:14.002Z</time></trkpt><trkpt lat="44.455125185514376" lon="9.010833090517561"><ele>134.71428571428572</ele><time>2026-04-19T09:44:18.002Z</time></trkpt><trkpt lat="44.45518742170965" lon="9.010818316028187"><ele>135.0</ele><time>2026-04-19T09:44:22.002Z</time></trkpt><trkpt lat="44.45525032503024" lon="9.010795807250927"><ele>134.14285714285714</ele><time>2026-04-19T09:44:30.001Z</time></trkpt><trkpt lat="44.455304921116145" lon="9.010744692545153"><ele>133.28571428571428</ele><time>2026-04-19T09:44:35.001Z</time></trkpt><trkpt lat="44.45535350524215" lon="9.010660458898018"><ele>132.42857142857142</ele><time>2026-04-19T09:44:38.001Z</time></trkpt><trkpt lat="44.455408496542624" lon="9.010555461314604"><ele>131.57142857142856</ele><time>2026-04-19T09:44:41.001Z</time></trkpt><trkpt lat="44.45544993779091" lon="9.010481992407287"><ele>130.71428571428572</ele><time>2026-04-19T09:44:43.001Z</time></trkpt><trkpt lat="44.45549584023682" lon="9.010400122355058"><ele>129.85714285714283</ele><time>2026-04-19T09:44:45.001Z</time></trkpt><trkpt lat="44.455540843774806" lon="9.010323908412603"><ele>129.0</ele><time>2026-04-19T09:44:47.001Z</time></trkpt><trkpt lat="44.455587127589496" lon="9.01025142971037"><ele>129.0</ele><time>2026-04-19T09:44:49.001Z</time></trkpt><trkpt lat="44.45564179050678" lon="9.010149855211893"><ele>129.0</ele><time>2026-04-19T09:44:52.001Z</time></trkpt><trkpt lat="44.45569408589693" lon="9.010061367720883"><ele>129.0</ele><time>2026-04-19T09:44:55.001Z</time></trkpt><trkpt lat="44.455737093475776" lon="9.009972887956291"><ele>129.0</ele><time>2026-04-19T09:44:58.001Z</time></trkpt><trkpt lat="44.45577896268379" lon="9.009866443895937"><ele>129.0</ele><time>2026-04-19T09:45:01.001Z</time></trkpt><trkpt lat="44.455746657362035" lon="9.009762478153823"><ele>129.0</ele><time>2026-04-19T09:45:04.001Z</time></trkpt><trkpt lat="44.45574200171927" lon="9.009653037966364"><ele>130.57142857142856</ele><time>2026-04-19T09:45:07.001Z</time></trkpt><trkpt lat="44.455721821056166" lon="9.009548542330966"><ele>132.14285714285714</ele><time>2026-04-19T09:45:10.001Z</time></trkpt><trkpt lat="44.4556892050141" lon="9.00944719561704"><ele>133.71428571428572</ele><time>2026-04-19T09:45:14.001Z</time></trkpt><trkpt lat="44.45571383197762" lon="9.009347211047283"><ele>135.28571428571428</ele><time>2026-04-19T09:45:34.001Z</time></trkpt><trkpt lat="44.45575214740514" lon="9.009264107535985"><ele>136.85714285714286</ele><time>2026-04-19T09:46:23.002Z</time></trkpt><trkpt lat="44.45575596921902" lon="9.009168141838538"><ele>138.42857142857142</ele><time>2026-04-19T09:46:27.002Z</time></trkpt><trkpt lat="44.45576817745543" lon="9.009075367413953"><ele>140.0</ele><time>2026-04-19T09:46:30.002Z</time></trkpt><trkpt lat="44.455766582431615" lon="9.008981332437878"><ele>141.83333333333331</ele><time>2026-04-19T09:46:34Z</time></trkpt><trkpt lat="44.455743948141254" lon="9.008891915442529"><ele>143.66666666666666</ele><time>2026-04-19T09:46:38Z</time></trkpt><trkpt lat="44.45571075011103" lon="9.008801260914847"><ele>145.5</ele><time>2026-04-19T09:46:41Z</time></trkpt><trkpt lat="44.4556840598634" lon="9.008690316879806"><ele>147.33333333333334</ele><time>2026-04-19T09:46:44Z</time></trkpt><trkpt lat="44.45566394936324" lon="9.00859274493448"><ele>149.16666666666669</ele><time>2026-04-19T09:46:47Z</time></trkpt><trkpt lat="44.45563936449731" lon="9.008478446480472"><ele>151.0</ele><time>2026-04-19T09:46:50Z</time></trkpt><trkpt lat="44.455611899692336" lon="9.00838352239145"><ele>152.66666666666669</ele><time>2026-04-19T09:46:53Z</time></trkpt><trkpt lat="44.45559044808548" lon="9.008258413282638"><ele>154.33333333333334</ele><time>2026-04-19T09:46:56Z</time></trkpt><trkpt lat="44.45556485679177" lon="9.008162868382408"><ele>156.0</ele><time>2026-04-19T09:46:59Z</time></trkpt><trkpt lat="44.455538456993956" lon="9.008066642933818"><ele>157.66666666666666</ele><time>2026-04-19T09:47:02Z</time></trkpt><trkpt lat="44.45550966650139" lon="9.007976758926702"><ele>159.33333333333331</ele><time>2026-04-19T09:47:05Z</time></trkpt><trkpt lat="44.455490370618996" lon="9.00786956250902"><ele>161.0</ele><time>2026-04-19T09:47:08Z</time></trkpt><trkpt lat="44.4554793662731" lon="9.00775263505035"><ele>161.0</ele><time>2026-04-19T09:47:11.001Z</time></trkpt><trkpt lat="44.45547316804344" lon="9.007626689210129"><ele>161.0</ele><time>2026-04-19T09:47:14.001Z</time></trkpt><trkpt lat="44.455496628649456" lon="9.007539323443124"><ele>161.0</ele><time>2026-04-19T09:47:16.001Z</time></trkpt><trkpt lat="44.4555367755183" lon="9.007426650158383"><ele>161.0</ele><time>2026-04-19T09:47:19.001Z</time></trkpt><trkpt lat="44.455567300499254" lon="9.007344964407164"><ele>161.0</ele><time>2026-04-19T09:47:21.001Z</time></trkpt><trkpt lat="44.45562229059277" lon="9.007250566768608"><ele>161.0</ele><time>2026-04-19T09:47:24.001Z</time></trkpt><trkpt lat="44.45566046345001" lon="9.00716904433681"><ele>162.28571428571428</ele><time>2026-04-19T09:47:28.001Z</time></trkpt><trkpt lat="44.4556752103729" lon="9.007081385337726"><ele>163.57142857142856</ele><time>2026-04-19T09:47:33.001Z</time></trkpt><trkpt lat="44.45562513964956" lon="9.00701957293383"><ele>164.85714285714286</ele><time>2026-04-19T09:47:36.001Z</time></trkpt><trkpt lat="44.45555114314843" lon="9.006970757671683"><ele>166.14285714285714</ele><time>2026-04-19T09:47:39.001Z</time></trkpt><trkpt lat="44.45547771220131" lon="9.006940801212583"><ele>167.42857142857142</ele><time>2026-04-19T09:47:43.001Z</time></trkpt><trkpt lat="44.455399926769786" lon="9.006940160865959"><ele>168.71428571428572</ele><time>2026-04-19T09:47:47.001Z</time></trkpt><trkpt lat="44.4553287961589" lon="9.006966001056949"><ele>170.0</ele><time>2026-04-19T09:47:50.001Z</time></trkpt><trkpt lat="44.455245827544196" lon="9.00696808506394"><ele>166.57142857142858</ele><time>2026-04-19T09:47:53.001Z</time></trkpt><trkpt lat="44.45518008598425" lon="9.006974625677135"><ele>163.14285714285714</ele><time>2026-04-19T09:47:56.001Z</time></trkpt><trkpt lat="44.45511307671644" lon="9.006970146369218"><ele>159.71428571428572</ele><time>2026-04-19T09:47:59.001Z</time></trkpt><trkpt lat="44.45503524384131" lon="9.006958522765247"><ele>156.28571428571428</ele><time>2026-04-19T09:48:02.001Z</time></trkpt><trkpt lat="44.45497702908598" lon="9.00692419033153"><ele>152.85714285714286</ele><time>2026-04-19T09:48:05.001Z</time></trkpt><trkpt lat="44.454916880437295" lon="9.0068600870806"><ele>149.42857142857142</ele><time>2026-04-19T09:48:09.001Z</time></trkpt><trkpt lat="44.45483788156573" lon="9.006825555199429"><ele>146.0</ele><time>2026-04-19T09:48:34.001Z</time></trkpt><trkpt lat="44.454779663133" lon="9.006883804095917"><ele>146.0</ele><time>2026-04-19T09:48:37Z</time></trkpt><trkpt lat="44.454707090547785" lon="9.006940138301502"><ele>146.0</ele><time>2026-04-19T09:48:40Z</time></trkpt><trkpt lat="44.454640904273205" lon="9.006995694007369"><ele>146.0</ele><time>2026-04-19T09:48:43Z</time></trkpt><trkpt lat="44.45455999848527" lon="9.006991248801445"><ele>146.0</ele><time>2026-04-19T09:48:46Z</time></trkpt><trkpt lat="44.45450107070605" lon="9.006956809327196"><ele>146.0</ele><time>2026-04-19T09:48:48Z</time></trkpt><trkpt lat="44.454432194238606" lon="9.006918764446059"><ele>146.0</ele><time>2026-04-19T09:48:50Z</time></trkpt><trkpt lat="44.454370776423346" lon="9.006884568178371"><ele>146.0</ele><time>2026-04-19T09:48:52Z</time></trkpt><trkpt lat="44.454287439062576" lon="9.006840731086172"><ele>145.14285714285714</ele><time>2026-04-19T09:48:55Z</time></trkpt><trkpt lat="44.45422289101522" lon="9.006803605338838"><ele>144.28571428571428</ele><time>2026-04-19T09:48:57Z</time></trkpt><trkpt lat="44.45413828413025" lon="9.00675802461695"><ele>143.42857142857144</ele><time>2026-04-19T09:49:00Z</time></trkpt><trkpt lat="44.454058010882264" lon="9.006743731968252"><ele>142.57142857142856</ele><time>2026-04-19T09:49:03Z</time></trkpt><trkpt lat="44.454015678628224" lon="9.006824349016224"><ele>141.71428571428572</ele><time>2026-04-19T09:49:06Z</time></trkpt><trkpt lat="44.453973676397254" lon="9.006899777284861"><ele>140.85714285714286</ele><time>2026-04-19T09:49:10Z</time></trkpt><trkpt lat="44.45391689299027" lon="9.006946957291067"><ele>140.0</ele><time>2026-04-19T09:49:16Z</time></trkpt><trkpt lat="44.45384652233735" lon="9.006949358897478"><ele>140.0</ele><time>2026-04-19T09:49:21.001Z</time></trkpt><trkpt lat="44.453761621542554" lon="9.006944174590181"><ele>140.0</ele><time>2026-04-19T09:49:24.001Z</time></trkpt><trkpt lat="44.45368802554535" lon="9.00697059302741"><ele>140.0</ele><time>2026-04-19T09:49:27.001Z</time></trkpt><trkpt lat="44.453600660823604" lon="9.006977729079292"><ele>140.0</ele><time>2026-04-19T09:49:30.001Z</time></trkpt><trkpt lat="44.45353618564353" lon="9.007004047830687"><ele>140.0</ele><time>2026-04-19T09:49:32.001Z</time></trkpt><trkpt lat="44.453465094487505" lon="9.007015107806081"><ele>140.0</ele><time>2026-04-19T09:49:35.001Z</time></trkpt><trkpt lat="44.45338973128506" lon="9.007001621045942"><ele>140.0</ele><time>2026-04-19T09:49:38.001Z</time></trkpt><trkpt lat="44.453313031240164" lon="9.006947461448393"><ele>140.0</ele><time>2026-04-19T09:49:41.001Z</time></trkpt><trkpt lat="44.45323935377927" lon="9.006889322143929"><ele>140.0</ele><time>2026-04-19T09:49:44.001Z</time></trkpt><trkpt lat="44.45317535017325" lon="9.00679308789306"><ele>140.0</ele><time>2026-04-19T09:49:47.001Z</time></trkpt><trkpt lat="44.45314189984848" lon="9.006718236817804"><ele>140.0</ele><time>2026-04-19T09:49:49.001Z</time></trkpt><trkpt lat="44.45310400448221" lon="9.00660399892745"><ele>140.0</ele><time>2026-04-19T09:49:52.001Z</time></trkpt><trkpt lat="44.45310380132451" lon="9.006479757683161"><ele>138.66666666666666</ele><time>2026-04-19T09:49:55.001Z</time></trkpt><trkpt lat="44.45307849453807" lon="9.00636616219372"><ele>137.33333333333331</ele><time>2026-04-19T09:49:58.001Z</time></trkpt><trkpt lat="44.45302243533075" lon="9.00627476980382"><ele>136.0</ele><time>2026-04-19T09:50:01.001Z</time></trkpt><trkpt lat="44.45296574988739" lon="9.006188545312941"><ele>134.66666666666666</ele><time>2026-04-19T09:50:04.001Z</time></trkpt><trkpt lat="44.45292434888661" lon="9.006105602523117"><ele>133.33333333333334</ele><time>2026-04-19T09:50:07.001Z</time></trkpt><trkpt lat="44.45289870299438" lon="9.006008433007107"><ele>132.0</ele><time>2026-04-19T09:50:10.001Z</time></trkpt><trkpt lat="44.452890606228564" lon="9.005899130637717"><ele>133.0</ele><time>2026-04-19T09:50:13.001Z</time></trkpt><trkpt lat="44.4528744088932" lon="9.005807057751674"><ele>134.0</ele><time>2026-04-19T09:50:15.001Z</time></trkpt><trkpt lat="44.452855805212145" lon="9.005707658770477"><ele>135.0</ele><time>2026-04-19T09:50:19.001Z</time></trkpt><trkpt lat="44.45285404274644" lon="9.005616207488828"><ele>136.0</ele><time>2026-04-19T09:50:23.001Z</time></trkpt><trkpt lat="44.452844267054196" lon="9.005512607244214"><ele>137.0</ele><time>2026-04-19T09:50:28.001Z</time></trkpt><trkpt lat="44.45282068329187" lon="9.005403925414713"><ele>138.0</ele><time>2026-04-19T09:50:34.001Z</time></trkpt><trkpt lat="44.452738908107186" lon="9.00537019654598"><ele>139.0</ele><time>2026-04-19T09:50:38.001Z</time></trkpt><trkpt lat="44.452633927947936" lon="9.005330003399033"><ele>139.0</ele><time>2026-04-19T09:50:40.001Z</time></trkpt><trkpt lat="44.45259156096606" lon="9.005254885065435"><ele>139.0</ele><time>2026-04-19T09:50:42Z</time></trkpt><trkpt lat="44.45253890343494" lon="9.005159747440178"><ele>139.0</ele><time>2026-04-19T09:50:44Z</time></trkpt><trkpt lat="44.4525001253536" lon="9.005073254380157"><ele>139.0</ele><time>2026-04-19T09:50:47Z</time></trkpt><trkpt lat="44.45246855435484" lon="9.004992349845523"><ele>139.0</ele><time>2026-04-19T09:50:48Z</time></trkpt><trkpt lat="44.452437573456564" lon="9.004870670484872"><ele>139.0</ele><time>2026-04-19T09:50:51Z</time></trkpt><trkpt lat="44.45239660737805" lon="9.004765613592777"><ele>139.42857142857142</ele><time>2026-04-19T09:50:54Z</time></trkpt><trkpt lat="44.45238612562142" lon="9.004658676133856"><ele>139.85714285714286</ele><time>2026-04-19T09:50:58Z</time></trkpt><trkpt lat="44.45234556385897" lon="9.004566380249976"><ele>140.28571428571428</ele><time>2026-04-19T09:51:01Z</time></trkpt><trkpt lat="44.452302672606045" lon="9.0044649671555"><ele>140.71428571428572</ele><time>2026-04-19T09:51:05Z</time></trkpt><trkpt lat="44.45225802983996" lon="9.004383152882832"><ele>141.14285714285714</ele><time>2026-04-19T09:51:09Z</time></trkpt><trkpt lat="44.452191736742094" lon="9.004365113847635"><ele>141.57142857142856</ele><time>2026-04-19T09:51:12Z</time></trkpt><trkpt lat="44.452126689576595" lon="9.004361844046642"><ele>142.0</ele><time>2026-04-19T09:51:15Z</time></trkpt><trkpt lat="44.45211265321585" lon="9.004264926133184"><ele>140.42857142857142</ele><time>2026-04-19T09:52:28.001Z</time></trkpt><trkpt lat="44.45207886163229" lon="9.004168946615165"><ele>138.85714285714283</ele><time>2026-04-19T09:53:55.001Z</time></trkpt><trkpt lat="44.4520458571549" lon="9.004077409959157"><ele>137.28571428571428</ele><time>2026-04-19T09:53:59.001Z</time></trkpt><trkpt lat="44.45201018040783" lon="9.003992976655029"><ele>135.71428571428572</ele><time>2026-04-19T09:54:02.001Z</time></trkpt><trkpt lat="44.45199990340252" lon="9.003888720880807"><ele>134.14285714285717</ele><time>2026-04-19T09:54:05.001Z</time></trkpt><trkpt lat="44.45200535177513" lon="9.003799772986701"><ele>132.57142857142858</ele><time>2026-04-19T09:54:08.001Z</time></trkpt><trkpt lat="44.45203207009448" lon="9.003697485699726"><ele>131.0</ele><time>2026-04-19T09:54:11.001Z</time></trkpt><trkpt lat="44.45200608118593" lon="9.003589851688975"><ele>131.0</ele><time>2026-04-19T09:54:15.001Z</time></trkpt><trkpt lat="44.45195914234014" lon="9.003512582052062"><ele>131.0</ele><time>2026-04-19T09:54:18.001Z</time></trkpt><trkpt lat="44.45192876365068" lon="9.003434843824863"><ele>131.0</ele><time>2026-04-19T09:54:20.001Z</time></trkpt><trkpt lat="44.45190309167436" lon="9.003349622543602"><ele>131.0</ele><time>2026-04-19T09:54:23.001Z</time></trkpt><trkpt lat="44.45188141612136" lon="9.003235644551397"><ele>131.0</ele><time>2026-04-19T09:54:25.001Z</time></trkpt><trkpt lat="44.45184920929941" lon="9.003092907991993"><ele>131.0</ele><time>2026-04-19T09:54:27.001Z</time></trkpt><trkpt lat="44.45179180304775" lon="9.002946978026026"><ele>132.0</ele><time>2026-04-19T09:54:29.001Z</time></trkpt><trkpt lat="44.45172649930034" lon="9.002859422937506"><ele>133.0</ele><time>2026-04-19T09:54:31.001Z</time></trkpt><trkpt lat="44.451677634045666" lon="9.002750732351453"><ele>134.0</ele><time>2026-04-19T09:54:33.001Z</time></trkpt><trkpt lat="44.45163291174815" lon="9.002652471649423"><ele>135.0</ele><time>2026-04-19T09:54:35.001Z</time></trkpt><trkpt lat="44.4516071857767" lon="9.002554344061382"><ele>136.0</ele><time>2026-04-19T09:54:37.001Z</time></trkpt><trkpt lat="44.45157858776097" lon="9.002453759487649"><ele>137.0</ele><time>2026-04-19T09:54:39.001Z</time></trkpt><trkpt lat="44.45154111440158" lon="9.002375462725812"><ele>137.00000000000003</ele><time>2026-04-19T09:54:41.001Z</time></trkpt><trkpt lat="44.45152873417801" lon="9.002286900534935"><ele>137.0</ele><time>2026-04-19T09:54:44.001Z</time></trkpt><trkpt lat="44.451493998464095" lon="9.00219607658407"><ele>137.0</ele><time>2026-04-19T09:54:50.001Z</time></trkpt><trkpt lat="44.45142791648902" lon="9.002133814937062"><ele>137.0</ele><time>2026-04-19T09:54:54Z</time></trkpt><trkpt lat="44.45140265874102" lon="9.002046322701624"><ele>137.0</ele><time>2026-04-19T09:54:57Z</time></trkpt><trkpt lat="44.451434772292856" lon="9.001927180548591"><ele>137.00000000000003</ele><time>2026-04-19T09:55:00Z</time></trkpt><trkpt lat="44.451454822427614" lon="9.001836963054016"><ele>137.0</ele><time>2026-04-19T09:55:02Z</time></trkpt><trkpt lat="44.45147489603086" lon="9.001735315496282"><ele>135.85714285714286</ele><time>2026-04-19T09:55:04Z</time></trkpt><trkpt lat="44.45149554119434" lon="9.001641634653302"><ele>134.71428571428572</ele><time>2026-04-19T09:55:06Z</time></trkpt><trkpt lat="44.45151471124216" lon="9.001539617011439"><ele>133.57142857142856</ele><time>2026-04-19T09:55:08Z</time></trkpt><trkpt lat="44.45153294828055" lon="9.00145059666886"><ele>132.42857142857144</ele><time>2026-04-19T09:55:10Z</time></trkpt><trkpt lat="44.45155508684355" lon="9.001357003213332"><ele>131.28571428571428</ele><time>2026-04-19T09:55:12Z</time></trkpt><trkpt lat="44.45158262963545" lon="9.00127351243967"><ele>130.14285714285714</ele><time>2026-04-19T09:55:14Z</time></trkpt><trkpt lat="44.451631795030885" lon="9.001210706908184"><ele>129.0</ele><time>2026-04-19T09:55:16Z</time></trkpt><trkpt lat="44.45167883861956" lon="9.001135191270714"><ele>129.0</ele><time>2026-04-19T09:55:18Z</time></trkpt><trkpt lat="44.45172621126133" lon="9.00105580027264"><ele>129.0</ele><time>2026-04-19T09:55:20Z</time></trkpt><trkpt lat="44.45176891738058" lon="9.000983383317946"><ele>129.0</ele><time>2026-04-19T09:55:22Z</time></trkpt><trkpt lat="44.45180907435942" lon="9.000914324437232"><ele>129.0</ele><time>2026-04-19T09:55:24Z</time></trkpt><trkpt lat="44.451859371695086" lon="9.000811200628881"><ele>129.0</ele><time>2026-04-19T09:55:27Z</time></trkpt><trkpt lat="44.451890644119075" lon="9.000729710971859"><ele>129.0</ele><time>2026-04-19T09:55:29Z</time></trkpt><trkpt lat="44.45194255845677" lon="9.00062177506689"><ele>130.16666666666666</ele><time>2026-04-19T09:55:32Z</time></trkpt><trkpt lat="44.45198035175192" lon="9.000544514476255"><ele>131.33333333333334</ele><time>2026-04-19T09:55:34Z</time></trkpt><trkpt lat="44.45201892012755" lon="9.000461273476953"><ele>132.5</ele><time>2026-04-19T09:55:36Z</time></trkpt><trkpt lat="44.452074664291835" lon="9.00036419631849"><ele>133.66666666666669</ele><time>2026-04-19T09:55:39Z</time></trkpt><trkpt lat="44.452124330567464" lon="9.000268648608884"><ele>134.83333333333334</ele><time>2026-04-19T09:55:42Z</time></trkpt><trkpt lat="44.452061991376226" lon="9.000203229459757"><ele>136.0</ele><time>2026-04-19T09:55:45Z</time></trkpt><trkpt lat="44.45198243119282" lon="9.000144742149773"><ele>135.99999999999997</ele><time>2026-04-19T09:55:48Z</time></trkpt><trkpt lat="44.451910172155834" lon="9.000100485073004"><ele>136.0</ele><time>2026-04-19T09:55:50Z</time></trkpt><trkpt lat="44.451847236035626" lon="9.000054000630076"><ele>136.0</ele><time>2026-04-19T09:55:52.001Z</time></trkpt><trkpt lat="44.451780732719804" lon="9.000004867792164"><ele>136.0</ele><time>2026-04-19T09:55:54.001Z</time></trkpt><trkpt lat="44.45171986414324" lon="8.999965627155566"><ele>136.0</ele><time>2026-04-19T09:55:56.001Z</time></trkpt><trkpt lat="44.45166368545525" lon="8.999925045996328"><ele>135.99999999999997</ele><time>2026-04-19T09:55:58.001Z</time></trkpt><trkpt lat="44.451592764639905" lon="8.999874990480686"><ele>136.0</ele><time>2026-04-19T09:56:01.001Z</time></trkpt><trkpt lat="44.45154293358425" lon="8.999778543421016"><ele>135.99999999999997</ele><time>2026-04-19T09:56:04.001Z</time></trkpt><trkpt lat="44.45150590919877" lon="8.999661732398707"><ele>136.0</ele><time>2026-04-19T09:56:07.001Z</time></trkpt><trkpt lat="44.45148087350419" lon="8.999571021367844"><ele>136.0</ele><time>2026-04-19T09:56:09.001Z</time></trkpt><trkpt lat="44.4514505611481" lon="8.999478005005294"><ele>136.0</ele><time>2026-04-19T09:56:11.001Z</time></trkpt><trkpt lat="44.45142417149237" lon="8.999386612448603"><ele>136.0</ele><time>2026-04-19T09:56:13.001Z</time></trkpt><trkpt lat="44.45139936105758" lon="8.999295397340987"><ele>135.99999999999997</ele><time>2026-04-19T09:56:15.001Z</time></trkpt><trkpt lat="44.45137592839221" lon="8.999212892980763"><ele>136.0</ele><time>2026-04-19T09:56:17.001Z</time></trkpt><trkpt lat="44.45135161819509" lon="8.999128433496155"><ele>137.0</ele><time>2026-04-19T09:56:19.001Z</time></trkpt><trkpt lat="44.451296074173385" lon="8.999047865914934"><ele>138.0</ele><time>2026-04-19T09:56:22.001Z</time></trkpt><trkpt lat="44.4512881462006" lon="8.998938863428881"><ele>139.0</ele><time>2026-04-19T09:56:26.001Z</time></trkpt><trkpt lat="44.451340329815814" lon="8.998845492568474"><ele>140.0</ele><time>2026-04-19T09:56:29.001Z</time></trkpt><trkpt lat="44.451394216651956" lon="8.998767826379218"><ele>141.0</ele><time>2026-04-19T09:56:32.001Z</time></trkpt><trkpt lat="44.45144809015818" lon="8.99866763503074"><ele>142.0</ele><time>2026-04-19T09:56:35.001Z</time></trkpt><trkpt lat="44.45149310780555" lon="8.99856503388343"><ele>142.0</ele><time>2026-04-19T09:56:38.001Z</time></trkpt><trkpt lat="44.451546717202056" lon="8.998457660608711"><ele>142.0</ele><time>2026-04-19T09:56:41.001Z</time></trkpt><trkpt lat="44.45160540516186" lon="8.998391745800337"><ele>142.0</ele><time>2026-04-19T09:56:43.001Z</time></trkpt><trkpt lat="44.451676405444175" lon="8.998307631620303"><ele>142.0</ele><time>2026-04-19T09:56:46.001Z</time></trkpt><trkpt lat="44.451715250067" lon="8.99820344564708"><ele>142.0</ele><time>2026-04-19T09:56:49.001Z</time></trkpt><trkpt lat="44.451747250552735" lon="8.998120482468918"><ele>142.0</ele><time>2026-04-19T09:56:52.001Z</time></trkpt><trkpt lat="44.45177323614593" lon="8.998012725025456"><ele>140.66666666666669</ele><time>2026-04-19T09:56:55.001Z</time></trkpt><trkpt lat="44.45179274573989" lon="8.99790909522444"><ele>139.33333333333334</ele><time>2026-04-19T09:56:58.001Z</time></trkpt><trkpt lat="44.45183002621409" lon="8.997836429169942"><ele>138.0</ele><time>2026-04-19T09:57:01Z</time></trkpt><trkpt lat="44.451921381220295" lon="8.997797973950428"><ele>136.66666666666666</ele><time>2026-04-19T09:57:05Z</time></trkpt><trkpt lat="44.452001018946994" lon="8.997780735898955"><ele>135.33333333333331</ele><time>2026-04-19T09:57:07Z</time></trkpt><trkpt lat="44.452066898171175" lon="8.997741719091945"><ele>134.0</ele><time>2026-04-19T09:57:09Z</time></trkpt><trkpt lat="44.45212661021086" lon="8.997703058512963"><ele>135.83333333333331</ele><time>2026-04-19T09:57:11Z</time></trkpt><trkpt lat="44.452175691768076" lon="8.997616984685019"><ele>137.66666666666666</ele><time>2026-04-19T09:57:13Z</time></trkpt><trkpt lat="44.452211964161954" lon="8.997534688620194"><ele>139.5</ele><time>2026-04-19T09:57:15Z</time></trkpt><trkpt lat="44.45225459445471" lon="8.99745064821237"><ele>141.33333333333334</ele><time>2026-04-19T09:57:17Z</time></trkpt><trkpt lat="44.45226823910619" lon="8.997345846916417"><ele>143.16666666666669</ele><time>2026-04-19T09:57:20Z</time></trkpt><trkpt lat="44.452280501494165" lon="8.997233183528321"><ele>145.0</ele><time>2026-04-19T09:57:23Z</time></trkpt><trkpt lat="44.452288247032385" lon="8.997123414262765"><ele>145.0</ele><time>2026-04-19T09:57:26Z</time></trkpt><trkpt lat="44.45231754948407" lon="8.997023060582464"><ele>145.0</ele><time>2026-04-19T09:57:29Z</time></trkpt><trkpt lat="44.45236532682915" lon="8.996960600711562"><ele>145.0</ele><time>2026-04-19T09:57:31Z</time></trkpt><trkpt lat="44.45241322556965" lon="8.996895102186167"><ele>145.0</ele><time>2026-04-19T09:57:33Z</time></trkpt><trkpt lat="44.452464498753486" lon="8.996831724198367"><ele>145.0</ele><time>2026-04-19T09:57:35Z</time></trkpt><trkpt lat="44.45251937193477" lon="8.996782109610205"><ele>145.0</ele><time>2026-04-19T09:57:37Z</time></trkpt><trkpt lat="44.45260324473496" lon="8.996747789369604"><ele>145.0</ele><time>2026-04-19T09:57:40Z</time></trkpt><trkpt lat="44.452662205666726" lon="8.996683392892349"><ele>143.71428571428572</ele><time>2026-04-19T09:57:43Z</time></trkpt><trkpt lat="44.4526869172297" lon="8.996594079841346"><ele>142.42857142857144</ele><time>2026-04-19T09:57:46Z</time></trkpt><trkpt lat="44.45263070187276" lon="8.996536212829252"><ele>141.14285714285714</ele><time>2026-04-19T09:57:49Z</time></trkpt><trkpt lat="44.45256852915949" lon="8.99648816395202"><ele>139.85714285714286</ele><time>2026-04-19T09:57:52Z</time></trkpt><trkpt lat="44.45250475251581" lon="8.996435873538669"><ele>138.57142857142856</ele><time>2026-04-19T09:57:55Z</time></trkpt><trkpt lat="44.45245347150927" lon="8.996373532133818"><ele>137.28571428571428</ele><time>2026-04-19T09:57:58Z</time></trkpt><trkpt lat="44.45241140609302" lon="8.996293999035478"><ele>136.0</ele><time>2026-04-19T09:58:01Z</time></trkpt><trkpt lat="44.452398133494604" lon="8.996189654464938"><ele>136.0</ele><time>2026-04-19T09:58:04Z</time></trkpt><trkpt lat="44.45240790075008" lon="8.996080139974511"><ele>136.0</ele><time>2026-04-19T09:58:07Z</time></trkpt><trkpt lat="44.4524339048568" lon="8.995963742754924"><ele>136.0</ele><time>2026-04-19T09:58:10Z</time></trkpt><trkpt lat="44.45248097633915" lon="8.995870381347947"><ele>136.0</ele><time>2026-04-19T09:58:13Z</time></trkpt><trkpt lat="44.452496562070436" lon="8.995784524753512"><ele>136.0</ele><time>2026-04-19T09:58:15.001Z</time></trkpt><trkpt lat="44.45251967702795" lon="8.995678290705516"><ele>136.0</ele><time>2026-04-19T09:58:18.001Z</time></trkpt><trkpt lat="44.452552242698765" lon="8.995597908187696"><ele>135.83333333333334</ele><time>2026-04-19T09:58:20.001Z</time></trkpt><trkpt lat="44.45258298429568" lon="8.995487412375326"><ele>135.66666666666669</ele><time>2026-04-19T09:58:23.001Z</time></trkpt><trkpt lat="44.452564639639036" lon="8.995380448922571"><ele>135.5</ele><time>2026-04-19T09:58:26.001Z</time></trkpt><trkpt lat="44.452516198024696" lon="8.995315480436474"><ele>135.33333333333334</ele><time>2026-04-19T09:58:28.001Z</time></trkpt><trkpt lat="44.45246336218277" lon="8.995263948740842"><ele>135.16666666666666</ele><time>2026-04-19T09:58:30.001Z</time></trkpt><trkpt lat="44.45238705500411" lon="8.99518870154725"><ele>135.0</ele><time>2026-04-19T09:58:33.001Z</time></trkpt><trkpt lat="44.45234153484869" lon="8.995120338997221"><ele>135.0</ele><time>2026-04-19T09:58:35.001Z</time></trkpt><trkpt lat="44.45229393806571" lon="8.99505524995794"><ele>135.0</ele><time>2026-04-19T09:58:37.001Z</time></trkpt><trkpt lat="44.45223361000575" lon="8.994971804202262"><ele>135.0</ele><time>2026-04-19T09:58:40.001Z</time></trkpt><trkpt lat="44.45220019084591" lon="8.99488122659416"><ele>135.0</ele><time>2026-04-19T09:58:43.001Z</time></trkpt><trkpt lat="44.45213062855134" lon="8.994836652249703"><ele>135.0</ele><time>2026-04-19T09:58:46.001Z</time></trkpt><trkpt lat="44.45207189486925" lon="8.994777545539137"><ele>135.0</ele><time>2026-04-19T09:58:49.001Z</time></trkpt><trkpt lat="44.452036223011895" lon="8.994689386499106"><ele>135.0</ele><time>2026-04-19T09:58:52.001Z</time></trkpt><trkpt lat="44.4519827828899" lon="8.994575384406065"><ele>136.0</ele><time>2026-04-19T09:58:56.001Z</time></trkpt><trkpt lat="44.45197030113643" lon="8.994458924339176"><ele>137.0</ele><time>2026-04-19T09:58:59.001Z</time></trkpt><trkpt lat="44.452014465045416" lon="8.994359275326017"><ele>138.0</ele><time>2026-04-19T09:59:02.001Z</time></trkpt><trkpt lat="44.45209011998604" lon="8.994320960871452"><ele>139.0</ele><time>2026-04-19T09:59:05.001Z</time></trkpt><trkpt lat="44.45216951735401" lon="8.994325796334813"><ele>140.0</ele><time>2026-04-19T09:59:08Z</time></trkpt><trkpt lat="44.452244097275106" lon="8.994315684095328"><ele>141.0</ele><time>2026-04-19T09:59:11Z</time></trkpt><trkpt lat="44.45233976221973" lon="8.994318962036145"><ele>141.0</ele><time>2026-04-19T09:59:14Z</time></trkpt><trkpt lat="44.45242458150325" lon="8.994314376390623"><ele>141.0</ele><time>2026-04-19T09:59:17Z</time></trkpt><trkpt lat="44.452487793787604" lon="8.994325121562222"><ele>141.0</ele><time>2026-04-19T09:59:19Z</time></trkpt><trkpt lat="44.452559398994396" lon="8.994308753463999"><ele>141.0</ele><time>2026-04-19T09:59:22Z</time></trkpt><trkpt lat="44.4526429539492" lon="8.99430070833995"><ele>141.0</ele><time>2026-04-19T09:59:25Z</time></trkpt><trkpt lat="44.45271238429114" lon="8.994297328463981"><ele>141.0</ele><time>2026-04-19T09:59:28Z</time></trkpt><trkpt lat="44.4528088210446" lon="8.994260813356304"><ele>141.0</ele><time>2026-04-19T09:59:33Z</time></trkpt><trkpt lat="44.45289684653525" lon="8.99422709744326"><ele>141.0</ele><time>2026-04-19T09:59:36Z</time></trkpt><trkpt lat="44.45298053488814" lon="8.994180710317952"><ele>141.0</ele><time>2026-04-19T09:59:39Z</time></trkpt><trkpt lat="44.45305085850211" lon="8.994148216099328"><ele>141.0</ele><time>2026-04-19T09:59:42Z</time></trkpt><trkpt lat="44.453136421824155" lon="8.994112592448008"><ele>141.0</ele><time>2026-04-19T09:59:45Z</time></trkpt><trkpt lat="44.453199030617014" lon="8.994092246325206"><ele>141.0</ele><time>2026-04-19T09:59:47Z</time></trkpt><trkpt lat="44.45326063920326" lon="8.994051738912466"><ele>140.85714285714286</ele><time>2026-04-19T09:59:49Z</time></trkpt><trkpt lat="44.453326335151154" lon="8.994001994766537"><ele>140.71428571428572</ele><time>2026-04-19T09:59:51Z</time></trkpt><trkpt lat="44.45338832648498" lon="8.993943090858757"><ele>140.57142857142856</ele><time>2026-04-19T09:59:53Z</time></trkpt><trkpt lat="44.45344395046621" lon="8.99388317015645"><ele>140.42857142857144</ele><time>2026-04-19T09:59:55Z</time></trkpt><trkpt lat="44.45350225791469" lon="8.993844305384156"><ele>140.28571428571428</ele><time>2026-04-19T09:59:57Z</time></trkpt><trkpt lat="44.45357511150551" lon="8.99378024269267"><ele>140.14285714285714</ele><time>2026-04-19T10:00:00Z</time></trkpt><trkpt lat="44.45364835760659" lon="8.993756654616934"><ele>140.0</ele><time>2026-04-19T10:00:03Z</time></trkpt><trkpt lat="44.45371849557387" lon="8.993750220706188"><ele>144.83333333333331</ele><time>2026-04-19T10:00:06Z</time></trkpt><trkpt lat="44.453797125474054" lon="8.993768194187899"><ele>149.66666666666666</ele><time>2026-04-19T10:00:10Z</time></trkpt><trkpt lat="44.45386151273393" lon="8.993753913706232"><ele>154.5</ele><time>2026-04-19T10:00:14Z</time></trkpt><trkpt lat="44.45386911998476" lon="8.993618641279655"><ele>159.33333333333334</ele><time>2026-04-19T10:00:17Z</time></trkpt><trkpt lat="44.45383285865228" lon="8.993540133293997"><ele>164.16666666666669</ele><time>2026-04-19T10:00:19Z</time></trkpt><trkpt lat="44.45380914957282" lon="8.993431236675978"><ele>169.0</ele><time>2026-04-19T10:00:22.001Z</time></trkpt><trkpt lat="44.453793119278835" lon="8.993342536499506"><ele>167.28571428571428</ele><time>2026-04-19T10:00:32.001Z</time></trkpt><trkpt lat="44.453746299419095" lon="8.993271291667819"><ele>165.57142857142856</ele><time>2026-04-19T10:01:20Z</time></trkpt><trkpt lat="44.453693229173524" lon="8.993218329537214"><ele>163.85714285714283</ele><time>2026-04-19T10:01:28Z</time></trkpt><trkpt lat="44.453656625799155" lon="8.993144352758796"><ele>162.14285714285714</ele><time>2026-04-19T10:01:39Z</time></trkpt><trkpt lat="44.45368663203351" lon="8.993058526995174"><ele>160.42857142857142</ele><time>2026-04-19T10:01:48Z</time></trkpt><trkpt lat="44.45374927220253" lon="8.993018713766977"><ele>158.7142857142857</ele><time>2026-04-19T10:01:55Z</time></trkpt><trkpt lat="44.45381465309465" lon="8.992971041493115"><ele>157.0</ele><time>2026-04-19T10:02:04Z</time></trkpt><trkpt lat="44.45387862503079" lon="8.992946374560475"><ele>156.99999999999997</ele><time>2026-04-19T10:02:17Z</time></trkpt><trkpt lat="44.45392936549914" lon="8.992872981902533"><ele>157.0</ele><time>2026-04-19T10:02:49Z</time></trkpt><trkpt lat="44.453969234335325" lon="8.99279075520051"><ele>157.0</ele><time>2026-04-19T10:02:53Z</time></trkpt><trkpt lat="44.45400018023939" lon="8.992702772684241"><ele>157.0</ele><time>2026-04-19T10:03:09.001Z</time></trkpt><trkpt lat="44.45402987440885" lon="8.992602004141647"><ele>157.0</ele><time>2026-04-19T10:03:13.001Z</time></trkpt><trkpt lat="44.45406309161063" lon="8.992505492239193"><ele>156.99999999999997</ele><time>2026-04-19T10:03:17.001Z</time></trkpt><trkpt lat="44.454032935223935" lon="8.992589216747032"><ele>157.0</ele><time>2026-04-19T10:03:40Z</time></trkpt><trkpt lat="44.45400510221367" lon="8.992678276114528"><ele>156.99999999999997</ele><time>2026-04-19T10:03:46Z</time></trkpt><trkpt lat="44.45396631341961" lon="8.992749532890796"><ele>157.0</ele><time>2026-04-19T10:03:56Z</time></trkpt><trkpt lat="44.45399050512856" lon="8.992660015084573"><ele>157.0</ele><time>2026-04-19T10:04:39Z</time></trkpt><trkpt lat="44.45401975400915" lon="8.992572177949407"><ele>157.0</ele><time>2026-04-19T10:04:49Z</time></trkpt><trkpt lat="44.45405320226982" lon="8.992470323857464"><ele>157.0</ele><time>2026-04-19T10:04:54.001Z</time></trkpt><trkpt lat="44.4540270808892" lon="8.992372219352623"><ele>156.99999999999997</ele><time>2026-04-19T10:05:02.001Z</time></trkpt><trkpt lat="44.45405659657154" lon="8.9922577638569"><ele>157.0</ele><time>2026-04-19T10:05:04.001Z</time></trkpt><trkpt lat="44.45407491402891" lon="8.992158163751045"><ele>154.33333333333334</ele><time>2026-04-19T10:05:07.001Z</time></trkpt><trkpt lat="44.45410612667932" lon="8.992037461314133"><ele>151.66666666666669</ele><time>2026-04-19T10:05:09.001Z</time></trkpt><trkpt lat="44.454133040527445" lon="8.991935242577926"><ele>149.0</ele><time>2026-04-19T10:05:11.001Z</time></trkpt><trkpt lat="44.454150425243284" lon="8.991844262076569"><ele>146.33333333333334</ele><time>2026-04-19T10:05:13.001Z</time></trkpt><trkpt lat="44.45419322387086" lon="8.991732671905183"><ele>143.66666666666666</ele><time>2026-04-19T10:05:16.001Z</time></trkpt><trkpt lat="44.45426733272913" lon="8.991654848037797"><ele>141.0</ele><time>2026-04-19T10:05:19.001Z</time></trkpt><trkpt lat="44.454354222815034" lon="8.991663021571231"><ele>141.0</ele><time>2026-04-19T10:05:22.001Z</time></trkpt><trkpt lat="44.45441851394948" lon="8.991691912397144"><ele>141.0</ele><time>2026-04-19T10:05:25Z</time></trkpt><trkpt lat="44.45448878471998" lon="8.991709562491453"><ele>141.0</ele><time>2026-04-19T10:05:29Z</time></trkpt><trkpt lat="44.454554734780366" lon="8.991713972927965"><ele>141.0</ele><time>2026-04-19T10:05:33Z</time></trkpt><trkpt lat="44.454618598052214" lon="8.991706353424153"><ele>141.0</ele><time>2026-04-19T10:05:37Z</time></trkpt><trkpt lat="44.45470049903911" lon="8.991693318266215"><ele>141.0</ele><time>2026-04-19T10:05:41Z</time></trkpt><trkpt lat="44.45476397749165" lon="8.991673964830603"><ele>141.0</ele><time>2026-04-19T10:05:45Z</time></trkpt><trkpt lat="44.45484744066435" lon="8.991700039783652"><ele>142.57142857142858</ele><time>2026-04-19T10:05:48Z</time></trkpt><trkpt lat="44.45491725308585" lon="8.991676824544893"><ele>144.14285714285714</ele><time>2026-04-19T10:05:51Z</time></trkpt><trkpt lat="44.454983027274416" lon="8.991655909150397"><ele>145.71428571428572</ele><time>2026-04-19T10:05:54Z</time></trkpt><trkpt lat="44.45504563185882" lon="8.991623345626882"><ele>147.28571428571428</ele><time>2026-04-19T10:05:58Z</time></trkpt><trkpt lat="44.45511049164342" lon="8.991606004174052"><ele>148.85714285714286</ele><time>2026-04-19T10:06:02Z</time></trkpt><trkpt lat="44.45515944679857" lon="8.991546208184685"><ele>150.42857142857142</ele><time>2026-04-19T10:06:07Z</time></trkpt><trkpt lat="44.45516823673936" lon="8.991456140756721"><ele>152.0</ele><time>2026-04-19T10:06:11Z</time></trkpt><trkpt lat="44.455109262053156" lon="8.991374428606962"><ele>152.0</ele><time>2026-04-19T10:06:15Z</time></trkpt><trkpt lat="44.45506781511401" lon="8.991270651060658"><ele>152.0</ele><time>2026-04-19T10:06:19Z</time></trkpt><trkpt lat="44.45503070178435" lon="8.991188927434012"><ele>152.0</ele><time>2026-04-19T10:06:23Z</time></trkpt><trkpt lat="44.45501166163143" lon="8.991101581151907"><ele>152.0</ele><time>2026-04-19T10:06:27Z</time></trkpt><trkpt lat="44.454971313549" lon="8.991028968324095"><ele>152.0</ele><time>2026-04-19T10:07:01Z</time></trkpt><trkpt lat="44.45494224337214" lon="8.990943013085584"><ele>152.0</ele><time>2026-04-19T10:07:04.001Z</time></trkpt><trkpt lat="44.454903883618016" lon="8.99086358769942"><ele>152.0</ele><time>2026-04-19T10:07:07.001Z</time></trkpt><trkpt lat="44.45487640782563" lon="8.990756586530543"><ele>150.5</ele><time>2026-04-19T10:07:10.001Z</time></trkpt><trkpt lat="44.45487755601532" lon="8.990644992474733"><ele>149.0</ele><time>2026-04-19T10:07:13.001Z</time></trkpt><trkpt lat="44.454866490932204" lon="8.990521565136254"><ele>147.5</ele><time>2026-04-19T10:07:16.001Z</time></trkpt><trkpt lat="44.45484558374785" lon="8.990408750811113"><ele>146.0</ele><time>2026-04-19T10:07:19.001Z</time></trkpt><trkpt lat="44.454875649097936" lon="8.990289415634965"><ele>144.5</ele><time>2026-04-19T10:07:22.001Z</time></trkpt><trkpt lat="44.45490196238843" lon="8.990201878378482"><ele>143.0</ele><time>2026-04-19T10:07:24.001Z</time></trkpt><trkpt lat="44.454933795909234" lon="8.990088489076296"><ele>141.0</ele><time>2026-04-19T10:07:27.001Z</time></trkpt><trkpt lat="44.454989471367035" lon="8.989996641960378"><ele>139.0</ele><time>2026-04-19T10:07:30Z</time></trkpt><trkpt lat="44.45504914867479" lon="8.989912975768672"><ele>137.0</ele><time>2026-04-19T10:07:33Z</time></trkpt><trkpt lat="44.455100443852515" lon="8.989853039078232"><ele>135.0</ele><time>2026-04-19T10:07:35Z</time></trkpt><trkpt lat="44.45517336089398" lon="8.989775679485504"><ele>133.0</ele><time>2026-04-19T10:07:38Z</time></trkpt><trkpt lat="44.45523369334145" lon="8.989678835501936"><ele>131.0</ele><time>2026-04-19T10:07:41Z</time></trkpt><trkpt lat="44.45526326328423" lon="8.989598170627618"><ele>131.0</ele><time>2026-04-19T10:07:43Z</time></trkpt><trkpt lat="44.45529808432" lon="8.989481394880222"><ele>131.0</ele><time>2026-04-19T10:07:46Z</time></trkpt><trkpt lat="44.455316410118144" lon="8.989396107615748"><ele>131.0</ele><time>2026-04-19T10:07:48Z</time></trkpt><trkpt lat="44.45534574406562" lon="8.989316883137535"><ele>131.0</ele><time>2026-04-19T10:07:50Z</time></trkpt><trkpt lat="44.45538922014886" lon="8.989197146097782"><ele>131.0</ele><time>2026-04-19T10:07:53Z</time></trkpt><trkpt lat="44.455423292200365" lon="8.989121720836032"><ele>131.0</ele><time>2026-04-19T10:07:55Z</time></trkpt><trkpt lat="44.45544446338889" lon="8.989021762924509"><ele>132.0</ele><time>2026-04-19T10:07:57Z</time></trkpt><trkpt lat="44.45546756389955" lon="8.988914754715937"><ele>133.0</ele><time>2026-04-19T10:07:59Z</time></trkpt><trkpt lat="44.45548168452024" lon="8.98879590661309"><ele>134.0</ele><time>2026-04-19T10:08:01Z</time></trkpt><trkpt lat="44.45549281499577" lon="8.98868215896836"><ele>135.0</ele><time>2026-04-19T10:08:03Z</time></trkpt><trkpt lat="44.45550349397594" lon="8.988553300329723"><ele>136.0</ele><time>2026-04-19T10:08:05Z</time></trkpt><trkpt lat="44.45551524644225" lon="8.988434270760674"><ele>137.0</ele><time>2026-04-19T10:08:07Z</time></trkpt><trkpt lat="44.4555209848066" lon="8.98832374614198"><ele>137.0</ele><time>2026-04-19T10:08:09Z</time></trkpt><trkpt lat="44.455524395120015" lon="8.988210120285617"><ele>137.0</ele><time>2026-04-19T10:08:11Z</time></trkpt><trkpt lat="44.45551816045793" lon="8.98811230486835"><ele>137.0</ele><time>2026-04-19T10:08:13Z</time></trkpt><trkpt lat="44.45549613236405" lon="8.988011795493046"><ele>137.0</ele><time>2026-04-19T10:08:15Z</time></trkpt><trkpt lat="44.4555201206506" lon="8.987883299458119"><ele>137.0</ele><time>2026-04-19T10:08:18Z</time></trkpt><trkpt lat="44.455573581475086" lon="8.987819142612507"><ele>137.0</ele><time>2026-04-19T10:08:20Z</time></trkpt><trkpt lat="44.45563229637531" lon="8.98775734778805"><ele>137.00000000000003</ele><time>2026-04-19T10:08:22Z</time></trkpt><trkpt lat="44.455688404217206" lon="8.987692466790609"><ele>137.0</ele><time>2026-04-19T10:08:24Z</time></trkpt><trkpt lat="44.45574436952627" lon="8.987635119487827"><ele>137.0</ele><time>2026-04-19T10:08:26Z</time></trkpt><trkpt lat="44.45580627583062" lon="8.987586130940553"><ele>137.0</ele><time>2026-04-19T10:08:28Z</time></trkpt><trkpt lat="44.4558746871729" lon="8.987545911748796"><ele>137.0</ele><time>2026-04-19T10:08:30Z</time></trkpt><trkpt lat="44.45593970369765" lon="8.987494976475208"><ele>137.00000000000003</ele><time>2026-04-19T10:08:32Z</time></trkpt><trkpt lat="44.45599679745714" lon="8.987446861096121"><ele>137.0</ele><time>2026-04-19T10:08:34Z</time></trkpt><trkpt lat="44.45606018293173" lon="8.987403854626375"><ele>137.42857142857144</ele><time>2026-04-19T10:08:36Z</time></trkpt><trkpt lat="44.456105160538186" lon="8.987339257201487"><ele>137.85714285714286</ele><time>2026-04-19T10:08:38Z</time></trkpt><trkpt lat="44.4561530889416" lon="8.987257438751762"><ele>138.28571428571428</ele><time>2026-04-19T10:08:40Z</time></trkpt><trkpt lat="44.45620336253809" lon="8.98718762978404"><ele>138.71428571428572</ele><time>2026-04-19T10:08:42Z</time></trkpt><trkpt lat="44.456244559230065" lon="8.987114192869798"><ele>139.14285714285714</ele><time>2026-04-19T10:08:44Z</time></trkpt><trkpt lat="44.45629502801013" lon="8.987059169853781"><ele>139.57142857142858</ele><time>2026-04-19T10:08:46Z</time></trkpt><trkpt lat="44.456370515863725" lon="8.98702512160642"><ele>140.0</ele><time>2026-04-19T10:08:48Z</time></trkpt><trkpt lat="44.45645089062809" lon="8.986999702953534"><ele>140.0</ele><time>2026-04-19T10:08:50Z</time></trkpt><trkpt lat="44.45653301498557" lon="8.98699324669352"><ele>140.0</ele><time>2026-04-19T10:08:52Z</time></trkpt><trkpt lat="44.45659881861908" lon="8.98693960350478"><ele>140.0</ele><time>2026-04-19T10:08:54Z</time></trkpt><trkpt lat="44.456669010744456" lon="8.986890095649386"><ele>140.0</ele><time>2026-04-19T10:08:56.001Z</time></trkpt><trkpt lat="44.4567454955049" lon="8.986856300047876"><ele>140.0</ele><time>2026-04-19T10:08:58.001Z</time></trkpt><trkpt lat="44.45681776835948" lon="8.986816484266361"><ele>140.0</ele><time>2026-04-19T10:09:00.001Z</time></trkpt><trkpt lat="44.456872038944574" lon="8.986745158633166"><ele>139.66666666666666</ele><time>2026-04-19T10:09:02.001Z</time></trkpt><trkpt lat="44.456916152830985" lon="8.986660139341916"><ele>139.33333333333331</ele><time>2026-04-19T10:09:04.001Z</time></trkpt><trkpt lat="44.456972168921105" lon="8.986590471958946"><ele>139.0</ele><time>2026-04-19T10:09:06.001Z</time></trkpt><trkpt lat="44.45701874593384" lon="8.986510491168831"><ele>138.66666666666666</ele><time>2026-04-19T10:09:08.001Z</time></trkpt><trkpt lat="44.457063479932586" lon="8.986439697041684"><ele>138.33333333333334</ele><time>2026-04-19T10:09:10.001Z</time></trkpt><trkpt lat="44.45713835544126" lon="8.98634220674378"><ele>138.0</ele><time>2026-04-19T10:09:13.001Z</time></trkpt><trkpt lat="44.45720404989406" lon="8.986252662149846"><ele>138.0</ele><time>2026-04-19T10:09:16.001Z</time></trkpt><trkpt lat="44.45725284466332" lon="8.986187547752696"><ele>138.0</ele><time>2026-04-19T10:09:18.001Z</time></trkpt><trkpt lat="44.457349522038854" lon="8.986155815292683"><ele>138.0</ele><time>2026-04-19T10:09:21.001Z</time></trkpt><trkpt lat="44.457418735087714" lon="8.98612908743855"><ele>138.0</ele><time>2026-04-19T10:09:24.001Z</time></trkpt><trkpt lat="44.45748649099502" lon="8.986178988183006"><ele>138.0</ele><time>2026-04-19T10:09:26.001Z</time></trkpt><trkpt lat="44.4575669071506" lon="8.986210666714664"><ele>138.0</ele><time>2026-04-19T10:09:29.001Z</time></trkpt><trkpt lat="44.4576486652437" lon="8.986225609178875"><ele>138.0</ele><time>2026-04-19T10:09:32.001Z</time></trkpt><trkpt lat="44.45766140642934" lon="8.986313451975956"><ele>138.0</ele><time>2026-04-19T10:09:35.001Z</time></trkpt><trkpt lat="44.457657691425425" lon="8.986416344402564"><ele>138.0</ele><time>2026-04-19T10:09:41Z</time></trkpt><trkpt lat="44.45760290069086" lon="8.986475776968282"><ele>138.0</ele><time>2026-04-19T10:09:45Z</time></trkpt><trkpt lat="44.45753746052236" lon="8.986516058527124"><ele>138.0</ele><time>2026-04-19T10:09:49Z</time></trkpt><trkpt lat="44.457481122297295" lon="8.986597324575008"><ele>138.0</ele><time>2026-04-19T10:09:53Z</time></trkpt><trkpt lat="44.457459759959434" lon="8.986688987417061"><ele>138.0</ele><time>2026-04-19T10:09:56Z</time></trkpt><trkpt lat="44.45742200820661" lon="8.986763789303689"><ele>140.16666666666666</ele><time>2026-04-19T10:09:59Z</time></trkpt><trkpt lat="44.45737707934063" lon="8.986868229866806"><ele>142.33333333333334</ele><time>2026-04-19T10:10:03Z</time></trkpt><trkpt lat="44.45732844568613" lon="8.98693764826308"><ele>144.5</ele><time>2026-04-19T10:10:07Z</time></trkpt><trkpt lat="44.45732187130629" lon="8.987032781484993"><ele>146.66666666666669</ele><time>2026-04-19T10:10:11Z</time></trkpt><trkpt lat="44.457267682916005" lon="8.98711183471947"><ele>148.83333333333334</ele><time>2026-04-19T10:10:15Z</time></trkpt><trkpt lat="44.45721832108975" lon="8.987197515530394"><ele>151.0</ele><time>2026-04-19T10:10:18Z</time></trkpt><trkpt lat="44.45717592385461" lon="8.987273181070021"><ele>151.00000000000003</ele><time>2026-04-19T10:10:21Z</time></trkpt><trkpt lat="44.45713691102314" lon="8.987355708155826"><ele>151.0</ele><time>2026-04-19T10:10:24Z</time></trkpt><trkpt lat="44.45708602538361" lon="8.987435290805145"><ele>151.0</ele><time>2026-04-19T10:10:27Z</time></trkpt><trkpt lat="44.457036770078254" lon="8.98751999915852"><ele>151.0</ele><time>2026-04-19T10:10:30Z</time></trkpt><trkpt lat="44.45698360121515" lon="8.987604046376065"><ele>151.0</ele><time>2026-04-19T10:10:33Z</time></trkpt><trkpt lat="44.456927162754916" lon="8.987650784013073"><ele>151.00000000000003</ele><time>2026-04-19T10:10:36Z</time></trkpt><trkpt lat="44.456888387223074" lon="8.987733951036965"><ele>151.0</ele><time>2026-04-19T10:10:39Z</time></trkpt><trkpt lat="44.45684437747138" lon="8.98781528828601"><ele>150.33333333333334</ele><time>2026-04-19T10:10:42Z</time></trkpt><trkpt lat="44.45678479126705" lon="8.98789597600711"><ele>149.66666666666669</ele><time>2026-04-19T10:10:46Z</time></trkpt><trkpt lat="44.4567477139486" lon="8.987971314327718"><ele>149.0</ele><time>2026-04-19T10:10:49Z</time></trkpt><trkpt lat="44.45670809489065" lon="8.988062092385405"><ele>148.33333333333334</ele><time>2026-04-19T10:10:53Z</time></trkpt><trkpt lat="44.45668069799225" lon="8.988169862533907"><ele>147.66666666666666</ele><time>2026-04-19T10:10:57Z</time></trkpt><trkpt lat="44.45663246748474" lon="8.988256153008354"><ele>147.0</ele><time>2026-04-19T10:11:01Z</time></trkpt><trkpt lat="44.45657879510341" lon="8.9883097435921"><ele>146.85714285714286</ele><time>2026-04-19T10:11:04Z</time></trkpt><trkpt lat="44.45652810932595" lon="8.988379131758245"><ele>146.71428571428572</ele><time>2026-04-19T10:11:08Z</time></trkpt><trkpt lat="44.45648560839619" lon="8.988449821991603"><ele>146.57142857142856</ele><time>2026-04-19T10:11:12Z</time></trkpt><trkpt lat="44.456443757776846" lon="8.988518822694175"><ele>146.42857142857144</ele><time>2026-04-19T10:11:15Z</time></trkpt><trkpt lat="44.45639411028293" lon="8.988585603259457"><ele>146.28571428571428</ele><time>2026-04-19T10:11:19Z</time></trkpt><trkpt lat="44.45634600851269" lon="8.988644916163864"><ele>146.14285714285714</ele><time>2026-04-19T10:11:23.001Z</time></trkpt><trkpt lat="44.456300140211994" lon="8.988723942301373"><ele>146.0</ele><time>2026-04-19T10:11:27.001Z</time></trkpt><trkpt lat="44.456245112471976" lon="8.988771043924002"><ele>146.14285714285714</ele><time>2026-04-19T10:11:31.001Z</time></trkpt><trkpt lat="44.45629963916718" lon="8.98871713278372"><ele>146.28571428571428</ele><time>2026-04-19T10:22:07Z</time></trkpt><trkpt lat="44.45635617239957" lon="8.988645476341693"><ele>146.42857142857144</ele><time>2026-04-19T10:22:12Z</time></trkpt><trkpt lat="44.456405455561885" lon="8.98857461772175"><ele>146.57142857142856</ele><time>2026-04-19T10:22:16Z</time></trkpt><trkpt lat="44.45644997216099" lon="8.988493000349361"><ele>146.71428571428572</ele><time>2026-04-19T10:22:20Z</time></trkpt><trkpt lat="44.456495423616154" lon="8.988415897199461"><ele>146.85714285714286</ele><time>2026-04-19T10:22:23Z</time></trkpt><trkpt lat="44.45654535960417" lon="8.988327201352279"><ele>147.0</ele><time>2026-04-19T10:22:27Z</time></trkpt><trkpt lat="44.45658511117388" lon="8.988255881502061"><ele>147.0</ele><time>2026-04-19T10:22:30Z</time></trkpt><trkpt lat="44.45661493834423" lon="8.988177334869908"><ele>147.0</ele><time>2026-04-19T10:22:33Z</time></trkpt><trkpt lat="44.45666420236711" lon="8.988095880222618"><ele>147.0</ele><time>2026-04-19T10:22:36Z</time></trkpt><trkpt lat="44.45671558970208" lon="8.98801860541646"><ele>147.0</ele><time>2026-04-19T10:22:39Z</time></trkpt><trkpt lat="44.456780092647634" lon="8.987937315163327"><ele>147.0</ele><time>2026-04-19T10:22:42Z</time></trkpt><trkpt lat="44.45685499100542" lon="8.987828583169245"><ele>147.0</ele><time>2026-04-19T10:22:45Z</time></trkpt><trkpt lat="44.45692229409438" lon="8.98773241899962"><ele>147.0</ele><time>2026-04-19T10:22:47Z</time></trkpt><trkpt lat="44.45698993117392" lon="8.98761457706148"><ele>147.0</ele><time>2026-04-19T10:22:49Z</time></trkpt><trkpt lat="44.45706481192729" lon="8.987491696566027"><ele>147.0</ele><time>2026-04-19T10:22:51Z</time></trkpt><trkpt lat="44.457129596096685" lon="8.987379858781349"><ele>147.0</ele><time>2026-04-19T10:22:53Z</time></trkpt><trkpt lat="44.457174696923076" lon="8.987294619575609"><ele>147.0</ele><time>2026-04-19T10:22:55Z</time></trkpt><trkpt lat="44.457216991642326" lon="8.98722452756211"><ele>147.66666666666666</ele><time>2026-04-19T10:22:57Z</time></trkpt><trkpt lat="44.45727794496218" lon="8.98713425315328"><ele>148.33333333333334</ele><time>2026-04-19T10:23:00Z</time></trkpt><trkpt lat="44.45734120039065" lon="8.987063180389804"><ele>149.0</ele><time>2026-04-19T10:23:03Z</time></trkpt><trkpt lat="44.45739125008849" lon="8.987009260226028"><ele>149.66666666666669</ele><time>2026-04-19T10:23:05Z</time></trkpt><trkpt lat="44.45746420791667" lon="8.986948942144418"><ele>150.33333333333334</ele><time>2026-04-19T10:23:08Z</time></trkpt><trkpt lat="44.457531941465675" lon="8.986886512772175"><ele>151.0</ele><time>2026-04-19T10:23:11Z</time></trkpt><trkpt lat="44.45760345118265" lon="8.986809079645655"><ele>151.00000000000003</ele><time>2026-04-19T10:23:14Z</time></trkpt><trkpt lat="44.45765514484852" lon="8.98675581528828"><ele>151.0</ele><time>2026-04-19T10:23:16Z</time></trkpt><trkpt lat="44.457716033875656" lon="8.986703878121771"><ele>151.0</ele><time>2026-04-19T10:23:18Z</time></trkpt><trkpt lat="44.45777553974487" lon="8.986662528771925"><ele>151.0</ele><time>2026-04-19T10:23:20Z</time></trkpt><trkpt lat="44.45784131422741" lon="8.986599867350943"><ele>151.0</ele><time>2026-04-19T10:23:22Z</time></trkpt><trkpt lat="44.457906658115014" lon="8.986565626715285"><ele>151.00000000000003</ele><time>2026-04-19T10:23:24Z</time></trkpt><trkpt lat="44.45797650093578" lon="8.986517577314027"><ele>151.0</ele><time>2026-04-19T10:23:26Z</time></trkpt><trkpt lat="44.458035260782005" lon="8.9864630868071"><ele>151.14285714285717</ele><time>2026-04-19T10:23:28Z</time></trkpt><trkpt lat="44.45807764222368" lon="8.986395540964862"><ele>151.28571428571428</ele><time>2026-04-19T10:23:30Z</time></trkpt><trkpt lat="44.45811214709472" lon="8.986321528450079"><ele>151.42857142857144</ele><time>2026-04-19T10:23:32Z</time></trkpt><trkpt lat="44.458123147213975" lon="8.986205721169787"><ele>151.57142857142858</ele><time>2026-04-19T10:23:35Z</time></trkpt><trkpt lat="44.45814332901752" lon="8.986114006001818"><ele>151.71428571428572</ele><time>2026-04-19T10:23:37Z</time></trkpt><trkpt lat="44.45817222672739" lon="8.986013697604871"><ele>151.85714285714286</ele><time>2026-04-19T10:23:40Z</time></trkpt><trkpt lat="44.458209420640394" lon="8.985910942873"><ele>152.0</ele><time>2026-04-19T10:23:43Z</time></trkpt><trkpt lat="44.458244608439024" lon="8.985834977112875"><ele>151.0</ele><time>2026-04-19T10:23:45Z</time></trkpt><trkpt lat="44.45830010009683" lon="8.985730051413148"><ele>150.0</ele><time>2026-04-19T10:23:48Z</time></trkpt><trkpt lat="44.45836119170498" lon="8.985678237492646"><ele>149.0</ele><time>2026-04-19T10:23:51Z</time></trkpt><trkpt lat="44.45839057359847" lon="8.985595942437836"><ele>148.0</ele><time>2026-04-19T10:23:55Z</time></trkpt><trkpt lat="44.45841965218185" lon="8.985504927165344"><ele>147.0</ele><time>2026-04-19T10:23:59Z</time></trkpt><trkpt lat="44.45846701019602" lon="8.985413551996961"><ele>146.0</ele><time>2026-04-19T10:24:01Z</time></trkpt><trkpt lat="44.458520807868375" lon="8.985291958733985"><ele>146.0</ele><time>2026-04-19T10:24:04Z</time></trkpt><trkpt lat="44.4585569788853" lon="8.985167469424775"><ele>146.0</ele><time>2026-04-19T10:24:06Z</time></trkpt><trkpt lat="44.458622065357574" lon="8.985029041149073"><ele>146.0</ele><time>2026-04-19T10:24:08Z</time></trkpt><trkpt lat="44.45863454805342" lon="8.98493831543827"><ele>146.0</ele><time>2026-04-19T10:24:09Z</time></trkpt><trkpt lat="44.458677889581125" lon="8.984848868953668"><ele>146.0</ele><time>2026-04-19T10:24:10Z</time></trkpt><trkpt lat="44.45872082777853" lon="8.984775034600998"><ele>146.0</ele><time>2026-04-19T10:24:11Z</time></trkpt><trkpt lat="44.45875292248359" lon="8.984682130635958"><ele>146.83333333333331</ele><time>2026-04-19T10:24:12Z</time></trkpt><trkpt lat="44.458789613148994" lon="8.984591061165451"><ele>147.66666666666666</ele><time>2026-04-19T10:24:13Z</time></trkpt><trkpt lat="44.45882169470959" lon="8.98449661560453"><ele>148.5</ele><time>2026-04-19T10:24:14Z</time></trkpt><trkpt lat="44.45884852215839" lon="8.984378486477683"><ele>149.33333333333334</ele><time>2026-04-19T10:24:15Z</time></trkpt><trkpt lat="44.45889450250469" lon="8.984287138117987"><ele>150.16666666666669</ele><time>2026-04-19T10:24:16Z</time></trkpt><trkpt lat="44.45892816084811" lon="8.984198860866398"><ele>151.0</ele><time>2026-04-19T10:24:17Z</time></trkpt><trkpt lat="44.45896034084654" lon="8.98411320310226"><ele>149.16666666666669</ele><time>2026-04-19T10:24:18Z</time></trkpt><trkpt lat="44.45901303177741" lon="8.984021113809028"><ele>147.33333333333334</ele><time>2026-04-19T10:24:19Z</time></trkpt><trkpt lat="44.459051839876885" lon="8.983935132079974"><ele>145.5</ele><time>2026-04-19T10:24:20Z</time></trkpt><trkpt lat="44.459088376083635" lon="8.983846344328867"><ele>143.66666666666666</ele><time>2026-04-19T10:24:21Z</time></trkpt><trkpt lat="44.459137905629944" lon="8.983765459874443"><ele>141.83333333333331</ele><time>2026-04-19T10:24:22Z</time></trkpt><trkpt lat="44.45915032342289" lon="8.983653701056724"><ele>140.0</ele><time>2026-04-19T10:24:23Z</time></trkpt><trkpt lat="44.459186975500266" lon="8.983567117876628"><ele>140.0</ele><time>2026-04-19T10:24:24Z</time></trkpt><trkpt lat="44.45921333235578" lon="8.983374206004395"><ele>140.0</ele><time>2026-04-19T10:24:26Z</time></trkpt><trkpt lat="44.459184366938096" lon="8.98321943958317"><ele>140.0</ele><time>2026-04-19T10:24:28Z</time></trkpt><trkpt lat="44.45910097057372" lon="8.983077050867585"><ele>140.0</ele><time>2026-04-19T10:24:30Z</time></trkpt><trkpt lat="44.45905688180739" lon="8.983008429878064"><ele>138.71428571428572</ele><time>2026-04-19T10:24:31Z</time></trkpt><trkpt lat="44.45900262194651" lon="8.982943412024216"><ele>137.42857142857144</ele><time>2026-04-19T10:24:32Z</time></trkpt><trkpt lat="44.45894636462361" lon="8.982875457617551"><ele>136.14285714285714</ele><time>2026-04-19T10:24:33Z</time></trkpt><trkpt lat="44.45888396797474" lon="8.982821440525441"><ele>134.85714285714286</ele><time>2026-04-19T10:24:34Z</time></trkpt><trkpt lat="44.458827829086815" lon="8.982754394205644"><ele>133.57142857142858</ele><time>2026-04-19T10:24:35Z</time></trkpt><trkpt lat="44.458769313886236" lon="8.982683912718091"><ele>132.28571428571428</ele><time>2026-04-19T10:24:36Z</time></trkpt><trkpt lat="44.458711587090825" lon="8.982607700854762"><ele>131.0</ele><time>2026-04-19T10:24:37Z</time></trkpt><trkpt lat="44.458648503885236" lon="8.982549053185094"><ele>129.8</ele><time>2026-04-19T10:24:38Z</time></trkpt><trkpt lat="44.45858788348321" lon="8.982492623323598"><ele>128.6</ele><time>2026-04-19T10:24:39Z</time></trkpt><trkpt lat="44.45853931461067" lon="8.98242145571994"><ele>127.4</ele><time>2026-04-19T10:24:40Z</time></trkpt><trkpt lat="44.45848494423316" lon="8.982374954709694"><ele>126.2</ele><time>2026-04-19T10:24:41Z</time></trkpt><trkpt lat="44.45838097830049" lon="8.982277959338875"><ele>125.0</ele><time>2026-04-19T10:24:43Z</time></trkpt><trkpt lat="44.458266001126944" lon="8.982214390920097"><ele>125.0</ele><time>2026-04-19T10:24:45Z</time></trkpt><trkpt lat="44.458144321804404" lon="8.982187888617203"><ele>125.0</ele><time>2026-04-19T10:24:47Z</time></trkpt><trkpt lat="44.458023286873754" lon="8.98215055473449"><ele>125.0</ele><time>2026-04-19T10:24:49Z</time></trkpt><trkpt lat="44.457916441125285" lon="8.982115146375644"><ele>125.0</ele><time>2026-04-19T10:24:51Z</time></trkpt><trkpt lat="44.45782272160461" lon="8.98208523138005"><ele>123.0</ele><time>2026-04-19T10:24:53Z</time></trkpt><trkpt lat="44.457723056863195" lon="8.982059328047054"><ele>121.0</ele><time>2026-04-19T10:24:55Z</time></trkpt><trkpt lat="44.45761595571827" lon="8.982073544227104"><ele>119.0</ele><time>2026-04-19T10:24:57Z</time></trkpt><trkpt lat="44.45750748953094" lon="8.982139810700163"><ele>117.0</ele><time>2026-04-19T10:24:59Z</time></trkpt><trkpt lat="44.45745788637204" lon="8.982196599820023"><ele>115.0</ele><time>2026-04-19T10:25:00Z</time></trkpt><trkpt lat="44.45740407939846" lon="8.98225190710427"><ele>115.0</ele><time>2026-04-19T10:25:01Z</time></trkpt><trkpt lat="44.45730191948545" lon="8.982360459513162"><ele>115.0</ele><time>2026-04-19T10:25:03Z</time></trkpt><trkpt lat="44.45719392746692" lon="8.982465133964753"><ele>115.0</ele><time>2026-04-19T10:25:05Z</time></trkpt><trkpt lat="44.457137170150865" lon="8.982526791322938"><ele>115.0</ele><time>2026-04-19T10:25:06Z</time></trkpt><trkpt lat="44.4570753347383" lon="8.982589533918599"><ele>115.0</ele><time>2026-04-19T10:25:07Z</time></trkpt><trkpt lat="44.457015523605506" lon="8.982649400453788"><ele>114.2</ele><time>2026-04-19T10:25:08Z</time></trkpt><trkpt lat="44.45695556779332" lon="8.982690171233909"><ele>113.4</ele><time>2026-04-19T10:25:09Z</time></trkpt><trkpt lat="44.45686554168223" lon="8.982782673852244"><ele>112.6</ele><time>2026-04-19T10:25:11Z</time></trkpt><trkpt lat="44.45678641864007" lon="8.982885402080361"><ele>111.8</ele><time>2026-04-19T10:25:13Z</time></trkpt><trkpt lat="44.45672517099577" lon="8.983027398893988"><ele>111.0</ele><time>2026-04-19T10:25:15Z</time></trkpt><trkpt lat="44.45668919167197" lon="8.983200585865253"><ele>111.0</ele><time>2026-04-19T10:25:17Z</time></trkpt><trkpt lat="44.456693431716445" lon="8.983291151428231"><ele>111.0</ele><time>2026-04-19T10:25:18Z</time></trkpt><trkpt lat="44.45665500776762" lon="8.983444448239638"><ele>111.0</ele><time>2026-04-19T10:25:20Z</time></trkpt><trkpt lat="44.45662135690995" lon="8.983581172526526"><ele>111.0</ele><time>2026-04-19T10:25:22Z</time></trkpt><trkpt lat="44.4565916083711" lon="8.98368803973712"><ele>111.0</ele><time>2026-04-19T10:25:24Z</time></trkpt><trkpt lat="44.456542421797785" lon="8.983768135475886"><ele>111.0</ele><time>2026-04-19T10:25:26Z</time></trkpt><trkpt lat="44.45647286917167" lon="8.98379529747358"><ele>111.0</ele><time>2026-04-19T10:25:28Z</time></trkpt><trkpt lat="44.45640460398145" lon="8.983760298238767"><ele>111.0</ele><time>2026-04-19T10:25:30Z</time></trkpt><trkpt lat="44.45635680365261" lon="8.983650594219846"><ele>111.0</ele><time>2026-04-19T10:25:32Z</time></trkpt><trkpt lat="44.45636386414669" lon="8.983486637087596"><ele>111.0</ele><time>2026-04-19T10:25:34Z</time></trkpt><trkpt lat="44.456389045130244" lon="8.983399910909009"><ele>111.0</ele><time>2026-04-19T10:25:35Z</time></trkpt><trkpt lat="44.456407275814655" lon="8.983301357386678"><ele>111.0</ele><time>2026-04-19T10:25:36Z</time></trkpt><trkpt lat="44.45642645380827" lon="8.983204511242855"><ele>111.0</ele><time>2026-04-19T10:25:37Z</time></trkpt><trkpt lat="44.456437512746284" lon="8.983104683182288"><ele>111.0</ele><time>2026-04-19T10:25:38Z</time></trkpt><trkpt lat="44.456435381881796" lon="8.983001655605124"><ele>111.0</ele><time>2026-04-19T10:25:39Z</time></trkpt><trkpt lat="44.45642198355639" lon="8.982899992961658"><ele>111.0</ele><time>2026-04-19T10:25:40Z</time></trkpt><trkpt lat="44.45640830553608" lon="8.982793410469323"><ele>111.0</ele><time>2026-04-19T10:25:41Z</time></trkpt><trkpt lat="44.45639709446649" lon="8.9826899559466"><ele>111.0</ele><time>2026-04-19T10:25:42Z</time></trkpt><trkpt lat="44.45638876515225" lon="8.982598280594338"><ele>111.0</ele><time>2026-04-19T10:25:43Z</time></trkpt><trkpt lat="44.45637934911549" lon="8.982422959650362"><ele>110.6</ele><time>2026-04-19T10:25:45Z</time></trkpt><trkpt lat="44.45637826290224" lon="8.982333757026389"><ele>110.19999999999999</ele><time>2026-04-19T10:25:46Z</time></trkpt><trkpt lat="44.45639122251861" lon="8.982183977894238"><ele>109.80000000000001</ele><time>2026-04-19T10:25:48Z</time></trkpt><trkpt lat="44.45640256446561" lon="8.982023474843208"><ele>109.4</ele><time>2026-04-19T10:25:50Z</time></trkpt><trkpt lat="44.45640962787454" lon="8.981873849125934"><ele>109.0</ele><time>2026-04-19T10:25:52Z</time></trkpt><trkpt lat="44.45640625215055" lon="8.981704377626414"><ele>107.2</ele><time>2026-04-19T10:25:54Z</time></trkpt><trkpt lat="44.45641506732632" lon="8.9815401704815"><ele>105.4</ele><time>2026-04-19T10:25:56Z</time></trkpt><trkpt lat="44.45642731240453" lon="8.98137850154897"><ele>103.6</ele><time>2026-04-19T10:25:58Z</time></trkpt><trkpt lat="44.45646712185263" lon="8.981237664393484"><ele>101.8</ele><time>2026-04-19T10:26:00Z</time></trkpt><trkpt lat="44.456515465705685" lon="8.981173418571895"><ele>100.0</ele><time>2026-04-19T10:26:01Z</time></trkpt><trkpt lat="44.456575513089845" lon="8.981125136242843"><ele>100.0</ele><time>2026-04-19T10:26:02Z</time></trkpt><trkpt lat="44.456695286115284" lon="8.981059093655114"><ele>100.0</ele><time>2026-04-19T10:26:04Z</time></trkpt><trkpt lat="44.4568114172919" lon="8.98100154393008"><ele>100.0</ele><time>2026-04-19T10:26:06Z</time></trkpt><trkpt lat="44.456930903621846" lon="8.98096422948048"><ele>100.0</ele><time>2026-04-19T10:26:08Z</time></trkpt><trkpt lat="44.45699349102009" lon="8.980938448561782"><ele>100.0</ele><time>2026-04-19T10:26:09Z</time></trkpt><trkpt lat="44.45710971231234" lon="8.980898789185558"><ele>99.28571428571429</ele><time>2026-04-19T10:26:11Z</time></trkpt><trkpt lat="44.457172497143475" lon="8.980882832702232"><ele>98.57142857142857</ele><time>2026-04-19T10:26:12Z</time></trkpt><trkpt lat="44.45723871152242" lon="8.980868657569756"><ele>97.85714285714286</ele><time>2026-04-19T10:26:13Z</time></trkpt><trkpt lat="44.45730215688989" lon="8.980856374372461"><ele>97.14285714285714</ele><time>2026-04-19T10:26:14Z</time></trkpt><trkpt lat="44.45736184904584" lon="8.980822916931977"><ele>96.42857142857143</ele><time>2026-04-19T10:26:15Z</time></trkpt><trkpt lat="44.45743041353677" lon="8.980813820643943"><ele>95.71428571428572</ele><time>2026-04-19T10:26:16Z</time></trkpt><trkpt lat="44.45749869940799" lon="8.980826227794676"><ele>95.0</ele><time>2026-04-19T10:26:17Z</time></trkpt><trkpt lat="44.45756508879844" lon="8.980804851960341"><ele>95.0</ele><time>2026-04-19T10:26:18Z</time></trkpt><trkpt lat="44.45767810571907" lon="8.980785806850376"><ele>95.0</ele><time>2026-04-19T10:26:20Z</time></trkpt><trkpt lat="44.45776400083864" lon="8.980730543407853"><ele>95.0</ele><time>2026-04-19T10:26:22Z</time></trkpt><trkpt lat="44.457778988198214" lon="8.98060737091564"><ele>95.0</ele><time>2026-04-19T10:26:24Z</time></trkpt><trkpt lat="44.45771040123751" lon="8.980518835548942"><ele>95.0</ele><time>2026-04-19T10:26:26Z</time></trkpt><trkpt lat="44.45760821509706" lon="8.980500197229347"><ele>95.0</ele><time>2026-04-19T10:26:28Z</time></trkpt><trkpt lat="44.45751117811299" lon="8.980500215637532"><ele>95.0</ele><time>2026-04-19T10:26:30Z</time></trkpt><trkpt lat="44.457400196783254" lon="8.98049519373376"><ele>95.0</ele><time>2026-04-19T10:26:32Z</time></trkpt><trkpt lat="44.45728315189565" lon="8.980491173730954"><ele>95.0</ele><time>2026-04-19T10:26:34Z</time></trkpt><trkpt lat="44.45715885415585" lon="8.980500554642585"><ele>94.0</ele><time>2026-04-19T10:26:36Z</time></trkpt><trkpt lat="44.45703913000754" lon="8.98048473573493"><ele>93.0</ele><time>2026-04-19T10:26:38Z</time></trkpt><trkpt lat="44.45691507272948" lon="8.980495461249925"><ele>92.0</ele><time>2026-04-19T10:26:40Z</time></trkpt><trkpt lat="44.456849503489046" lon="8.980493304544627"><ele>91.0</ele><time>2026-04-19T10:26:41Z</time></trkpt><trkpt lat="44.456780177850014" lon="8.980494333185474"><ele>90.0</ele><time>2026-04-19T10:26:42Z</time></trkpt><trkpt lat="44.45671514836506" lon="8.98049513259561"><ele>89.0</ele><time>2026-04-19T10:26:43Z</time></trkpt><trkpt lat="44.456648555690116" lon="8.980498530221427"><ele>88.99999999999999</ele><time>2026-04-19T10:26:44Z</time></trkpt><trkpt lat="44.456580470665926" lon="8.980502626056815"><ele>89.0</ele><time>2026-04-19T10:26:45Z</time></trkpt><trkpt lat="44.45651501592788" lon="8.980493065116937"><ele>89.0</ele><time>2026-04-19T10:26:46Z</time></trkpt><trkpt lat="44.45644174133111" lon="8.980497713732603"><ele>89.0</ele><time>2026-04-19T10:26:47Z</time></trkpt><trkpt lat="44.45637690923104" lon="8.9804837490051"><ele>89.0</ele><time>2026-04-19T10:26:48Z</time></trkpt><trkpt lat="44.45631093629982" lon="8.980474659930092"><ele>88.99999999999999</ele><time>2026-04-19T10:26:49Z</time></trkpt><trkpt lat="44.456205665105294" lon="8.98046504618038"><ele>89.0</ele><time>2026-04-19T10:26:51Z</time></trkpt><trkpt lat="44.456133256395496" lon="8.980488744457338"><ele>87.85714285714285</ele><time>2026-04-19T10:26:52Z</time></trkpt><trkpt lat="44.45606393321514" lon="8.980501567779152"><ele>86.71428571428571</ele><time>2026-04-19T10:26:53Z</time></trkpt><trkpt lat="44.455986945079545" lon="8.980508172407088"><ele>85.57142857142857</ele><time>2026-04-19T10:26:54Z</time></trkpt><trkpt lat="44.45591340075787" lon="8.9805269453047"><ele>84.42857142857142</ele><time>2026-04-19T10:26:55Z</time></trkpt><trkpt lat="44.45584787639289" lon="8.980551431869372"><ele>83.28571428571428</ele><time>2026-04-19T10:26:56Z</time></trkpt><trkpt lat="44.45578082266904" lon="8.980566372335723"><ele>82.14285714285714</ele><time>2026-04-19T10:26:57Z</time></trkpt><trkpt lat="44.4557134736137" lon="8.98059670416391"><ele>81.0</ele><time>2026-04-19T10:26:58Z</time></trkpt><trkpt lat="44.455649155758366" lon="8.980613850878292"><ele>81.0</ele><time>2026-04-19T10:26:59Z</time></trkpt><trkpt lat="44.45558255038544" lon="8.98063185432847"><ele>81.0</ele><time>2026-04-19T10:27:00Z</time></trkpt><trkpt lat="44.45551521401584" lon="8.980656960930052"><ele>81.0</ele><time>2026-04-19T10:27:01Z</time></trkpt><trkpt lat="44.45545044524492" lon="8.980686421186544"><ele>81.0</ele><time>2026-04-19T10:27:02Z</time></trkpt><trkpt lat="44.455388635799885" lon="8.980713672713648"><ele>81.0</ele><time>2026-04-19T10:27:03Z</time></trkpt><trkpt lat="44.45532675285264" lon="8.980757566493196"><ele>81.0</ele><time>2026-04-19T10:27:04Z</time></trkpt><trkpt lat="44.45526128353717" lon="8.980795829966318"><ele>81.0</ele><time>2026-04-19T10:27:05Z</time></trkpt><trkpt lat="44.455198308323034" lon="8.980848462306234"><ele>79.0</ele><time>2026-04-19T10:27:06Z</time></trkpt><trkpt lat="44.45512883134149" lon="8.980906708040758"><ele>77.0</ele><time>2026-04-19T10:27:07Z</time></trkpt><trkpt lat="44.45506778202787" lon="8.980965620705947"><ele>75.0</ele><time>2026-04-19T10:27:08Z</time></trkpt><trkpt lat="44.455009138476996" lon="8.981007416657093"><ele>73.0</ele><time>2026-04-19T10:27:09Z</time></trkpt><trkpt lat="44.45491081139559" lon="8.98107216066082"><ele>71.0</ele><time>2026-04-19T10:27:11Z</time></trkpt><trkpt lat="44.45481516257307" lon="8.98112503506618"><ele>69.0</ele><time>2026-04-19T10:27:13Z</time></trkpt><trkpt lat="44.454722429534456" lon="8.981139474243992"><ele>69.0</ele><time>2026-04-19T10:27:15Z</time></trkpt><trkpt lat="44.45464698338343" lon="8.981146909181666"><ele>69.0</ele><time>2026-04-19T10:27:17Z</time></trkpt><trkpt lat="44.454579981526756" lon="8.9811635253149"><ele>69.0</ele><time>2026-04-19T10:27:19Z</time></trkpt><trkpt lat="44.45450516668598" lon="8.98116616002051"><ele>69.0</ele><time>2026-04-19T10:27:22Z</time></trkpt><trkpt lat="44.45444202232867" lon="8.981163735411885"><ele>69.0</ele><time>2026-04-19T10:27:25Z</time></trkpt><trkpt lat="44.45439924134942" lon="8.981002937800849"><ele>69.0</ele><time>2026-04-19T10:27:30Z</time></trkpt><trkpt lat="44.45439344181339" lon="8.980913883257994"><ele>67.71428571428572</ele><time>2026-04-19T10:27:32Z</time></trkpt><trkpt lat="44.45438481602238" lon="8.980825518837763"><ele>66.42857142857143</ele><time>2026-04-19T10:27:34Z</time></trkpt><trkpt lat="44.45436721408561" lon="8.980737215530267"><ele>65.14285714285714</ele><time>2026-04-19T10:27:36Z</time></trkpt><trkpt lat="44.454344695276745" lon="8.980646293260909"><ele>63.85714285714286</ele><time>2026-04-19T10:27:38Z</time></trkpt><trkpt lat="44.45432273565657" lon="8.980548444364903"><ele>62.57142857142857</ele><time>2026-04-19T10:27:40Z</time></trkpt><trkpt lat="44.45429506537496" lon="8.9804603664824"><ele>61.28571428571429</ele><time>2026-04-19T10:27:42Z</time></trkpt><trkpt lat="44.454256122924626" lon="8.980363006838974"><ele>60.0</ele><time>2026-04-19T10:27:44Z</time></trkpt><trkpt lat="44.45422085248263" lon="8.980264563793348"><ele>60.0</ele><time>2026-04-19T10:27:46Z</time></trkpt><trkpt lat="44.45421615552576" lon="8.980167065762075"><ele>60.0</ele><time>2026-04-19T10:27:48Z</time></trkpt><trkpt lat="44.45421292860621" lon="8.980060268707433"><ele>60.0</ele><time>2026-04-19T10:27:50Z</time></trkpt><trkpt lat="44.454214994610226" lon="8.979951982324648"><ele>60.0</ele><time>2026-04-19T10:27:52Z</time></trkpt><trkpt lat="44.45416608534575" lon="8.979843645519416"><ele>60.0</ele><time>2026-04-19T10:27:54Z</time></trkpt><trkpt lat="44.45406342431445" lon="8.979850382889662"><ele>60.0</ele><time>2026-04-19T10:27:56Z</time></trkpt><trkpt lat="44.45399455861201" lon="8.979908013918285"><ele>60.0</ele><time>2026-04-19T10:27:58Z</time></trkpt><trkpt lat="44.45392723485493" lon="8.97997570211455"><ele>60.0</ele><time>2026-04-19T10:28:00Z</time></trkpt><trkpt lat="44.45385939869054" lon="8.980056020039722"><ele>60.0</ele><time>2026-04-19T10:28:02Z</time></trkpt><trkpt lat="44.45378913799497" lon="8.980129089457607"><ele>60.0</ele><time>2026-04-19T10:28:04Z</time></trkpt><trkpt lat="44.453722524441986" lon="8.980211806120785"><ele>60.0</ele><time>2026-04-19T10:28:06Z</time></trkpt><trkpt lat="44.45365019878219" lon="8.980263854750367"><ele>60.0</ele><time>2026-04-19T10:28:08Z</time></trkpt><trkpt lat="44.453555296783655" lon="8.98025834437407"><ele>59.0</ele><time>2026-04-19T10:28:10Z</time></trkpt><trkpt lat="44.453549003563644" lon="8.980032880716903"><ele>58.0</ele><time>2026-04-19T10:28:11Z</time></trkpt><trkpt lat="44.453550895382214" lon="8.97991380916809"><ele>57.0</ele><time>2026-04-19T10:28:13Z</time></trkpt><trkpt lat="44.453538865359825" lon="8.97980136473529"><ele>56.0</ele><time>2026-04-19T10:28:15Z</time></trkpt><trkpt lat="44.45353087906193" lon="8.979687763869723"><ele>55.0</ele><time>2026-04-19T10:28:17Z</time></trkpt><trkpt lat="44.45349604786712" lon="8.979573248925462"><ele>55.0</ele><time>2026-04-19T10:28:19Z</time></trkpt><trkpt lat="44.45344951814373" lon="8.979457378231848"><ele>55.0</ele><time>2026-04-19T10:28:21Z</time></trkpt><trkpt lat="44.45340498186886" lon="8.979337437006519"><ele>55.0</ele><time>2026-04-19T10:28:23Z</time></trkpt><trkpt lat="44.45336518118837" lon="8.979212211873294"><ele>55.0</ele><time>2026-04-19T10:28:25Z</time></trkpt><trkpt lat="44.453316624926515" lon="8.97907729626189"><ele>55.0</ele><time>2026-04-19T10:28:27Z</time></trkpt><trkpt lat="44.45326883302925" lon="8.978925055270379"><ele>55.71428571428571</ele><time>2026-04-19T10:28:29Z</time></trkpt><trkpt lat="44.45324579881912" lon="8.978840054306598"><ele>56.42857142857143</ele><time>2026-04-19T10:28:30Z</time></trkpt><trkpt lat="44.45321870255988" lon="8.978752374616967"><ele>57.14285714285714</ele><time>2026-04-19T10:28:31Z</time></trkpt><trkpt lat="44.45318900378198" lon="8.978662075996214"><ele>57.857142857142854</ele><time>2026-04-19T10:28:32Z</time></trkpt><trkpt lat="44.453157126590355" lon="8.978563842161163"><ele>58.57142857142857</ele><time>2026-04-19T10:28:33Z</time></trkpt><trkpt lat="44.45313163352058" lon="8.978461957531602"><ele>59.285714285714285</ele><time>2026-04-19T10:28:34Z</time></trkpt><trkpt lat="44.45310232423125" lon="8.97836624057652"><ele>60.0</ele><time>2026-04-19T10:28:35Z</time></trkpt><trkpt lat="44.4530689794625" lon="8.97827634915726"><ele>60.0</ele><time>2026-04-19T10:28:36Z</time></trkpt><trkpt lat="44.453041816174135" lon="8.978187578868003"><ele>60.0</ele><time>2026-04-19T10:28:37Z</time></trkpt><trkpt lat="44.45301258322048" lon="8.978106193862297"><ele>60.0</ele><time>2026-04-19T10:28:38Z</time></trkpt><trkpt lat="44.45298501870105" lon="8.978020000163431"><ele>60.0</ele><time>2026-04-19T10:28:39Z</time></trkpt><trkpt lat="44.45295724965711" lon="8.977935763696083"><ele>60.0</ele><time>2026-04-19T10:28:40Z</time></trkpt><trkpt lat="44.452930508099406" lon="8.977844305371452"><ele>60.0</ele><time>2026-04-19T10:28:41Z</time></trkpt><trkpt lat="44.45289565541157" lon="8.977764139610201"><ele>60.0</ele><time>2026-04-19T10:28:42Z</time></trkpt><trkpt lat="44.45285648427415" lon="8.977687637000956"><ele>60.333333333333336</ele><time>2026-04-19T10:28:43Z</time></trkpt><trkpt lat="44.45282546277846" lon="8.977608463386174"><ele>60.66666666666667</ele><time>2026-04-19T10:28:44Z</time></trkpt><trkpt lat="44.45280009808092" lon="8.97752522594864"><ele>61.0</ele><time>2026-04-19T10:28:45Z</time></trkpt><trkpt lat="44.452768190001564" lon="8.977439811526805"><ele>61.333333333333336</ele><time>2026-04-19T10:28:46Z</time></trkpt><trkpt lat="44.45270337053688" lon="8.977291811730963"><ele>61.66666666666667</ele><time>2026-04-19T10:28:48Z</time></trkpt><trkpt lat="44.45264304460603" lon="8.977152924458432"><ele>62.0</ele><time>2026-04-19T10:28:50Z</time></trkpt><trkpt lat="44.452582226451995" lon="8.977017367215563"><ele>61.0</ele><time>2026-04-19T10:28:52Z</time></trkpt><trkpt lat="44.452519454951165" lon="8.97688440506299"><ele>60.0</ele><time>2026-04-19T10:28:54Z</time></trkpt><trkpt lat="44.4524587295333" lon="8.976752878005719"><ele>59.0</ele><time>2026-04-19T10:28:56Z</time></trkpt><trkpt lat="44.452395288232466" lon="8.976633501097828"><ele>58.0</ele><time>2026-04-19T10:28:58Z</time></trkpt><trkpt lat="44.45233171102937" lon="8.976508861985982"><ele>57.0</ele><time>2026-04-19T10:29:00Z</time></trkpt><trkpt lat="44.45227029337948" lon="8.97639021765134"><ele>57.0</ele><time>2026-04-19T10:29:02Z</time></trkpt><trkpt lat="44.452209933381646" lon="8.97627456409514"><ele>57.0</ele><time>2026-04-19T10:29:04Z</time></trkpt><trkpt lat="44.452153937401285" lon="8.976168988242069"><ele>57.0</ele><time>2026-04-19T10:29:06Z</time></trkpt><trkpt lat="44.45209739474399" lon="8.976060374808677"><ele>57.0</ele><time>2026-04-19T10:29:08Z</time></trkpt><trkpt lat="44.4520441292285" lon="8.97594947761247"><ele>57.0</ele><time>2026-04-19T10:29:10Z</time></trkpt><trkpt lat="44.4519826028534" lon="8.975853674206478"><ele>56.285714285714285</ele><time>2026-04-19T10:29:12Z</time></trkpt><trkpt lat="44.45194494328728" lon="8.975760971654333"><ele>55.57142857142857</ele><time>2026-04-19T10:29:14Z</time></trkpt><trkpt lat="44.4519212220059" lon="8.975676353758109"><ele>54.857142857142854</ele><time>2026-04-19T10:29:16Z</time></trkpt><trkpt lat="44.45194219482022" lon="8.97557307692116"><ele>54.14285714285714</ele><time>2026-04-19T10:29:20Z</time></trkpt><trkpt lat="44.45196900652724" lon="8.975463893254803"><ele>53.42857142857143</ele><time>2026-04-19T10:29:23Z</time></trkpt><trkpt lat="44.451997681754705" lon="8.975375767012205"><ele>52.71428571428571</ele><time>2026-04-19T10:29:25Z</time></trkpt><trkpt lat="44.45194288898509" lon="8.975312897776721"><ele>52.0</ele><time>2026-04-19T10:29:27Z</time></trkpt><trkpt lat="44.45190831498982" lon="8.975180790570537"><ele>51.99999999999999</ele><time>2026-04-19T10:29:29Z</time></trkpt><trkpt lat="44.45188729540162" lon="8.975074004536319"><ele>52.0</ele><time>2026-04-19T10:29:31Z</time></trkpt><trkpt lat="44.45186068640001" lon="8.974984436513958"><ele>52.0</ele><time>2026-04-19T10:29:33Z</time></trkpt><trkpt lat="44.45181533564502" lon="8.974905908759755"><ele>52.0</ele><time>2026-04-19T10:29:35Z</time></trkpt><trkpt lat="44.45176698659304" lon="8.974813586278547"><ele>51.99999999999999</ele><time>2026-04-19T10:29:37Z</time></trkpt><trkpt lat="44.45172485097373" lon="8.974708265767866"><ele>52.0</ele><time>2026-04-19T10:29:39Z</time></trkpt><trkpt lat="44.45166439121508" lon="8.974625934902855"><ele>52.666666666666664</ele><time>2026-04-19T10:29:41Z</time></trkpt><trkpt lat="44.45161506586523" lon="8.974535364582081"><ele>53.33333333333333</ele><time>2026-04-19T10:29:43Z</time></trkpt><trkpt lat="44.451563808110826" lon="8.974443348931347"><ele>54.0</ele><time>2026-04-19T10:29:45Z</time></trkpt><trkpt lat="44.45151696200047" lon="8.97435142231497"><ele>54.66666666666667</ele><time>2026-04-19T10:29:47Z</time></trkpt><trkpt lat="44.45147595323284" lon="8.974271917815793"><ele>55.333333333333336</ele><time>2026-04-19T10:29:49Z</time></trkpt><trkpt lat="44.451433302052266" lon="8.974198087947308"><ele>56.0</ele><time>2026-04-19T10:29:51Z</time></trkpt><trkpt lat="44.45138310321971" lon="8.974109892278294"><ele>55.00000000000001</ele><time>2026-04-19T10:29:55Z</time></trkpt><trkpt lat="44.45133371956458" lon="8.97402874107514"><ele>54.0</ele><time>2026-04-19T10:29:58Z</time></trkpt><trkpt lat="44.451290225675336" lon="8.973962536551182"><ele>53.0</ele><time>2026-04-19T10:30:00Z</time></trkpt><trkpt lat="44.45126301983432" lon="8.973879941316063"><ele>52.0</ele><time>2026-04-19T10:30:02Z</time></trkpt><trkpt lat="44.45122453707231" lon="8.973789299859627"><ele>51.00000000000001</ele><time>2026-04-19T10:30:04Z</time></trkpt><trkpt lat="44.451179462587014" lon="8.973681991771734"><ele>50.0</ele><time>2026-04-19T10:30:06Z</time></trkpt><trkpt lat="44.45112587040329" lon="8.973588142049172"><ele>50.0</ele><time>2026-04-19T10:30:08Z</time></trkpt><trkpt lat="44.451067886178436" lon="8.97349229925621"><ele>50.0</ele><time>2026-04-19T10:30:10Z</time></trkpt><trkpt lat="44.451019991898086" lon="8.973381345635781"><ele>50.0</ele><time>2026-04-19T10:30:12Z</time></trkpt><trkpt lat="44.450960432262896" lon="8.973278271121057"><ele>50.0</ele><time>2026-04-19T10:30:14Z</time></trkpt><trkpt lat="44.45090186318292" lon="8.97316508356013"><ele>50.0</ele><time>2026-04-19T10:30:16Z</time></trkpt><trkpt lat="44.45084704890154" lon="8.973056534881007"><ele>50.8</ele><time>2026-04-19T10:30:18Z</time></trkpt><trkpt lat="44.4507886429616" lon="8.97294263640496"><ele>51.6</ele><time>2026-04-19T10:30:20Z</time></trkpt><trkpt lat="44.45074123926464" lon="8.972824689876274"><ele>52.400000000000006</ele><time>2026-04-19T10:30:22Z</time></trkpt><trkpt lat="44.450677827361176" lon="8.972716527903122"><ele>53.2</ele><time>2026-04-19T10:30:24Z</time></trkpt><trkpt lat="44.450619623894525" lon="8.972602441042715"><ele>54.0</ele><time>2026-04-19T10:30:26Z</time></trkpt><trkpt lat="44.45055660026176" lon="8.972499553903099"><ele>53.6</ele><time>2026-04-19T10:30:28Z</time></trkpt><trkpt lat="44.450477300319584" lon="8.972412417618768"><ele>53.2</ele><time>2026-04-19T10:30:30Z</time></trkpt><trkpt lat="44.45039210422658" lon="8.972348037698275"><ele>52.800000000000004</ele><time>2026-04-19T10:30:32Z</time></trkpt><trkpt lat="44.45030804808925" lon="8.972268718723333"><ele>52.400000000000006</ele><time>2026-04-19T10:30:34Z</time></trkpt><trkpt lat="44.450205327707806" lon="8.972243658445988"><ele>52.0</ele><time>2026-04-19T10:30:36Z</time></trkpt><trkpt lat="44.450106576338065" lon="8.97220922380433"><ele>52.0</ele><time>2026-04-19T10:30:38Z</time></trkpt><trkpt lat="44.45001133604826" lon="8.972146442285485"><ele>52.0</ele><time>2026-04-19T10:30:40Z</time></trkpt><trkpt lat="44.44991428169513" lon="8.972099454701523"><ele>52.0</ele><time>2026-04-19T10:30:42Z</time></trkpt><trkpt lat="44.44982348859087" lon="8.9720603019871"><ele>52.0</ele><time>2026-04-19T10:30:44Z</time></trkpt><trkpt lat="44.44974967286145" lon="8.972031211141216"><ele>52.0</ele><time>2026-04-19T10:30:46Z</time></trkpt><trkpt lat="44.449675268017295" lon="8.971984861406648"><ele>51.33333333333333</ele><time>2026-04-19T10:30:53Z</time></trkpt><trkpt lat="44.44961586076437" lon="8.971946098400194"><ele>50.666666666666664</ele><time>2026-04-19T10:31:02Z</time></trkpt><trkpt lat="44.44953900279068" lon="8.97187300311425"><ele>50.0</ele><time>2026-04-19T10:31:05Z</time></trkpt><trkpt lat="44.449480690234225" lon="8.971806723333795"><ele>49.33333333333333</ele><time>2026-04-19T10:31:07Z</time></trkpt><trkpt lat="44.44941836010097" lon="8.971732642158885"><ele>48.666666666666664</ele><time>2026-04-19T10:31:09Z</time></trkpt><trkpt lat="44.44935237159521" lon="8.971683991521054"><ele>48.0</ele><time>2026-04-19T10:31:11Z</time></trkpt><trkpt lat="44.449324157767606" lon="8.97159323483706"><ele>48.0</ele><time>2026-04-19T10:31:13Z</time></trkpt><trkpt lat="44.44928362459764" lon="8.97147678801536"><ele>48.0</ele><time>2026-04-19T10:31:15Z</time></trkpt><trkpt lat="44.44924200624258" lon="8.971373260481705"><ele>48.0</ele><time>2026-04-19T10:31:17Z</time></trkpt><trkpt lat="44.44917594065113" lon="8.971291017046198"><ele>48.0</ele><time>2026-04-19T10:31:19Z</time></trkpt><trkpt lat="44.4491231940055" lon="8.971170780627434"><ele>48.0</ele><time>2026-04-19T10:31:21Z</time></trkpt><trkpt lat="44.44905589324368" lon="8.97108593049202"><ele>48.0</ele><time>2026-04-19T10:31:23Z</time></trkpt><trkpt lat="44.44899025246273" lon="8.970989694360494"><ele>48.0</ele><time>2026-04-19T10:31:25Z</time></trkpt><trkpt lat="44.44892422430698" lon="8.970884493596719"><ele>48.0</ele><time>2026-04-19T10:31:27Z</time></trkpt><trkpt lat="44.44885412108572" lon="8.970773400740022"><ele>48.0</ele><time>2026-04-19T10:31:29Z</time></trkpt><trkpt lat="44.44878894964842" lon="8.97066183645985"><ele>48.0</ele><time>2026-04-19T10:31:31Z</time></trkpt><trkpt lat="44.44873508680471" lon="8.970559830936164"><ele>48.0</ele><time>2026-04-19T10:31:33Z</time></trkpt><trkpt lat="44.44867269724848" lon="8.970452714702878"><ele>48.0</ele><time>2026-04-19T10:31:35Z</time></trkpt><trkpt lat="44.44860764906712" lon="8.970344748251492"><ele>48.0</ele><time>2026-04-19T10:31:37Z</time></trkpt><trkpt lat="44.448531286343936" lon="8.970262923030193"><ele>48.0</ele><time>2026-04-19T10:31:39Z</time></trkpt><trkpt lat="44.44846474683411" lon="8.970159580862216"><ele>48.0</ele><time>2026-04-19T10:31:41Z</time></trkpt><trkpt lat="44.44838266663679" lon="8.970079177233336"><ele>49.2</ele><time>2026-04-19T10:31:43Z</time></trkpt><trkpt lat="44.44831672129876" lon="8.969972263342234"><ele>50.4</ele><time>2026-04-19T10:31:45Z</time></trkpt><trkpt lat="44.44825234332333" lon="8.969867329832239"><ele>51.60000000000001</ele><time>2026-04-19T10:31:47Z</time></trkpt><trkpt lat="44.44818681375156" lon="8.969767663959471"><ele>52.800000000000004</ele><time>2026-04-19T10:31:49Z</time></trkpt><trkpt lat="44.448126227834" lon="8.969666177760354"><ele>54.0</ele><time>2026-04-19T10:31:51Z</time></trkpt><trkpt lat="44.44805595773279" lon="8.969585985611445"><ele>54.0</ele><time>2026-04-19T10:31:53Z</time></trkpt><trkpt lat="44.447975425654086" lon="8.969516962923594"><ele>54.00000000000001</ele><time>2026-04-19T10:31:55Z</time></trkpt><trkpt lat="44.44790578255638" lon="8.969422847651794"><ele>54.00000000000001</ele><time>2026-04-19T10:31:57Z</time></trkpt><trkpt lat="44.44784369356336" lon="8.96932160202425"><ele>54.0</ele><time>2026-04-19T10:31:59Z</time></trkpt><trkpt lat="44.4477760828966" lon="8.969233244767297"><ele>54.0</ele><time>2026-04-19T10:32:01Z</time></trkpt><trkpt lat="44.4477073216552" lon="8.969149448415223"><ele>52.833333333333336</ele><time>2026-04-19T10:32:03Z</time></trkpt><trkpt lat="44.44765131020908" lon="8.969065406277354"><ele>51.666666666666664</ele><time>2026-04-19T10:32:05Z</time></trkpt><trkpt lat="44.44760551086618" lon="8.968952411226079"><ele>50.5</ele><time>2026-04-19T10:32:07Z</time></trkpt><trkpt lat="44.44754061061564" lon="8.968854270197472"><ele>49.33333333333333</ele><time>2026-04-19T10:32:09Z</time></trkpt><trkpt lat="44.447489052977346" lon="8.96875199998349"><ele>48.166666666666664</ele><time>2026-04-19T10:32:11Z</time></trkpt><trkpt lat="44.44744887667058" lon="8.968653593007316"><ele>47.0</ele><time>2026-04-19T10:32:13Z</time></trkpt><trkpt lat="44.44740184223762" lon="8.96854331765975"><ele>47.0</ele><time>2026-04-19T10:32:15Z</time></trkpt><trkpt lat="44.44736361595334" lon="8.968431494336599"><ele>47.0</ele><time>2026-04-19T10:32:17Z</time></trkpt><trkpt lat="44.44731160591825" lon="8.968305164506623"><ele>47.0</ele><time>2026-04-19T10:32:19Z</time></trkpt><trkpt lat="44.447251100108055" lon="8.968221690333047"><ele>47.0</ele><time>2026-04-19T10:32:21Z</time></trkpt><trkpt lat="44.44719351497326" lon="8.968107712775158"><ele>47.0</ele><time>2026-04-19T10:32:23Z</time></trkpt><trkpt lat="44.44715875331908" lon="8.967977671642362"><ele>47.0</ele><time>2026-04-19T10:32:25Z</time></trkpt><trkpt lat="44.44711539171637" lon="8.967847148563987"><ele>47.0</ele><time>2026-04-19T10:32:27Z</time></trkpt><trkpt lat="44.447036682767475" lon="8.967770194595815"><ele>47.0</ele><time>2026-04-19T10:32:29Z</time></trkpt><trkpt lat="44.44699430212885" lon="8.967654038121255"><ele>47.0</ele><time>2026-04-19T10:32:31Z</time></trkpt><trkpt lat="44.44694404669364" lon="8.967544799558855"><ele>47.0</ele><time>2026-04-19T10:32:33Z</time></trkpt><trkpt lat="44.44688549481483" lon="8.967434578904586"><ele>47.0</ele><time>2026-04-19T10:32:35Z</time></trkpt><trkpt lat="44.4468069723452" lon="8.967366798452376"><ele>47.0</ele><time>2026-04-19T10:32:37Z</time></trkpt><trkpt lat="44.44673111795207" lon="8.967288617300186"><ele>47.0</ele><time>2026-04-19T10:32:39Z</time></trkpt><trkpt lat="44.4466774335703" lon="8.967204306881225"><ele>47.0</ele><time>2026-04-19T10:32:42Z</time></trkpt><trkpt lat="44.446588606778704" lon="8.967082788683118"><ele>47.0</ele><time>2026-04-19T10:32:43Z</time></trkpt><trkpt lat="44.446509942968426" lon="8.966998622767152"><ele>47.0</ele><time>2026-04-19T10:32:45Z</time></trkpt><trkpt lat="44.4464488307287" lon="8.966898005056525"><ele>47.0</ele><time>2026-04-19T10:32:47Z</time></trkpt><trkpt lat="44.44638009036787" lon="8.966837245311659"><ele>47.0</ele><time>2026-04-19T10:32:49Z</time></trkpt><trkpt lat="44.44631876053588" lon="8.966774092335111"><ele>47.0</ele><time>2026-04-19T10:32:51Z</time></trkpt><trkpt lat="44.44624995695031" lon="8.96670713982498"><ele>47.0</ele><time>2026-04-19T10:32:53Z</time></trkpt><trkpt lat="44.446184915041556" lon="8.96666718353996"><ele>47.0</ele><time>2026-04-19T10:32:55Z</time></trkpt><trkpt lat="44.44613648660736" lon="8.966608738919104"><ele>47.400000000000006</ele><time>2026-04-19T10:32:57Z</time></trkpt><trkpt lat="44.4460479475283" lon="8.966539324920289"><ele>47.800000000000004</ele><time>2026-04-19T10:33:00Z</time></trkpt><trkpt lat="44.44596688873341" lon="8.966481629890385"><ele>48.2</ele><time>2026-04-19T10:33:02Z</time></trkpt><trkpt lat="44.44587965352809" lon="8.966426050331172"><ele>48.6</ele><time>2026-04-19T10:33:04Z</time></trkpt><trkpt lat="44.44582452879372" lon="8.966352161006185"><ele>49.0</ele><time>2026-04-19T10:33:06Z</time></trkpt><trkpt lat="44.44575274786947" lon="8.96626184136304"><ele>49.0</ele><time>2026-04-19T10:33:08Z</time></trkpt><trkpt lat="44.445699549020816" lon="8.966212699811509"><ele>49.0</ele><time>2026-04-19T10:33:11Z</time></trkpt><trkpt lat="44.44558888314639" lon="8.966142829160498"><ele>49.0</ele><time>2026-04-19T10:33:14Z</time></trkpt><trkpt lat="44.44554303292694" lon="8.966065283622674"><ele>49.0</ele><time>2026-04-19T10:33:15Z</time></trkpt><trkpt lat="44.44547142640823" lon="8.965973874810937"><ele>49.0</ele><time>2026-04-19T10:33:17Z</time></trkpt><trkpt lat="44.445376319430764" lon="8.965928764948247"><ele>49.2</ele><time>2026-04-19T10:33:19Z</time></trkpt><trkpt lat="44.445331506968614" lon="8.965834379208072"><ele>49.400000000000006</ele><time>2026-04-19T10:33:21Z</time></trkpt><trkpt lat="44.445252592199815" lon="8.965753727188918"><ele>49.6</ele><time>2026-04-19T10:33:23Z</time></trkpt><trkpt lat="44.44516310689521" lon="8.965672990057923"><ele>49.8</ele><time>2026-04-19T10:33:25Z</time></trkpt><trkpt lat="44.44508065233303" lon="8.96558926414675"><ele>50.0</ele><time>2026-04-19T10:33:27Z</time></trkpt><trkpt lat="44.444997174211224" lon="8.965496646562912"><ele>50.0</ele><time>2026-04-19T10:33:29Z</time></trkpt><trkpt lat="44.444887601079856" lon="8.965433745479423"><ele>50.0</ele><time>2026-04-19T10:33:31Z</time></trkpt><trkpt lat="44.444808655451055" lon="8.965334884801138"><ele>50.0</ele><time>2026-04-19T10:33:33Z</time></trkpt><trkpt lat="44.444717579937134" lon="8.965255884359356"><ele>50.0</ele><time>2026-04-19T10:33:35Z</time></trkpt><trkpt lat="44.44461097356223" lon="8.96522096561138"><ele>50.0</ele><time>2026-04-19T10:33:37Z</time></trkpt><trkpt lat="44.444537358036165" lon="8.965113151161308"><ele>49.6</ele><time>2026-04-19T10:33:39Z</time></trkpt><trkpt lat="44.444450614906344" lon="8.965050746194319"><ele>49.2</ele><time>2026-04-19T10:33:41Z</time></trkpt><trkpt lat="44.44436418689054" lon="8.965003355646207"><ele>48.8</ele><time>2026-04-19T10:33:43Z</time></trkpt><trkpt lat="44.44428487604532" lon="8.964936132728674"><ele>48.4</ele><time>2026-04-19T10:33:45Z</time></trkpt><trkpt lat="44.44421566463377" lon="8.964838760282998"><ele>48.0</ele><time>2026-04-19T10:33:47Z</time></trkpt><trkpt lat="44.44414194245639" lon="8.964747043033194"><ele>48.0</ele><time>2026-04-19T10:33:49Z</time></trkpt><trkpt lat="44.44404290850341" lon="8.964698974182635"><ele>48.0</ele><time>2026-04-19T10:33:51Z</time></trkpt><trkpt lat="44.44397349476571" lon="8.964616861293324"><ele>48.0</ele><time>2026-04-19T10:33:53Z</time></trkpt><trkpt lat="44.443921634775165" lon="8.964512161685702"><ele>48.0</ele><time>2026-04-19T10:33:55Z</time></trkpt><trkpt lat="44.443854024362814" lon="8.964453263464963"><ele>48.0</ele><time>2026-04-19T10:33:57Z</time></trkpt><trkpt lat="44.44378475824118" lon="8.964397234180488"><ele>48.0</ele><time>2026-04-19T10:33:59Z</time></trkpt><trkpt lat="44.44373321530989" lon="8.964321512305132"><ele>47.8</ele><time>2026-04-19T10:34:01Z</time></trkpt><trkpt lat="44.443654276183615" lon="8.964201776728153"><ele>47.599999999999994</ele><time>2026-04-19T10:34:03Z</time></trkpt><trkpt lat="44.44360429680545" lon="8.964083049829972"><ele>47.400000000000006</ele><time>2026-04-19T10:34:05Z</time></trkpt><trkpt lat="44.44350777004444" lon="8.96402979902193"><ele>47.2</ele><time>2026-04-19T10:34:07Z</time></trkpt><trkpt lat="44.443425946978635" lon="8.963970071727864"><ele>47.0</ele><time>2026-04-19T10:34:09Z</time></trkpt><trkpt lat="44.44334428535012" lon="8.963885944737505"><ele>47.0</ele><time>2026-04-19T10:34:11Z</time></trkpt><trkpt lat="44.4432522066149" lon="8.963813401793642"><ele>47.0</ele><time>2026-04-19T10:34:13Z</time></trkpt><trkpt lat="44.44316445943581" lon="8.963765447245525"><ele>47.0</ele><time>2026-04-19T10:34:15Z</time></trkpt><trkpt lat="44.44305935863473" lon="8.963753312526952"><ele>47.0</ele><time>2026-04-19T10:34:17Z</time></trkpt><trkpt lat="44.44294298910368" lon="8.963741410628462"><ele>47.0</ele><time>2026-04-19T10:34:19Z</time></trkpt><trkpt lat="44.44283780598654" lon="8.963728221373758"><ele>45.8</ele><time>2026-04-19T10:34:21Z</time></trkpt><trkpt lat="44.44277644317596" lon="8.963703110739562"><ele>44.6</ele><time>2026-04-19T10:34:22Z</time></trkpt><trkpt lat="44.44268205773848" lon="8.963662460681226"><ele>43.4</ele><time>2026-04-19T10:34:24Z</time></trkpt><trkpt lat="44.44257789782255" lon="8.9636369133179"><ele>42.199999999999996</ele><time>2026-04-19T10:34:26Z</time></trkpt><trkpt lat="44.44245798983525" lon="8.963622304558019"><ele>41.0</ele><time>2026-04-19T10:34:28Z</time></trkpt><trkpt lat="44.442349717208415" lon="8.96361382303273"><ele>41.0</ele><time>2026-04-19T10:34:30Z</time></trkpt><trkpt lat="44.44223148342238" lon="8.963604715200953"><ele>41.0</ele><time>2026-04-19T10:34:32Z</time></trkpt><trkpt lat="44.442131948269164" lon="8.963571122564959"><ele>41.0</ele><time>2026-04-19T10:34:34Z</time></trkpt><trkpt lat="44.442028386306234" lon="8.963544955521781"><ele>41.0</ele><time>2026-04-19T10:34:36Z</time></trkpt><trkpt lat="44.44192958630472" lon="8.963538992417426"><ele>41.0</ele><time>2026-04-19T10:34:38Z</time></trkpt><trkpt lat="44.44183302354978" lon="8.963539074535145"><ele>40.4</ele><time>2026-04-19T10:34:40Z</time></trkpt><trkpt lat="44.44172536257003" lon="8.96353072920921"><ele>39.8</ele><time>2026-04-19T10:34:42Z</time></trkpt><trkpt lat="44.44162061930916" lon="8.96351565475785"><ele>39.199999999999996</ele><time>2026-04-19T10:34:44Z</time></trkpt><trkpt lat="44.441510967485925" lon="8.963486811382499"><ele>38.599999999999994</ele><time>2026-04-19T10:34:46Z</time></trkpt><trkpt lat="44.44140553567437" lon="8.963462494530729"><ele>38.0</ele><time>2026-04-19T10:34:48Z</time></trkpt><trkpt lat="44.441307276568125" lon="8.963411727844916"><ele>38.199999999999996</ele><time>2026-04-19T10:34:50Z</time></trkpt><trkpt lat="44.441211599760365" lon="8.963369405549475"><ele>38.4</ele><time>2026-04-19T10:34:52Z</time></trkpt><trkpt lat="44.441119126455135" lon="8.963318712490203"><ele>38.599999999999994</ele><time>2026-04-19T10:34:54Z</time></trkpt><trkpt lat="44.44102787741434" lon="8.963286567141905"><ele>38.8</ele><time>2026-04-19T10:34:56Z</time></trkpt><trkpt lat="44.44095047226182" lon="8.96324634527986"><ele>39.0</ele><time>2026-04-19T10:34:58Z</time></trkpt><trkpt lat="44.44087595033324" lon="8.963201512407938"><ele>39.0</ele><time>2026-04-19T10:35:00Z</time></trkpt><trkpt lat="44.44080614107587" lon="8.963188214207541"><ele>39.0</ele><time>2026-04-19T10:35:02Z</time></trkpt><trkpt lat="44.4407305251897" lon="8.963166109266268"><ele>39.0</ele><time>2026-04-19T10:35:04Z</time></trkpt><trkpt lat="44.44064830887166" lon="8.963118821638282"><ele>39.0</ele><time>2026-04-19T10:35:06Z</time></trkpt><trkpt lat="44.44056973810186" lon="8.963072269945139"><ele>39.0</ele><time>2026-04-19T10:35:08Z</time></trkpt><trkpt lat="44.44048874452892" lon="8.963033033174664"><ele>39.0</ele><time>2026-04-19T10:35:10Z</time></trkpt><trkpt lat="44.440408349635504" lon="8.962992197595355"><ele>39.0</ele><time>2026-04-19T10:35:12Z</time></trkpt><trkpt lat="44.440322325089554" lon="8.962945407650441"><ele>39.0</ele><time>2026-04-19T10:35:14Z</time></trkpt><trkpt lat="44.44023554405474" lon="8.96290518069061"><ele>39.0</ele><time>2026-04-19T10:35:16Z</time></trkpt><trkpt lat="44.440146335715546" lon="8.962880149202638"><ele>39.0</ele><time>2026-04-19T10:35:18Z</time></trkpt><trkpt lat="44.44005370699287" lon="8.9628400692072"><ele>39.0</ele><time>2026-04-19T10:35:20Z</time></trkpt><trkpt lat="44.4399607292719" lon="8.962816991256242"><ele>39.0</ele><time>2026-04-19T10:35:22Z</time></trkpt><trkpt lat="44.43986374405472" lon="8.962784873582839"><ele>39.0</ele><time>2026-04-19T10:35:24Z</time></trkpt><trkpt lat="44.43976072925488" lon="8.962749006558365"><ele>39.0</ele><time>2026-04-19T10:35:26Z</time></trkpt><trkpt lat="44.439654569055115" lon="8.962735620403947"><ele>39.0</ele><time>2026-04-19T10:35:28Z</time></trkpt><trkpt lat="44.439547091276935" lon="8.962692299116373"><ele>39.0</ele><time>2026-04-19T10:35:30Z</time></trkpt><trkpt lat="44.43944339834074" lon="8.962648193222671"><ele>38.8</ele><time>2026-04-19T10:35:32Z</time></trkpt><trkpt lat="44.43934152823658" lon="8.962618594590952"><ele>38.599999999999994</ele><time>2026-04-19T10:35:34Z</time></trkpt><trkpt lat="44.439242566390185" lon="8.96259219748898"><ele>38.4</ele><time>2026-04-19T10:35:36Z</time></trkpt><trkpt lat="44.43914963809792" lon="8.96256549434095"><ele>38.199999999999996</ele><time>2026-04-19T10:35:38Z</time></trkpt><trkpt lat="44.43906450093798" lon="8.962534223807245"><ele>38.0</ele><time>2026-04-19T10:35:40Z</time></trkpt><trkpt lat="44.4389774405458" lon="8.962509931445963"><ele>38.199999999999996</ele><time>2026-04-19T10:35:42Z</time></trkpt><trkpt lat="44.43888776264157" lon="8.962484329862264"><ele>38.4</ele><time>2026-04-19T10:35:44Z</time></trkpt><trkpt lat="44.438800187437764" lon="8.962454976511877"><ele>38.599999999999994</ele><time>2026-04-19T10:35:46Z</time></trkpt><trkpt lat="44.43869848786683" lon="8.962433047832366"><ele>38.8</ele><time>2026-04-19T10:35:48Z</time></trkpt><trkpt lat="44.43860912603185" lon="8.962413088872726"><ele>39.0</ele><time>2026-04-19T10:35:50Z</time></trkpt><trkpt lat="44.43852828247691" lon="8.96239593211624"><ele>39.0</ele><time>2026-04-19T10:35:52Z</time></trkpt><trkpt lat="44.43843925194575" lon="8.962366756632264"><ele>39.0</ele><time>2026-04-19T10:35:55Z</time></trkpt><trkpt lat="44.438360956627676" lon="8.962344283819"><ele>39.0</ele><time>2026-04-19T10:35:58Z</time></trkpt><trkpt lat="44.43827271657367" lon="8.962313322600048"><ele>39.0</ele><time>2026-04-19T10:36:01Z</time></trkpt><trkpt lat="44.43820244045918" lon="8.962293457294336"><ele>39.0</ele><time>2026-04-19T10:36:03Z</time></trkpt><trkpt lat="44.43812428069167" lon="8.962268945035367"><ele>39.0</ele><time>2026-04-19T10:36:05Z</time></trkpt><trkpt lat="44.43805334627791" lon="8.962218529971313"><ele>39.0</ele><time>2026-04-19T10:36:07Z</time></trkpt><trkpt lat="44.43797559766368" lon="8.962204059836997"><ele>39.0</ele><time>2026-04-19T10:36:09Z</time></trkpt><trkpt lat="44.43790279464248" lon="8.962165573096186"><ele>39.0</ele><time>2026-04-19T10:36:11Z</time></trkpt><trkpt lat="44.43782094676055" lon="8.962133832876152"><ele>39.0</ele><time>2026-04-19T10:36:13Z</time></trkpt><trkpt lat="44.43773247425669" lon="8.962102556625181"><ele>39.0</ele><time>2026-04-19T10:36:15Z</time></trkpt><trkpt lat="44.43765369315661" lon="8.962067519666492"><ele>39.0</ele><time>2026-04-19T10:36:17Z</time></trkpt><trkpt lat="44.43758314539823" lon="8.962050349114262"><ele>38.0</ele><time>2026-04-19T10:36:19Z</time></trkpt><trkpt lat="44.43751022201229" lon="8.96204131032307"><ele>37.0</ele><time>2026-04-19T10:36:21Z</time></trkpt><trkpt lat="44.43742567950125" lon="8.962031440606365"><ele>36.0</ele><time>2026-04-19T10:36:23Z</time></trkpt><trkpt lat="44.43732954229968" lon="8.962027612987885"><ele>35.0</ele><time>2026-04-19T10:36:25Z</time></trkpt><trkpt lat="44.437235714638646" lon="8.962018640499343"><ele>34.0</ele><time>2026-04-19T10:36:27Z</time></trkpt><trkpt lat="44.437142451693866" lon="8.962018152086591"><ele>33.0</ele><time>2026-04-19T10:36:29Z</time></trkpt><trkpt lat="44.43704632031364" lon="8.962013119019206"><ele>32.8</ele><time>2026-04-19T10:36:31Z</time></trkpt><trkpt lat="44.436956544083934" lon="8.962009251688086"><ele>32.599999999999994</ele><time>2026-04-19T10:36:33Z</time></trkpt><trkpt lat="44.43686364153664" lon="8.96200569888118"><ele>32.400000000000006</ele><time>2026-04-19T10:36:35Z</time></trkpt><trkpt lat="44.436761760719946" lon="8.961995259863375"><ele>32.2</ele><time>2026-04-19T10:36:37Z</time></trkpt><trkpt lat="44.436656341538225" lon="8.961986900581135"><ele>32.0</ele><time>2026-04-19T10:36:39Z</time></trkpt><trkpt lat="44.436551725398964" lon="8.961977845094221"><ele>32.0</ele><time>2026-04-19T10:36:41Z</time></trkpt><trkpt lat="44.436445249207345" lon="8.961959007975468"><ele>32.0</ele><time>2026-04-19T10:36:43Z</time></trkpt><trkpt lat="44.436332188726844" lon="8.961946561513127"><ele>32.0</ele><time>2026-04-19T10:36:45Z</time></trkpt><trkpt lat="44.43624838667531" lon="8.961947508667675"><ele>32.0</ele><time>2026-04-19T10:36:47Z</time></trkpt><trkpt lat="44.43618185600956" lon="8.961948595912745"><ele>32.0</ele><time>2026-04-19T10:36:50Z</time></trkpt><trkpt lat="44.4360949125765" lon="8.961917516999865"><ele>31.6</ele><time>2026-04-19T10:36:53Z</time></trkpt><trkpt lat="44.43603161847742" lon="8.961912199044402"><ele>31.200000000000003</ele><time>2026-04-19T10:36:55Z</time></trkpt><trkpt lat="44.43595334029042" lon="8.961891206073828"><ele>30.8</ele><time>2026-04-19T10:36:57Z</time></trkpt><trkpt lat="44.4358590432934" lon="8.961871731323376"><ele>30.4</ele><time>2026-04-19T10:36:59Z</time></trkpt><trkpt lat="44.43575292875615" lon="8.96185335210609"><ele>30.0</ele><time>2026-04-19T10:37:01Z</time></trkpt><trkpt lat="44.4356450599107" lon="8.961826339759963"><ele>30.0</ele><time>2026-04-19T10:37:03Z</time></trkpt><trkpt lat="44.43553241858518" lon="8.961780761518742"><ele>30.0</ele><time>2026-04-19T10:37:05Z</time></trkpt><trkpt lat="44.435427304602435" lon="8.961724370103527"><ele>30.0</ele><time>2026-04-19T10:37:07Z</time></trkpt><trkpt lat="44.43532272567568" lon="8.961671287352594"><ele>30.0</ele><time>2026-04-19T10:37:09Z</time></trkpt><trkpt lat="44.43522203413598" lon="8.961613397700155"><ele>30.2</ele><time>2026-04-19T10:37:11Z</time></trkpt><trkpt lat="44.435118471726504" lon="8.961564447208106"><ele>30.4</ele><time>2026-04-19T10:37:13Z</time></trkpt><trkpt lat="44.43501801952222" lon="8.96150175697408"><ele>30.6</ele><time>2026-04-19T10:37:15Z</time></trkpt><trkpt lat="44.4349228887532" lon="8.96143753238116"><ele>30.8</ele><time>2026-04-19T10:37:17Z</time></trkpt><trkpt lat="44.43482808811153" lon="8.961378404707323"><ele>31.0</ele><time>2026-04-19T10:37:19Z</time></trkpt><trkpt lat="44.43474169117637" lon="8.96130778131029"><ele>31.0</ele><time>2026-04-19T10:37:21Z</time></trkpt><trkpt lat="44.43464955322328" lon="8.961246817424396"><ele>31.0</ele><time>2026-04-19T10:37:23Z</time></trkpt><trkpt lat="44.43456322698219" lon="8.961178135144698"><ele>31.0</ele><time>2026-04-19T10:37:25Z</time></trkpt><trkpt lat="44.434477412139266" lon="8.961087686908298"><ele>31.0</ele><time>2026-04-19T10:37:27Z</time></trkpt><trkpt lat="44.43439683878246" lon="8.961014678489105"><ele>31.0</ele><time>2026-04-19T10:37:29Z</time></trkpt><trkpt lat="44.43430993601552" lon="8.960939756299792"><ele>31.200000000000003</ele><time>2026-04-19T10:37:31Z</time></trkpt><trkpt lat="44.434227975638926" lon="8.960862213960713"><ele>31.400000000000002</ele><time>2026-04-19T10:37:33Z</time></trkpt><trkpt lat="44.434149495069455" lon="8.960772732636615"><ele>31.6</ele><time>2026-04-19T10:37:35Z</time></trkpt><trkpt lat="44.43406897317312" lon="8.960682546112476"><ele>31.8</ele><time>2026-04-19T10:37:37Z</time></trkpt><trkpt lat="44.433985505924824" lon="8.960603333877257"><ele>32.0</ele><time>2026-04-19T10:37:39Z</time></trkpt><trkpt lat="44.43389890054177" lon="8.960532860263527"><ele>32.0</ele><time>2026-04-19T10:37:41Z</time></trkpt><trkpt lat="44.43381962068253" lon="8.96043689245974"><ele>32.0</ele><time>2026-04-19T10:37:43Z</time></trkpt><trkpt lat="44.4337368072198" lon="8.960356539018031"><ele>32.0</ele><time>2026-04-19T10:37:45Z</time></trkpt><trkpt lat="44.43365929672767" lon="8.960271909628398"><ele>32.0</ele><time>2026-04-19T10:37:47Z</time></trkpt><trkpt lat="44.43358385575059" lon="8.960189266693714"><ele>32.0</ele><time>2026-04-19T10:37:49Z</time></trkpt><trkpt lat="44.433504382044546" lon="8.96011986506019"><ele>32.6</ele><time>2026-04-19T10:37:51Z</time></trkpt><trkpt lat="44.43342091793458" lon="8.960029520057455"><ele>33.2</ele><time>2026-04-19T10:37:53Z</time></trkpt><trkpt lat="44.43334004477096" lon="8.959947126727059"><ele>33.8</ele><time>2026-04-19T10:37:55Z</time></trkpt><trkpt lat="44.43325950254192" lon="8.959856584246973"><ele>34.4</ele><time>2026-04-19T10:37:57Z</time></trkpt><trkpt lat="44.43318222085967" lon="8.959780044929987"><ele>35.0</ele><time>2026-04-19T10:37:59Z</time></trkpt><trkpt lat="44.43311154227156" lon="8.959703228724273"><ele>35.0</ele><time>2026-04-19T10:38:01Z</time></trkpt><trkpt lat="44.43305991041808" lon="8.95962713338337"><ele>35.0</ele><time>2026-04-19T10:38:03Z</time></trkpt><trkpt lat="44.43306920193049" lon="8.959537593820297"><ele>35.0</ele><time>2026-04-19T10:38:05Z</time></trkpt><trkpt lat="44.43312351363696" lon="8.95944014107771"><ele>35.0</ele><time>2026-04-19T10:38:07Z</time></trkpt><trkpt lat="44.43316385965575" lon="8.959345857897532"><ele>35.0</ele><time>2026-04-19T10:38:10Z</time></trkpt><trkpt lat="44.43312899070681" lon="8.959267216818413"><ele>35.0</ele><time>2026-04-19T10:38:13Z</time></trkpt><trkpt lat="44.433067325755246" lon="8.95921032737005"><ele>35.0</ele><time>2026-04-19T10:38:15Z</time></trkpt><trkpt lat="44.43300326874129" lon="8.959150873069214"><ele>34.83333333333333</ele><time>2026-04-19T10:38:17Z</time></trkpt><trkpt lat="44.43292750275817" lon="8.959092580094396"><ele>34.666666666666664</ele><time>2026-04-19T10:38:19Z</time></trkpt><trkpt lat="44.4328494746496" lon="8.95903574680235"><ele>34.5</ele><time>2026-04-19T10:38:21Z</time></trkpt><trkpt lat="44.4328181159663" lon="8.958932218079251"><ele>34.333333333333336</ele><time>2026-04-19T10:38:23Z</time></trkpt><trkpt lat="44.43279438582174" lon="8.958848675204106"><ele>34.16666666666667</ele><time>2026-04-19T10:38:25Z</time></trkpt><trkpt lat="44.43276293129525" lon="8.958756843622542"><ele>34.0</ele><time>2026-04-19T10:38:27Z</time></trkpt><trkpt lat="44.432698796802946" lon="8.958701530364864"><ele>34.0</ele><time>2026-04-19T10:38:29Z</time></trkpt><trkpt lat="44.432635936795464" lon="8.958653930660084"><ele>34.0</ele><time>2026-04-19T10:38:31Z</time></trkpt><trkpt lat="44.43261661507662" lon="8.958533292649227"><ele>34.0</ele><time>2026-04-19T10:38:33Z</time></trkpt><trkpt lat="44.43257944588172" lon="8.95842892751818"><ele>34.0</ele><time>2026-04-19T10:38:35Z</time></trkpt><trkpt lat="44.43252567184681" lon="8.958340471897218"><ele>34.0</ele><time>2026-04-19T10:38:37Z</time></trkpt><trkpt lat="44.43246874290669" lon="8.958261258433003"><ele>34.0</ele><time>2026-04-19T10:38:39Z</time></trkpt><trkpt lat="44.43242864057234" lon="8.958159081981766"><ele>34.333333333333336</ele><time>2026-04-19T10:38:41Z</time></trkpt><trkpt lat="44.43237920143464" lon="8.958067620260822"><ele>34.66666666666667</ele><time>2026-04-19T10:38:43Z</time></trkpt><trkpt lat="44.4323287804028" lon="8.957957786869708"><ele>35.0</ele><time>2026-04-19T10:38:45Z</time></trkpt><trkpt lat="44.432258555013405" lon="8.95787159506957"><ele>35.333333333333336</ele><time>2026-04-19T10:38:47Z</time></trkpt><trkpt lat="44.43216091320011" lon="8.957846863523155"><ele>35.666666666666664</ele><time>2026-04-19T10:38:49Z</time></trkpt><trkpt lat="44.43209270261002" lon="8.957794366160481"><ele>36.0</ele><time>2026-04-19T10:38:51Z</time></trkpt><trkpt lat="44.43201933961772" lon="8.957739292631704"><ele>34.666666666666664</ele><time>2026-04-19T10:38:53Z</time></trkpt><trkpt lat="44.43192381871864" lon="8.957727650009508"><ele>33.333333333333336</ele><time>2026-04-19T10:38:55Z</time></trkpt><trkpt lat="44.431818494173456" lon="8.95772405763142"><ele>32.0</ele><time>2026-04-19T10:38:57Z</time></trkpt><trkpt lat="44.43173769167238" lon="8.95770381787709"><ele>30.666666666666668</ele><time>2026-04-19T10:38:59Z</time></trkpt><trkpt lat="44.431673621120524" lon="8.957672210898007"><ele>29.333333333333336</ele><time>2026-04-19T10:39:01Z</time></trkpt><trkpt lat="44.43159125595646" lon="8.95765170294107"><ele>28.0</ele><time>2026-04-19T10:39:03Z</time></trkpt><trkpt lat="44.431530635074004" lon="8.95760829286421"><ele>28.000000000000004</ele><time>2026-04-19T10:39:05Z</time></trkpt><trkpt lat="44.43145589529872" lon="8.957565790404663"><ele>28.0</ele><time>2026-04-19T10:39:07Z</time></trkpt><trkpt lat="44.43139141311487" lon="8.957517717427974"><ele>28.0</ele><time>2026-04-19T10:39:09Z</time></trkpt><trkpt lat="44.431320093101554" lon="8.957474169713075"><ele>28.0</ele><time>2026-04-19T10:39:11Z</time></trkpt><trkpt lat="44.43127163629478" lon="8.957407203765621"><ele>28.000000000000004</ele><time>2026-04-19T10:39:14Z</time></trkpt><trkpt lat="44.431186615839046" lon="8.95735854771618"><ele>28.0</ele><time>2026-04-19T10:39:17Z</time></trkpt><trkpt lat="44.431067163734845" lon="8.957303263535017"><ele>28.500000000000004</ele><time>2026-04-19T10:39:20Z</time></trkpt><trkpt lat="44.43096052904916" lon="8.957231003799771"><ele>29.0</ele><time>2026-04-19T10:39:23Z</time></trkpt><trkpt lat="44.43087960614567" lon="8.957172715934899"><ele>29.5</ele><time>2026-04-19T10:39:25Z</time></trkpt><trkpt lat="44.4308188600643" lon="8.957122964057094"><ele>30.0</ele><time>2026-04-19T10:39:27Z</time></trkpt><trkpt lat="44.43074916428815" lon="8.957048328078304"><ele>30.500000000000004</ele><time>2026-04-19T10:39:30Z</time></trkpt><trkpt lat="44.43070300441283" lon="8.956980218522233"><ele>31.0</ele><time>2026-04-19T10:39:32Z</time></trkpt><trkpt lat="44.43062075643133" lon="8.956894826280518"><ele>31.000000000000004</ele><time>2026-04-19T10:39:35Z</time></trkpt><trkpt lat="44.43056202711321" lon="8.956844891005229"><ele>31.0</ele><time>2026-04-19T10:39:38Z</time></trkpt><trkpt lat="44.43053454499012" lon="8.956763585226431"><ele>31.0</ele><time>2026-04-19T10:39:41Z</time></trkpt><trkpt lat="44.43051807783098" lon="8.95661306539875"><ele>31.0</ele><time>2026-04-19T10:39:45Z</time></trkpt><trkpt lat="44.430489240734445" lon="8.95652355603589"><ele>31.000000000000004</ele><time>2026-04-19T10:39:48Z</time></trkpt><trkpt lat="44.43044623867205" lon="8.956453433250992"><ele>31.0</ele><time>2026-04-19T10:39:50Z</time></trkpt><trkpt lat="44.430374359765935" lon="8.956390356956799"><ele>30.000000000000004</ele><time>2026-04-19T10:39:54Z</time></trkpt><trkpt lat="44.430280443886666" lon="8.956329192326635"><ele>29.0</ele><time>2026-04-19T10:39:56Z</time></trkpt><trkpt lat="44.43021882720557" lon="8.956231272735737"><ele>28.0</ele><time>2026-04-19T10:39:59Z</time></trkpt><trkpt lat="44.430160862981985" lon="8.956193161494193"><ele>27.0</ele><time>2026-04-19T10:40:01Z</time></trkpt><trkpt lat="44.430111997131824" lon="8.956123998306259"><ele>26.000000000000004</ele><time>2026-04-19T10:40:03Z</time></trkpt><trkpt lat="44.430064592011796" lon="8.956043397451614"><ele>25.0</ele><time>2026-04-19T10:40:04Z</time></trkpt><trkpt lat="44.430021688589335" lon="8.955949756985726"><ele>27.0</ele><time>2026-04-19T10:40:07Z</time></trkpt><trkpt lat="44.4299773176974" lon="8.955853822925125"><ele>29.0</ele><time>2026-04-19T10:40:08Z</time></trkpt><trkpt lat="44.429936174763114" lon="8.955725622954436"><ele>31.0</ele><time>2026-04-19T10:40:10Z</time></trkpt><trkpt lat="44.42988314039817" lon="8.955614579087644"><ele>33.0</ele><time>2026-04-19T10:40:12Z</time></trkpt><trkpt lat="44.42984389244199" lon="8.955498152467715"><ele>35.0</ele><time>2026-04-19T10:40:14Z</time></trkpt><trkpt lat="44.42980282284072" lon="8.955388821390315"><ele>35.0</ele><time>2026-04-19T10:40:16Z</time></trkpt><trkpt lat="44.42977660298985" lon="8.955281124034022"><ele>35.0</ele><time>2026-04-19T10:40:18Z</time></trkpt><trkpt lat="44.4297508583901" lon="8.955150078760036"><ele>35.0</ele><time>2026-04-19T10:40:20Z</time></trkpt><trkpt lat="44.42973569855881" lon="8.955033102466164"><ele>35.0</ele><time>2026-04-19T10:40:22Z</time></trkpt><trkpt lat="44.42971887242592" lon="8.954907880312113"><ele>35.0</ele><time>2026-04-19T10:40:24Z</time></trkpt><trkpt lat="44.429686452757274" lon="8.95480636879805"><ele>35.0</ele><time>2026-04-19T10:40:26Z</time></trkpt><trkpt lat="44.4296770076084" lon="8.954682359208757"><ele>36.33333333333333</ele><time>2026-04-19T10:40:28Z</time></trkpt><trkpt lat="44.42966118102985" lon="8.95457403950774"><ele>37.666666666666664</ele><time>2026-04-19T10:40:30Z</time></trkpt><trkpt lat="44.42961423766042" lon="8.954467936327752"><ele>39.0</ele><time>2026-04-19T10:40:33Z</time></trkpt><trkpt lat="44.42957323304288" lon="8.954399994280186"><ele>40.333333333333336</ele><time>2026-04-19T10:40:35Z</time></trkpt><trkpt lat="44.42951453982239" lon="8.954342805147215"><ele>41.66666666666667</ele><time>2026-04-19T10:40:38Z</time></trkpt><trkpt lat="44.42941674035799" lon="8.954320978139004"><ele>43.0</ele><time>2026-04-19T10:40:41Z</time></trkpt><trkpt lat="44.42934395272004" lon="8.954373308012665"><ele>40.42857142857143</ele><time>2026-04-19T10:40:43Z</time></trkpt><trkpt lat="44.42925904211992" lon="8.954383571764243"><ele>37.85714285714286</ele><time>2026-04-19T10:40:45Z</time></trkpt><trkpt lat="44.42919556784795" lon="8.954433916805005"><ele>35.28571428571429</ele><time>2026-04-19T10:40:47Z</time></trkpt><trkpt lat="44.429132938130834" lon="8.95445122044422"><ele>32.714285714285715</ele><time>2026-04-19T10:40:49Z</time></trkpt><trkpt lat="44.42907214720532" lon="8.954503447422319"><ele>30.142857142857146</ele><time>2026-04-19T10:40:52Z</time></trkpt><trkpt lat="44.42900319129278" lon="8.95446334095293"><ele>27.571428571428573</ele><time>2026-04-19T10:40:56Z</time></trkpt><trkpt lat="44.428964348809046" lon="8.95437167402805"><ele>25.0</ele><time>2026-04-19T10:40:59Z</time></trkpt><trkpt lat="44.428958040504575" lon="8.954278454053112"><ele>24.833333333333336</ele><time>2026-04-19T10:41:02Z</time></trkpt><trkpt lat="44.42891768323598" lon="8.95417891674293"><ele>24.666666666666668</ele><time>2026-04-19T10:41:05Z</time></trkpt><trkpt lat="44.428863972506115" lon="8.954062917224809"><ele>24.5</ele><time>2026-04-19T10:41:08Z</time></trkpt><trkpt lat="44.42884255105637" lon="8.953970430698801"><ele>24.333333333333336</ele><time>2026-04-19T10:41:10Z</time></trkpt><trkpt lat="44.42883332338798" lon="8.953861484878859"><ele>24.166666666666668</ele><time>2026-04-19T10:41:12Z</time></trkpt><trkpt lat="44.42880020106066" lon="8.953778807720093"><ele>24.0</ele><time>2026-04-19T10:41:14Z</time></trkpt><trkpt lat="44.42877800124917" lon="8.95369123675284"><ele>24.0</ele><time>2026-04-19T10:41:16Z</time></trkpt><trkpt lat="44.42875255948258" lon="8.953603822906578"><ele>24.0</ele><time>2026-04-19T10:41:18Z</time></trkpt><trkpt lat="44.428736678361496" lon="8.953486648817634"><ele>24.0</ele><time>2026-04-19T10:41:21Z</time></trkpt><trkpt lat="44.42871538802239" lon="8.953387689686144"><ele>24.0</ele><time>2026-04-19T10:41:24Z</time></trkpt><trkpt lat="44.42868467886224" lon="8.953299017764778"><ele>24.0</ele><time>2026-04-19T10:41:27Z</time></trkpt><trkpt lat="44.42864290644394" lon="8.9531838639837"><ele>24.0</ele><time>2026-04-19T10:41:30Z</time></trkpt><trkpt lat="44.42862692285468" lon="8.953097951051657"><ele>23.71428571428571</ele><time>2026-04-19T10:41:32Z</time></trkpt><trkpt lat="44.428596029206425" lon="8.952979720568859"><ele>23.428571428571427</ele><time>2026-04-19T10:41:35Z</time></trkpt><trkpt lat="44.42858020109562" lon="8.952892345978812"><ele>23.142857142857142</ele><time>2026-04-19T10:41:37Z</time></trkpt><trkpt lat="44.428573331852306" lon="8.952777213915306"><ele>22.857142857142854</ele><time>2026-04-19T10:41:40Z</time></trkpt><trkpt lat="44.4285365142807" lon="8.952683360815998"><ele>22.57142857142857</ele><time>2026-04-19T10:41:43Z</time></trkpt><trkpt lat="44.42850904627684" lon="8.952602263465087"><ele>22.285714285714285</ele><time>2026-04-19T10:41:46Z</time></trkpt><trkpt lat="44.428493267538855" lon="8.952513058299711"><ele>22.0</ele><time>2026-04-19T10:41:48Z</time></trkpt><trkpt lat="44.42847349755299" lon="8.95242451768928"><ele>22.0</ele><time>2026-04-19T10:41:50Z</time></trkpt><trkpt lat="44.42845560390646" lon="8.952336598022507"><ele>22.0</ele><time>2026-04-19T10:41:52Z</time></trkpt><trkpt lat="44.42844017873892" lon="8.952241956314818"><ele>22.0</ele><time>2026-04-19T10:41:54Z</time></trkpt><trkpt lat="44.428423650571254" lon="8.952151658983633"><ele>22.0</ele><time>2026-04-19T10:41:56Z</time></trkpt><trkpt lat="44.42840643221499" lon="8.952062575570281"><ele>22.0</ele><time>2026-04-19T10:41:58Z</time></trkpt><trkpt lat="44.428379091747345" lon="8.9519390736685"><ele>22.0</ele><time>2026-04-19T10:42:01Z</time></trkpt><trkpt lat="44.42837096319132" lon="8.951849740370534"><ele>22.0</ele><time>2026-04-19T10:42:03Z</time></trkpt><trkpt lat="44.42834482205153" lon="8.9517662408618"><ele>22.666666666666664</ele><time>2026-04-19T10:42:05Z</time></trkpt><trkpt lat="44.42831837112317" lon="8.951639509122668"><ele>23.333333333333332</ele><time>2026-04-19T10:42:08Z</time></trkpt><trkpt lat="44.42827664240498" lon="8.951531790723461"><ele>24.0</ele><time>2026-04-19T10:42:11Z</time></trkpt><trkpt lat="44.428237420068434" lon="8.951438625590963"><ele>24.666666666666664</ele><time>2026-04-19T10:42:14Z</time></trkpt><trkpt lat="44.42819765470297" lon="8.951342644440832"><ele>25.333333333333332</ele><time>2026-04-19T10:42:17Z</time></trkpt><trkpt lat="44.428193763645325" lon="8.95122164581866"><ele>26.0</ele><time>2026-04-19T10:42:20Z</time></trkpt><trkpt lat="44.428169174587026" lon="8.951139035689396"><ele>25.999999999999996</ele><time>2026-04-19T10:42:22Z</time></trkpt><trkpt lat="44.42815381722367" lon="8.95105080183395"><ele>26.0</ele><time>2026-04-19T10:42:24Z</time></trkpt><trkpt lat="44.42815348960696" lon="8.950929712307142"><ele>26.0</ele><time>2026-04-19T10:42:27Z</time></trkpt><trkpt lat="44.428171805739616" lon="8.950818664974172"><ele>26.0</ele><time>2026-04-19T10:42:30Z</time></trkpt><trkpt lat="44.428159125339945" lon="8.95070558307415"><ele>25.999999999999996</ele><time>2026-04-19T10:42:33Z</time></trkpt><trkpt lat="44.4281365528069" lon="8.950611386994257"><ele>26.0</ele><time>2026-04-19T10:42:36Z</time></trkpt><trkpt lat="44.42810044882254" lon="8.950495884830392"><ele>26.166666666666664</ele><time>2026-04-19T10:42:40Z</time></trkpt><trkpt lat="44.428061990546155" lon="8.950387206427102"><ele>26.333333333333332</ele><time>2026-04-19T10:42:43Z</time></trkpt><trkpt lat="44.428023377523544" lon="8.950277782502447"><ele>26.5</ele><time>2026-04-19T10:42:46Z</time></trkpt><trkpt lat="44.42800015492541" lon="8.950171229300839"><ele>26.666666666666664</ele><time>2026-04-19T10:42:49Z</time></trkpt><trkpt lat="44.42798845374633" lon="8.950082030712327"><ele>26.833333333333332</ele><time>2026-04-19T10:42:53Z</time></trkpt><trkpt lat="44.42793791097386" lon="8.95002684237429"><ele>27.0</ele><time>2026-04-19T10:42:56Z</time></trkpt><trkpt lat="44.427888226339334" lon="8.949952897815368"><ele>27.166666666666668</ele><time>2026-04-19T10:42:59Z</time></trkpt><trkpt lat="44.427859444072176" lon="8.949860714461991"><ele>27.333333333333336</ele><time>2026-04-19T10:43:02Z</time></trkpt><trkpt lat="44.42784274458992" lon="8.949751295851348"><ele>27.5</ele><time>2026-04-19T10:43:06Z</time></trkpt><trkpt lat="44.42786818900029" lon="8.949661601332982"><ele>27.666666666666668</ele><time>2026-04-19T10:43:09Z</time></trkpt><trkpt lat="44.42786239799602" lon="8.949546115317947"><ele>27.833333333333336</ele><time>2026-04-19T10:43:14Z</time></trkpt><trkpt lat="44.42793187463638" lon="8.949492366528709"><ele>28.0</ele><time>2026-04-19T10:43:17Z</time></trkpt><trkpt lat="44.42800413489423" lon="8.949449716350044"><ele>28.000000000000004</ele><time>2026-04-19T10:43:20Z</time></trkpt><trkpt lat="44.428060106058936" lon="8.949406071655881"><ele>28.0</ele><time>2026-04-19T10:43:24Z</time></trkpt><trkpt lat="44.428100698342774" lon="8.94931388926327"><ele>28.0</ele><time>2026-04-19T10:43:36Z</time></trkpt><trkpt lat="44.428071804735595" lon="8.949225129405185"><ele>28.0</ele><time>2026-04-19T10:43:38Z</time></trkpt><trkpt lat="44.42805114400317" lon="8.94912091416885"><ele>28.000000000000004</ele><time>2026-04-19T10:43:40Z</time></trkpt><trkpt lat="44.428033839070814" lon="8.948993890674707"><ele>28.0</ele><time>2026-04-19T10:43:42Z</time></trkpt><trkpt lat="44.428011646199224" lon="8.948868632456001"><ele>27.666666666666668</ele><time>2026-04-19T10:43:44Z</time></trkpt><trkpt lat="44.42798717598723" lon="8.948745989658306"><ele>27.333333333333336</ele><time>2026-04-19T10:43:46Z</time></trkpt><trkpt lat="44.42796785471832" lon="8.948637181838107"><ele>27.0</ele><time>2026-04-19T10:43:48Z</time></trkpt><trkpt lat="44.427942079682865" lon="8.94853970426031"><ele>26.666666666666664</ele><time>2026-04-19T10:43:50Z</time></trkpt><trkpt lat="44.42792198805465" lon="8.948443458125672"><ele>26.333333333333332</ele><time>2026-04-19T10:43:52Z</time></trkpt><trkpt lat="44.4279051440916" lon="8.94831612564389"><ele>26.0</ele><time>2026-04-19T10:43:58Z</time></trkpt><trkpt lat="44.427851512882604" lon="8.948221475991861"><ele>25.666666666666664</ele><time>2026-04-19T10:44:01Z</time></trkpt><trkpt lat="44.42780559352328" lon="8.948117458481336"><ele>25.333333333333332</ele><time>2026-04-19T10:44:04Z</time></trkpt><trkpt lat="44.427772023748126" lon="8.947993228550716"><ele>25.0</ele><time>2026-04-19T10:44:07Z</time></trkpt><trkpt lat="44.42771242181999" lon="8.947908500471842"><ele>24.666666666666664</ele><time>2026-04-19T10:44:10Z</time></trkpt><trkpt lat="44.427662515883384" lon="8.9478311225"><ele>24.333333333333332</ele><time>2026-04-19T10:44:12Z</time></trkpt><trkpt lat="44.42760525924499" lon="8.94778936348192"><ele>24.0</ele><time>2026-04-19T10:44:14Z</time></trkpt><trkpt lat="44.427511802257584" lon="8.947722805090542"><ele>24.0</ele><time>2026-04-19T10:44:17Z</time></trkpt><trkpt lat="44.427439520202746" lon="8.947664958771885"><ele>24.0</ele><time>2026-04-19T10:44:18Z</time></trkpt><trkpt lat="44.427382561485466" lon="8.947604258230788"><ele>24.0</ele><time>2026-04-19T10:44:20Z</time></trkpt><trkpt lat="44.42728491246831" lon="8.947550102826336"><ele>24.0</ele><time>2026-04-19T10:44:22Z</time></trkpt><trkpt lat="44.42719035081423" lon="8.947519411843944"><ele>24.0</ele><time>2026-04-19T10:44:25Z</time></trkpt><trkpt lat="44.42707509346039" lon="8.947479166428975"><ele>25.0</ele><time>2026-04-19T10:44:29Z</time></trkpt><trkpt lat="44.42699463060131" lon="8.947441141299398"><ele>26.0</ele><time>2026-04-19T10:44:30Z</time></trkpt><trkpt lat="44.42693009377157" lon="8.947432145362903"><ele>27.0</ele><time>2026-04-19T10:44:31Z</time></trkpt><trkpt lat="44.42686691135204" lon="8.947433655414914"><ele>28.0</ele><time>2026-04-19T10:44:32Z</time></trkpt><trkpt lat="44.42673556354582" lon="8.947480801217363"><ele>29.0</ele><time>2026-04-19T10:44:34Z</time></trkpt><trkpt lat="44.42662790078079" lon="8.94747776586426"><ele>28.999999999999996</ele><time>2026-04-19T10:44:36Z</time></trkpt><trkpt lat="44.42655778438748" lon="8.947471810697008"><ele>29.0</ele><time>2026-04-19T10:44:37Z</time></trkpt><trkpt lat="44.426488125058135" lon="8.94749964959888"><ele>29.0</ele><time>2026-04-19T10:44:38Z</time></trkpt><trkpt lat="44.42638446666462" lon="8.94745994333119"><ele>29.0</ele><time>2026-04-19T10:44:40Z</time></trkpt><trkpt lat="44.426320681154635" lon="8.947447976819777"><ele>28.999999999999996</ele><time>2026-04-19T10:44:41Z</time></trkpt><trkpt lat="44.42620766311217" lon="8.947429011859525"><ele>29.0</ele><time>2026-04-19T10:44:43Z</time></trkpt><trkpt lat="44.42609432116912" lon="8.947427113985173"><ele>28.499999999999996</ele><time>2026-04-19T10:44:45Z</time></trkpt><trkpt lat="44.42599452202105" lon="8.947400185637122"><ele>28.0</ele><time>2026-04-19T10:44:47Z</time></trkpt><trkpt lat="44.425911450266824" lon="8.947385283984758"><ele>27.5</ele><time>2026-04-19T10:44:49Z</time></trkpt><trkpt lat="44.42583685881264" lon="8.947379587926218"><ele>27.0</ele><time>2026-04-19T10:44:51Z</time></trkpt><trkpt lat="44.42577317584471" lon="8.947351278331778"><ele>26.499999999999996</ele><time>2026-04-19T10:44:53Z</time></trkpt><trkpt lat="44.425702067357825" lon="8.94733620416463"><ele>26.0</ele><time>2026-04-19T10:44:55Z</time></trkpt><trkpt lat="44.425626648944345" lon="8.947325219855701"><ele>25.999999999999996</ele><time>2026-04-19T10:44:57Z</time></trkpt><trkpt lat="44.42554892236903" lon="8.947288061989239"><ele>26.0</ele><time>2026-04-19T10:44:59Z</time></trkpt><trkpt lat="44.42547627766916" lon="8.947255862464017"><ele>26.0</ele><time>2026-04-19T10:45:02Z</time></trkpt><trkpt lat="44.42541079651471" lon="8.947253716568056"><ele>26.0</ele><time>2026-04-19T10:45:05Z</time></trkpt><trkpt lat="44.42532494814629" lon="8.947251230040957"><ele>25.999999999999996</ele><time>2026-04-19T10:45:08Z</time></trkpt><trkpt lat="44.42524582142364" lon="8.94723957821686"><ele>26.0</ele><time>2026-04-19T10:45:11Z</time></trkpt><trkpt lat="44.42517404290387" lon="8.94721828939497"><ele>25.833333333333332</ele><time>2026-04-19T10:45:13Z</time></trkpt><trkpt lat="44.425092734732544" lon="8.947202934239913"><ele>25.666666666666664</ele><time>2026-04-19T10:45:15Z</time></trkpt><trkpt lat="44.42500903076873" lon="8.947191171272456"><ele>25.5</ele><time>2026-04-19T10:45:17Z</time></trkpt><trkpt lat="44.42492063585761" lon="8.947167673965948"><ele>25.333333333333336</ele><time>2026-04-19T10:45:19Z</time></trkpt><trkpt lat="44.42483797488284" lon="8.947145538542573"><ele>25.166666666666668</ele><time>2026-04-19T10:45:21Z</time></trkpt><trkpt lat="44.42474371131441" lon="8.94713703138485"><ele>25.0</ele><time>2026-04-19T10:45:23Z</time></trkpt><trkpt lat="44.424647274806055" lon="8.94712110941166"><ele>24.2</ele><time>2026-04-19T10:45:25Z</time></trkpt><trkpt lat="44.42455318765268" lon="8.94710889148348"><ele>23.4</ele><time>2026-04-19T10:45:27Z</time></trkpt><trkpt lat="44.42445498953225" lon="8.947091830708445"><ele>22.6</ele><time>2026-04-19T10:45:29Z</time></trkpt><trkpt lat="44.42435876960424" lon="8.947079994326671"><ele>21.8</ele><time>2026-04-19T10:45:31Z</time></trkpt><trkpt lat="44.424262110555574" lon="8.94706427443628"><ele>21.0</ele><time>2026-04-19T10:45:33Z</time></trkpt><trkpt lat="44.42416155526336" lon="8.947057632074479"><ele>21.0</ele><time>2026-04-19T10:45:35Z</time></trkpt><trkpt lat="44.42406350185341" lon="8.947051401526544"><ele>21.0</ele><time>2026-04-19T10:45:37Z</time></trkpt><trkpt lat="44.42396047451174" lon="8.94704044386927"><ele>21.0</ele><time>2026-04-19T10:45:39Z</time></trkpt><trkpt lat="44.42386023388647" lon="8.947038194583474"><ele>21.0</ele><time>2026-04-19T10:45:41Z</time></trkpt><trkpt lat="44.42376263381656" lon="8.94702044615252"><ele>21.0</ele><time>2026-04-19T10:45:43Z</time></trkpt><trkpt lat="44.42366378589884" lon="8.947029692632515"><ele>20.333333333333332</ele><time>2026-04-19T10:45:45Z</time></trkpt><trkpt lat="44.423566470410876" lon="8.947010505817802"><ele>19.666666666666668</ele><time>2026-04-19T10:45:47Z</time></trkpt><trkpt lat="44.42347723871509" lon="8.946988860113096"><ele>19.0</ele><time>2026-04-19T10:45:49Z</time></trkpt><trkpt lat="44.423397963320284" lon="8.946967194747593"><ele>18.333333333333336</ele><time>2026-04-19T10:45:51Z</time></trkpt><trkpt lat="44.42332044984427" lon="8.946956203445046"><ele>17.666666666666668</ele><time>2026-04-19T10:45:53Z</time></trkpt><trkpt lat="44.42323687494401" lon="8.946969375161926"><ele>17.0</ele><time>2026-04-19T10:45:55Z</time></trkpt><trkpt lat="44.423149471038094" lon="8.946945757608878"><ele>16.999999999999996</ele><time>2026-04-19T10:45:58Z</time></trkpt><trkpt lat="44.42308375766492" lon="8.946951565091918"><ele>17.0</ele><time>2026-04-19T10:46:00Z</time></trkpt><trkpt lat="44.423028568748606" lon="8.946905575530831"><ele>17.0</ele><time>2026-04-19T10:46:43Z</time></trkpt><trkpt lat="44.422954201305025" lon="8.946895497776515"><ele>17.0</ele><time>2026-04-19T10:46:47Z</time></trkpt><trkpt lat="44.42286710526577" lon="8.946912081867607"><ele>17.0</ele><time>2026-04-19T10:46:51Z</time></trkpt><trkpt lat="44.42279684593784" lon="8.946886907398147"><ele>16.999999999999996</ele><time>2026-04-19T10:46:54Z</time></trkpt><trkpt lat="44.42273046835643" lon="8.946880735522505"><ele>17.0</ele><time>2026-04-19T10:47:10Z</time></trkpt><trkpt lat="44.42266232197396" lon="8.946889430658306"><ele>16.666666666666668</ele><time>2026-04-19T10:47:13Z</time></trkpt><trkpt lat="44.4225953490511" lon="8.946888084367457"><ele>16.333333333333336</ele><time>2026-04-19T10:47:15Z</time></trkpt><trkpt lat="44.42252289592364" lon="8.946864128248844"><ele>16.0</ele><time>2026-04-19T10:47:17Z</time></trkpt><trkpt lat="44.42243977379923" lon="8.946872259918466"><ele>15.666666666666668</ele><time>2026-04-19T10:47:19Z</time></trkpt><trkpt lat="44.422351967604264" lon="8.946861325375567"><ele>15.333333333333334</ele><time>2026-04-19T10:47:21Z</time></trkpt><trkpt lat="44.422267379254755" lon="8.946848764659826"><ele>15.0</ele><time>2026-04-19T10:47:23Z</time></trkpt><trkpt lat="44.422174093010554" lon="8.946836175908375"><ele>14.833333333333334</ele><time>2026-04-19T10:47:25Z</time></trkpt><trkpt lat="44.42208310891152" lon="8.946817967264664"><ele>14.666666666666668</ele><time>2026-04-19T10:47:27Z</time></trkpt><trkpt lat="44.42199288028466" lon="8.946811228313912"><ele>14.5</ele><time>2026-04-19T10:47:29Z</time></trkpt><trkpt lat="44.421910165099376" lon="8.946793507289875"><ele>14.333333333333334</ele><time>2026-04-19T10:47:31Z</time></trkpt><trkpt lat="44.42182348153033" lon="8.946790874191993"><ele>14.166666666666668</ele><time>2026-04-19T10:47:33Z</time></trkpt><trkpt lat="44.42173648236731" lon="8.946792937262174"><ele>14.0</ele><time>2026-04-19T10:47:35Z</time></trkpt><trkpt lat="44.42164612081461" lon="8.946778913398802"><ele>14.000000000000002</ele><time>2026-04-19T10:47:37Z</time></trkpt><trkpt lat="44.421550748159994" lon="8.946775255872629"><ele>14.0</ele><time>2026-04-19T10:47:39Z</time></trkpt><trkpt lat="44.42146940016593" lon="8.946753402329026"><ele>14.0</ele><time>2026-04-19T10:47:41Z</time></trkpt><trkpt lat="44.421390655100346" lon="8.946742259845518"><ele>14.0</ele><time>2026-04-19T10:47:43Z</time></trkpt><trkpt lat="44.42130825825917" lon="8.946745426682591"><ele>14.000000000000002</ele><time>2026-04-19T10:47:45Z</time></trkpt><trkpt lat="44.4212348979571" lon="8.9467481173837"><ele>14.0</ele><time>2026-04-19T10:47:47Z</time></trkpt><trkpt lat="44.42115876754162" lon="8.946745549245252"><ele>14.0</ele><time>2026-04-19T10:47:49Z</time></trkpt><trkpt lat="44.42108937057096" lon="8.946744993677274"><ele>14.0</ele><time>2026-04-19T10:47:51Z</time></trkpt><trkpt lat="44.421024003248135" lon="8.94674458377854"><ele>14.0</ele><time>2026-04-19T10:47:53Z</time></trkpt><trkpt lat="44.420950281257326" lon="8.946724119588081"><ele>14.0</ele><time>2026-04-19T10:47:57Z</time></trkpt><trkpt lat="44.42093741709131" lon="8.946615204127117"><ele>14.0</ele><time>2026-04-19T10:48:01Z</time></trkpt><trkpt lat="44.420936246982755" lon="8.946517223284697"><ele>14.0</ele><time>2026-04-19T10:48:07Z</time></trkpt><trkpt lat="44.420919486549806" lon="8.946417090460715"><ele>14.0</ele><time>2026-04-19T10:48:13Z</time></trkpt><trkpt lat="44.42093041113291" lon="8.946511572509161"><ele>14.0</ele><time>2026-04-19T10:48:27Z</time></trkpt><trkpt lat="44.420939243582765" lon="8.946602867363213"><ele>14.0</ele><time>2026-04-19T10:48:31Z</time></trkpt><trkpt lat="44.42092540599004" lon="8.946708530926168"><ele>14.0</ele><time>2026-04-19T10:48:36Z</time></trkpt><trkpt lat="44.420864551319525" lon="8.946769489393636"><ele>14.0</ele><time>2026-04-19T10:48:41Z</time></trkpt><trkpt lat="44.4207853871393" lon="8.946778101556095"><ele>14.0</ele><time>2026-04-19T10:48:44Z</time></trkpt><trkpt lat="44.420718457795125" lon="8.94678111686296"><ele>14.0</ele><time>2026-04-19T10:48:47Z</time></trkpt><trkpt lat="44.4206505240515" lon="8.946816299379174"><ele>14.0</ele><time>2026-04-19T10:48:50Z</time></trkpt><trkpt lat="44.42059372614988" lon="8.94687352499625"><ele>14.0</ele><time>2026-04-19T10:48:56Z</time></trkpt><trkpt lat="44.4205209056254" lon="8.946847920855003"><ele>14.0</ele><time>2026-04-19T10:49:39Z</time></trkpt><trkpt lat="44.420377523679925" lon="8.946968670942772"><ele>14.0</ele><time>2026-04-19T10:50:20Z</time></trkpt><trkpt lat="44.42053364839161" lon="8.946884013806232"><ele>14.0</ele><time>2026-04-19T10:50:56Z</time></trkpt><trkpt lat="44.42051677835299" lon="8.946798618568515"><ele>14.0</ele><time>2026-04-19T10:56:25.688Z</time></trkpt><trkpt lat="44.42065243639204" lon="8.94677208793452"><ele>13.999999999999998</ele><time>2026-04-19T10:56:28.042Z</time></trkpt><trkpt lat="44.42057964278161" lon="8.946766296990253"><ele>13.999999999999998</ele><time>2026-04-19T10:56:44.392Z</time></trkpt><trkpt lat="44.420514934771674" lon="8.9467947530772"><ele>14.0</ele><time>2026-04-19T10:56:50.811Z</time></trkpt><trkpt lat="44.420485849279046" lon="8.946701866391301"><ele>14.0</ele><time>2026-04-19T10:56:52Z</time></trkpt><trkpt lat="44.42065243639204" lon="8.94677208793452"><ele>14.0</ele><time>2026-04-19T10:57:11Z</time></trkpt><trkpt lat="44.42061292564757" lon="8.946664626959018"><ele>21.0</ele><time>2026-04-19T10:57:41Z</time></trkpt></trkseg></trk></gpx>